Darstellungsparameter: Aktuell verwendete Einstellungen:
Skalierung der Graphiken ... ?
xyx+y,   Skalierungsfaktor:      Skalierung: Modus: x, Faktor: 1
Darstellungszeitraum ... ?
Vom - - bis: - -   Zeitraum: 21.05.2020 - 27.05.2020
Min/Max/Avg-Anzeige ... ?
Zeige MMA aktuell
Zeige MMA Monat
Zeige MMA alles
Zeige --A aktuell
Zeige --A Monat
Zeige --A alles
Keine MMA-Anzeige
MMA:
Average (ber die Originaldaten)
MMA-Basis: 21.05.2020 - 27.05.2020
Quicknavigation für Darstellung... ?
Tage:      1T, 2T, 3T, 5T -1T -2T -3T -5T +1T +2T +3T +5T
Wochen: 1W, 2W, 3W -1W -2W -3W +1W +2W +3W
Monate: 1M, 3M, 6M -1M -3M -6M +1M +3M +6M
Jahre:    1J, 3J, 5J, 10J -1J -3J -5J -10J +1J +3J +5J +10J
Nutze für die Darstellung ... ?
Originaldaten oder Mittelwerte auf ...
Stundenbasis Tagesbasis Wochenbasis
Monatsbasis Jahresbasis      Datenbasis: Original-Daten
Darstellen als:
Statistik (Auto) Statistik J:M      Darstellung:
Zur Graphik,    zurück zur Übersicht aller Sensoren.
 
Tabellarische Datenbersicht: ?
 
Sensor: Nr:Datum:Temp:Abs-Feuchte:Windchill:Wind:
Aussen-T/F 1 21-05-2020 00:00:00 14.8 C 10.13 g/m*3 14.8 C 0 km/h
2 21-05-2020 00:05:00 14.7 C 10.07 g/m*3 14.7 C 0 km/h
3 21-05-2020 00:10:00 14.7 C 10.07 g/m*3 14.7 C 3.2 km/h
4 21-05-2020 00:15:00 14.6 C 10.01 g/m*3 14.6 C 0 km/h
5 21-05-2020 00:20:00 14.5 C 10.07 g/m*3 14.5 C 1.6 km/h
6 21-05-2020 00:25:00 14.4 C 9.89 g/m*3 14.4 C 3.2 km/h
7 21-05-2020 00:30:00 14.4 C 9.89 g/m*3 14.4 C 1.6 km/h
8 21-05-2020 00:35:00 14.4 C 9.89 g/m*3 14.4 C 3.2 km/h
9 21-05-2020 00:40:00 14.4 C 9.89 g/m*3 14.4 C 4.8 km/h
10 21-05-2020 00:45:00 14.5 C 9.95 g/m*3 14.5 C 0 km/h
11 21-05-2020 00:50:00 14.6 C 10.01 g/m*3 14.6 C 4.8 km/h
12 21-05-2020 00:55:00 14.6 C 9.89 g/m*3 14.6 C 0 km/h
13 21-05-2020 01:00:00 14.6 C 9.89 g/m*3 14.6 C 0 km/h
14 21-05-2020 01:05:00 14.6 C 9.89 g/m*3 14.6 C 0 km/h
15 21-05-2020 01:10:00 14.7 C 9.95 g/m*3 14.7 C 4.8 km/h
16 21-05-2020 01:15:00 14.9 C 10.07 g/m*3 14.9 C 4.8 km/h
17 21-05-2020 01:20:00 14.9 C 9.94 g/m*3 14.9 C 4.8 km/h
18 21-05-2020 01:25:00 15 C 10 g/m*3 15 C 1.6 km/h
19 21-05-2020 01:30:00 14.9 C 9.94 g/m*3 14.9 C 0 km/h
20 21-05-2020 01:35:00 14.8 C 9.88 g/m*3 14.8 C 1.6 km/h
21 21-05-2020 01:40:00 14.5 C 9.83 g/m*3 14.5 C 4.8 km/h
22 21-05-2020 01:45:00 14.3 C 9.83 g/m*3 14.3 C 3.2 km/h
23 21-05-2020 01:50:00 14.1 C 9.71 g/m*3 14.1 C 3.2 km/h
24 21-05-2020 01:55:00 13.9 C 9.71 g/m*3 13.9 C 3.2 km/h
25 21-05-2020 02:00:00 13.7 C 9.71 g/m*3 13.7 C 3.2 km/h
Sensor: Nr:Datum:Temp:Abs-Feuchte:Windchill:Wind:
Aussen-T/F 26 21-05-2020 02:05:00 13.6 C 9.65 g/m*3 13.6 C 3.2 km/h
27 21-05-2020 02:10:00 13.4 C 9.65 g/m*3 13.4 C 4.8 km/h
28 21-05-2020 02:15:00 13.3 C 9.59 g/m*3 13.3 C 3.2 km/h
29 21-05-2020 02:20:00 13.3 C 9.7 g/m*3 13.3 C 3.2 km/h
30 21-05-2020 02:25:00 13.2 C 9.64 g/m*3 13.2 C 3.2 km/h
31 21-05-2020 02:30:00 13.1 C 9.59 g/m*3 13.1 C 3.2 km/h
32 21-05-2020 02:35:00 13 C 9.64 g/m*3 13 C 3.2 km/h
33 21-05-2020 02:40:00 12.9 C 9.58 g/m*3 12.9 C 4.8 km/h
34 21-05-2020 02:45:00 12.9 C 9.58 g/m*3 12.9 C 4.8 km/h
35 21-05-2020 02:50:00 12.8 C 9.63 g/m*3 12.8 C 6.4 km/h
36 21-05-2020 02:55:00 12.8 C 9.63 g/m*3 12.8 C 4.8 km/h
37 21-05-2020 03:00:00 12.7 C 9.57 g/m*3 12.7 C 4.8 km/h
38 21-05-2020 03:05:00 12.7 C 9.57 g/m*3 12.7 C 4.8 km/h
39 21-05-2020 03:10:00 12.7 C 9.57 g/m*3 12.7 C 4.8 km/h
40 21-05-2020 03:15:00 12.6 C 9.62 g/m*3 12.6 C 6.4 km/h
41 21-05-2020 03:20:00 12.6 C 9.62 g/m*3 12.6 C 4.8 km/h
42 21-05-2020 03:25:00 12.5 C 9.57 g/m*3 12.5 C 3.2 km/h
43 21-05-2020 03:30:00 12.4 C 9.51 g/m*3 12.4 C 4.8 km/h
44 21-05-2020 03:35:00 12.4 C 9.51 g/m*3 12.4 C 1.6 km/h
45 21-05-2020 03:40:00 12.3 C 9.45 g/m*3 12.3 C 0 km/h
46 21-05-2020 03:45:00 12.2 C 9.39 g/m*3 12.2 C 0 km/h
47 21-05-2020 03:50:00 12.1 C 9.33 g/m*3 12.1 C 0 km/h
48 21-05-2020 03:55:00 12 C 9.38 g/m*3 12 C 0 km/h
49 21-05-2020 04:00:00 11.9 C 9.32 g/m*3 11.9 C 0 km/h
50 21-05-2020 04:05:00 11.8 C 9.26 g/m*3 11.8 C 0 km/h
Sensor: Nr:Datum:Temp:Abs-Feuchte:Windchill:Wind:
Aussen-T/F 51 21-05-2020 04:10:00 11.8 C 9.37 g/m*3 11.8 C 0 km/h
52 21-05-2020 04:15:00 11.7 C 9.2 g/m*3 11.7 C 0 km/h
53 21-05-2020 04:20:00 11.6 C 9.25 g/m*3 11.6 C 3.2 km/h
54 21-05-2020 04:25:00 11.4 C 9.14 g/m*3 11.4 C 0 km/h
55 21-05-2020 04:30:00 11.3 C 9.08 g/m*3 11.3 C 0 km/h
56 21-05-2020 04:35:00 11.2 C 9.02 g/m*3 11.2 C 0 km/h
57 21-05-2020 04:40:00 11.2 C 9.12 g/m*3 11.2 C 0 km/h
58 21-05-2020 04:45:00 11.1 C 9.07 g/m*3 11.1 C 0 km/h
59 21-05-2020 04:50:00 11.1 C 9.07 g/m*3 11.1 C 0 km/h
60 21-05-2020 04:55:00 10.9 C 8.95 g/m*3 10.9 C 0 km/h
61 21-05-2020 05:00:00 10.9 C 8.95 g/m*3 10.9 C 0 km/h
62 21-05-2020 05:05:00 10.8 C 8.99 g/m*3 10.8 C 0 km/h
63 21-05-2020 05:10:00 10.7 C 8.94 g/m*3 10.7 C 0 km/h
64 21-05-2020 05:15:00 10.7 C 8.94 g/m*3 10.7 C 0 km/h
65 21-05-2020 05:20:00 10.7 C 8.94 g/m*3 10.7 C 0 km/h
66 21-05-2020 05:25:00 10.6 C 8.88 g/m*3 10.6 C 0 km/h
67 21-05-2020 05:30:00 10.6 C 8.98 g/m*3 10.6 C 0 km/h
68 21-05-2020 05:35:00 10.5 C 8.92 g/m*3 10.5 C 0 km/h
69 21-05-2020 05:40:00 10.4 C 8.87 g/m*3 10.4 C 0 km/h
70 21-05-2020 05:45:00 10.4 C 8.87 g/m*3 10.4 C 0 km/h
71 21-05-2020 05:50:00 10.3 C 8.81 g/m*3 10.3 C 0 km/h
72 21-05-2020 05:55:00 10.3 C 8.81 g/m*3 10.3 C 0 km/h
73 21-05-2020 06:00:00 10.3 C 8.81 g/m*3 10.3 C 0 km/h
74 21-05-2020 06:05:00 10.3 C 8.91 g/m*3 10.3 C 0 km/h
75 21-05-2020 06:10:00 10.3 C 8.91 g/m*3 10.3 C 0 km/h
Sensor: Nr:Datum:Temp:Abs-Feuchte:Windchill:Wind:
Aussen-T/F 76 21-05-2020 06:15:00 10.2 C 8.85 g/m*3 10.2 C 0 km/h
77 21-05-2020 06:20:00 10.2 C 8.85 g/m*3 10.2 C 0 km/h
78 21-05-2020 06:25:00 10.2 C 8.85 g/m*3 10.2 C 0 km/h
79 21-05-2020 06:30:00 10.2 C 8.85 g/m*3 10.2 C 0 km/h
80 21-05-2020 06:35:00 10.2 C 8.85 g/m*3 10.2 C 0 km/h
81 21-05-2020 06:40:00 10.3 C 8.91 g/m*3 10.3 C 0 km/h
82 21-05-2020 06:45:00 10.3 C 8.91 g/m*3 10.3 C 0 km/h
83 21-05-2020 06:50:00 10.3 C 8.91 g/m*3 10.3 C 0 km/h
84 21-05-2020 06:55:00 10.3 C 8.91 g/m*3 10.3 C 0 km/h
85 21-05-2020 07:00:00 10.3 C 9 g/m*3 10.3 C 0 km/h
86 21-05-2020 07:05:00 10.3 C 9 g/m*3 10.3 C 0 km/h
87 21-05-2020 07:10:00 10.4 C 9.06 g/m*3 10.4 C 0 km/h
88 21-05-2020 07:15:00 10.5 C 9.12 g/m*3 10.5 C 0 km/h
89 21-05-2020 07:20:00 10.6 C 9.17 g/m*3 10.6 C 0 km/h
90 21-05-2020 07:25:00 10.7 C 9.23 g/m*3 10.7 C 0 km/h
91 21-05-2020 07:30:00 10.7 C 9.23 g/m*3 10.7 C 0 km/h
92 21-05-2020 07:35:00 10.8 C 9.29 g/m*3 10.8 C 0 km/h
93 21-05-2020 07:40:00 10.8 C 9.29 g/m*3 10.8 C 0 km/h
94 21-05-2020 07:45:00 10.9 C 9.35 g/m*3 10.9 C 0 km/h
95 21-05-2020 07:50:00 11 C 9.51 g/m*3 11 C 0 km/h
96 21-05-2020 07:55:00 11.1 C 9.57 g/m*3 11.1 C 0 km/h
97 21-05-2020 08:00:00 11.2 C 9.63 g/m*3 11.2 C 0 km/h
98 21-05-2020 08:05:00 11.3 C 9.69 g/m*3 11.3 C 0 km/h
99 21-05-2020 08:10:00 11.4 C 9.75 g/m*3 11.4 C 0 km/h
100 21-05-2020 08:15:00 11.4 C 9.75 g/m*3 11.4 C 0 km/h
Sensor: Nr:Datum:Temp:Abs-Feuchte:Windchill:Wind:
Aussen-T/F 101 21-05-2020 08:20:00 11.6 C 9.87 g/m*3 11.6 C 0 km/h
102 21-05-2020 08:25:00 11.7 C 9.94 g/m*3 11.7 C 0 km/h
103 21-05-2020 08:30:00 11.8 C 10 g/m*3 11.8 C 0 km/h
104 21-05-2020 08:35:00 11.9 C 10.06 g/m*3 11.9 C 0 km/h
105 21-05-2020 08:40:00 12.1 C 10.19 g/m*3 12.1 C 0 km/h
106 21-05-2020 08:45:00 12.2 C 10.25 g/m*3 12.2 C 1.6 km/h
107 21-05-2020 08:50:00 12.3 C 10.32 g/m*3 12.3 C 1.6 km/h
108 21-05-2020 08:55:00 12.5 C 10.44 g/m*3 12.5 C 1.6 km/h
109 21-05-2020 09:00:00 12.7 C 10.58 g/m*3 12.7 C 0 km/h
110 21-05-2020 09:05:00 12.9 C 10.71 g/m*3 12.9 C 1.6 km/h
111 21-05-2020 09:10:00 13.1 C 10.73 g/m*3 13.1 C 0 km/h
112 21-05-2020 09:15:00 13.3 C 10.86 g/m*3 13.3 C 1.6 km/h
113 21-05-2020 09:20:00 13.6 C 11.06 g/m*3 13.6 C 0 km/h
114 21-05-2020 09:25:00 13.8 C 11.08 g/m*3 13.8 C 0 km/h
115 21-05-2020 09:30:00 14 C 11.22 g/m*3 14 C 1.6 km/h
116 21-05-2020 09:35:00 14.2 C 11.11 g/m*3 14.2 C 1.6 km/h
117 21-05-2020 09:40:00 14.4 C 11.25 g/m*3 14.4 C 0 km/h
118 21-05-2020 09:45:00 14.7 C 11.33 g/m*3 14.7 C 0 km/h
119 21-05-2020 09:50:00 14.9 C 11.34 g/m*3 14.9 C 0 km/h
120 21-05-2020 09:55:00 15.1 C 11.35 g/m*3 15.1 C 1.6 km/h
121 21-05-2020 10:00:00 15.3 C 11.36 g/m*3 15.3 C 0 km/h
122 21-05-2020 10:05:00 15.7 C 11.51 g/m*3 15.7 C 0 km/h
123 21-05-2020 10:10:00 16 C 11.58 g/m*3 16 C 0 km/h
124 21-05-2020 10:15:00 16.3 C 11.65 g/m*3 16.3 C 1.6 km/h
125 21-05-2020 10:20:00 16.7 C 11.94 g/m*3 16.7 C 1.6 km/h
Sensor: Nr:Datum:Temp:Abs-Feuchte:Windchill:Wind:
Aussen-T/F 126 21-05-2020 10:25:00 17.1 C 11.94 g/m*3 17.1 C 3.2 km/h
127 21-05-2020 10:30:00 17.8 C 11.84 g/m*3 17.8 C 6.4 km/h
128 21-05-2020 10:35:00 18.6 C 11.78 g/m*3 18.6 C 6.4 km/h
129 21-05-2020 10:40:00 19.3 C 11.61 g/m*3 19.3 C 9.7 km/h
130 21-05-2020 10:45:00 19.7 C 11.72 g/m*3 19.7 C 9.7 km/h
131 21-05-2020 10:50:00 19.9 C 11.68 g/m*3 19.9 C 8.1 km/h
132 21-05-2020 10:55:00 20.1 C 11.65 g/m*3 20.1 C 11.3 km/h
133 21-05-2020 11:00:00 20.3 C 11.78 g/m*3 20.3 C 9.7 km/h
134 21-05-2020 11:05:00 20.6 C 11.99 g/m*3 20.6 C 9.7 km/h
135 21-05-2020 11:10:00 20.8 C 12.13 g/m*3 20.8 C 9.7 km/h
136 21-05-2020 11:15:00 21 C 11.72 g/m*3 21 C 12.9 km/h
137 21-05-2020 11:20:00 21.2 C 11.49 g/m*3 21.2 C 12.9 km/h
138 21-05-2020 11:25:00 21.3 C 11.74 g/m*3 21.3 C 12.9 km/h
139 21-05-2020 11:30:00 21.4 C 11.62 g/m*3 21.4 C 9.7 km/h
140 21-05-2020 11:35:00 21.4 C 11.62 g/m*3 21.4 C 9.7 km/h
141 21-05-2020 11:40:00 21.5 C 11.5 g/m*3 21.5 C 11.3 km/h
142 21-05-2020 11:45:00 21.7 C 11.45 g/m*3 21.7 C 12.9 km/h
143 21-05-2020 11:50:00 21.8 C 11.51 g/m*3 21.8 C 11.3 km/h
144 21-05-2020 11:55:00 21.8 C 11.7 g/m*3 21.8 C 6.4 km/h
145 21-05-2020 12:00:00 21.7 C 11.64 g/m*3 21.7 C 8.1 km/h
146 21-05-2020 12:05:00 21.7 C 11.45 g/m*3 21.7 C 6.4 km/h
147 21-05-2020 12:10:00 21.8 C 11.51 g/m*3 21.8 C 8.1 km/h
148 21-05-2020 12:15:00 21.8 C 11.51 g/m*3 21.8 C 6.4 km/h
149 21-05-2020 12:20:00 22 C 11.84 g/m*3 22 C 9.7 km/h
150 21-05-2020 12:25:00 22.1 C 11.32 g/m*3 22.1 C 4.8 km/h
Sensor: Nr:Datum:Temp:Abs-Feuchte:Windchill:Wind:
Aussen-T/F 151 21-05-2020 12:30:00 22.1 C 11.32 g/m*3 22.1 C 9.7 km/h
152 21-05-2020 12:35:00 22.3 C 11.45 g/m*3 22.3 C 8.1 km/h
153 21-05-2020 12:40:00 22.4 C 11.32 g/m*3 22.4 C 6.4 km/h
154 21-05-2020 12:45:00 22.5 C 11.58 g/m*3 22.5 C 9.7 km/h
155 21-05-2020 12:50:00 22.7 C 11.52 g/m*3 22.7 C 11.3 km/h
156 21-05-2020 12:55:00 22.8 C 11.18 g/m*3 22.8 C 8.1 km/h
157 21-05-2020 13:00:00 22.8 C 10.97 g/m*3 22.8 C 12.9 km/h
158 21-05-2020 13:05:00 22.8 C 11.38 g/m*3 22.8 C 11.3 km/h
159 21-05-2020 13:10:00 22.9 C 11.44 g/m*3 22.9 C 12.9 km/h
160 21-05-2020 13:15:00 23.1 C 11.37 g/m*3 23.1 C 9.7 km/h
161 21-05-2020 13:20:00 23.1 C 11.78 g/m*3 23.1 C 6.4 km/h
162 21-05-2020 13:25:00 23.2 C 11.85 g/m*3 23.2 C 6.4 km/h
163 21-05-2020 13:30:00 23.3 C 11.29 g/m*3 23.3 C 4.8 km/h
164 21-05-2020 13:35:00 23.4 C 11.35 g/m*3 23.4 C 8.1 km/h
165 21-05-2020 13:40:00 23.6 C 11.48 g/m*3 23.6 C 6.4 km/h
166 21-05-2020 13:45:00 23.6 C 11.7 g/m*3 23.6 C 4.8 km/h
167 21-05-2020 13:50:00 23.5 C 11.42 g/m*3 23.5 C 4.8 km/h
168 21-05-2020 13:55:00 23.6 C 11.7 g/m*3 23.6 C 6.4 km/h
169 21-05-2020 14:00:00 23.7 C 11.76 g/m*3 23.7 C 6.4 km/h
170 21-05-2020 14:05:00 23.9 C 11.9 g/m*3 23.9 C 9.7 km/h
171 21-05-2020 14:10:00 24.1 C 11.82 g/m*3 24.1 C 6.4 km/h
172 21-05-2020 14:15:00 24.3 C 11.73 g/m*3 24.3 C 8.1 km/h
173 21-05-2020 14:20:00 24.4 C 11.57 g/m*3 24.4 C 9.7 km/h
174 21-05-2020 14:25:00 24.5 C 11.86 g/m*3 24.5 C 8.1 km/h
175 21-05-2020 14:30:00 24.8 C 12.06 g/m*3 24.8 C 8.1 km/h
Sensor: Nr:Datum:Temp:Abs-Feuchte:Windchill:Wind:
Aussen-T/F 176 21-05-2020 14:35:00 25.1 C 11.81 g/m*3 25.1 C 4.8 km/h
177 21-05-2020 14:40:00 25.2 C 11.64 g/m*3 25.2 C 4.8 km/h
178 21-05-2020 14:45:00 25.2 C 11.64 g/m*3 25.2 C 6.4 km/h
179 21-05-2020 14:50:00 25.1 C 11.57 g/m*3 25.1 C 8.1 km/h
180 21-05-2020 14:55:00 25.2 C 11.64 g/m*3 25.2 C 9.7 km/h
181 21-05-2020 15:00:00 25.5 C 11.6 g/m*3 25.5 C 4.8 km/h
182 21-05-2020 15:05:00 25.6 C 11.43 g/m*3 25.6 C 8.1 km/h
183 21-05-2020 15:10:00 25.7 C 11.97 g/m*3 25.7 C 4.8 km/h
184 21-05-2020 15:15:00 26.2 C 11.32 g/m*3 26.2 C 8.1 km/h
185 21-05-2020 15:20:00 26.6 C 11.58 g/m*3 26.6 C 6.4 km/h
186 21-05-2020 15:25:00 26.9 C 11.77 g/m*3 26.9 C 9.7 km/h
187 21-05-2020 15:30:00 27.1 C 11.9 g/m*3 27.1 C 6.4 km/h
188 21-05-2020 15:35:00 27.5 C 12.43 g/m*3 27.5 C 4.8 km/h
189 21-05-2020 15:40:00 27.7 C 11.77 g/m*3 27.7 C 8.1 km/h
190 21-05-2020 15:45:00 27.8 C 11.3 g/m*3 27.8 C 8.1 km/h
191 21-05-2020 15:50:00 27.8 C 11.3 g/m*3 27.8 C 9.7 km/h
192 21-05-2020 15:55:00 27.9 C 11.36 g/m*3 27.9 C 8.1 km/h
193 21-05-2020 16:00:00 27.9 C 11.09 g/m*3 27.9 C 9.7 km/h
194 21-05-2020 16:05:00 27.8 C 11.3 g/m*3 27.8 C 8.1 km/h
195 21-05-2020 16:10:00 27.8 C 11.57 g/m*3 27.8 C 11.3 km/h
196 21-05-2020 16:15:00 27.8 C 11.3 g/m*3 27.8 C 9.7 km/h
197 21-05-2020 16:20:00 27.8 C 12.1 g/m*3 27.8 C 8.1 km/h
198 21-05-2020 16:25:00 28.1 C 11.76 g/m*3 28.1 C 4.8 km/h
199 21-05-2020 16:30:00 28.1 C 11.21 g/m*3 28.1 C 6.4 km/h
200 21-05-2020 16:35:00 28.2 C 11.27 g/m*3 28.2 C 4.8 km/h
Sensor: Nr:Datum:Temp:Abs-Feuchte:Windchill:Wind:
Aussen-T/F 201 21-05-2020 16:40:00 28.4 C 10.84 g/m*3 28.4 C 9.7 km/h
202 21-05-2020 16:45:00 28.2 C 10.45 g/m*3 28.2 C 8.1 km/h
203 21-05-2020 16:50:00 28.3 C 11.06 g/m*3 28.3 C 8.1 km/h
204 21-05-2020 16:55:00 28.4 C 11.67 g/m*3 28.4 C 6.4 km/h
205 21-05-2020 17:00:00 28.5 C 10.9 g/m*3 28.5 C 8.1 km/h
206 21-05-2020 17:05:00 28.5 C 11.18 g/m*3 28.5 C 4.8 km/h
207 21-05-2020 17:10:00 28.9 C 10.86 g/m*3 28.9 C 4.8 km/h
208 21-05-2020 17:15:00 29.2 C 11.32 g/m*3 29.2 C 3.2 km/h
209 21-05-2020 17:20:00 28.9 C 10.57 g/m*3 28.9 C 9.7 km/h
210 21-05-2020 17:25:00 28.9 C 10.86 g/m*3 28.9 C 9.7 km/h
211 21-05-2020 17:30:00 29 C 10.91 g/m*3 29 C 8.1 km/h
212 21-05-2020 17:35:00 28.8 C 10.8 g/m*3 28.8 C 9.7 km/h
213 21-05-2020 17:40:00 28.7 C 11.02 g/m*3 28.7 C 6.4 km/h
214 21-05-2020 17:45:00 28.6 C 10.68 g/m*3 28.6 C 9.7 km/h
215 21-05-2020 17:50:00 28.3 C 10.51 g/m*3 28.3 C 11.3 km/h
216 21-05-2020 17:55:00 28.1 C 10.39 g/m*3 28.1 C 9.7 km/h
217 21-05-2020 18:00:00 27.9 C 10.82 g/m*3 27.9 C 6.4 km/h
218 21-05-2020 18:05:00 28.3 C 11.06 g/m*3 28.3 C 9.7 km/h
219 21-05-2020 18:10:00 28.9 C 10.86 g/m*3 28.9 C 8.1 km/h
220 21-05-2020 18:15:00 28.7 C 10.17 g/m*3 28.7 C 12.9 km/h
221 21-05-2020 18:20:00 28.1 C 10.12 g/m*3 28.1 C 9.7 km/h
222 21-05-2020 18:25:00 27.9 C 10.28 g/m*3 27.9 C 9.7 km/h
223 21-05-2020 18:30:00 27.8 C 10.22 g/m*3 27.8 C 9.7 km/h
224 21-05-2020 18:35:00 27.7 C 10.43 g/m*3 27.7 C 4.8 km/h
225 21-05-2020 18:40:00 27.5 C 10.58 g/m*3 27.5 C 4.8 km/h
Sensor: Nr:Datum:Temp:Abs-Feuchte:Windchill:Wind:
Aussen-T/F 226 21-05-2020 18:45:00 27.7 C 10.7 g/m*3 27.7 C 6.4 km/h
227 21-05-2020 18:50:00 28 C 11.42 g/m*3 28 C 6.4 km/h
228 21-05-2020 18:55:00 28.3 C 10.78 g/m*3 28.3 C 3.2 km/h
229 21-05-2020 19:00:00 28.4 C 10.84 g/m*3 28.4 C 6.4 km/h
230 21-05-2020 19:05:00 28.6 C 11.24 g/m*3 28.6 C 4.8 km/h
231 21-05-2020 19:10:00 28.5 C 10.9 g/m*3 28.5 C 4.8 km/h
232 21-05-2020 19:15:00 28.6 C 10.68 g/m*3 28.6 C 4.8 km/h
233 21-05-2020 19:20:00 28.4 C 11.12 g/m*3 28.4 C 6.4 km/h
234 21-05-2020 19:25:00 28.2 C 10.72 g/m*3 28.2 C 4.8 km/h
235 21-05-2020 19:30:00 27.9 C 10.82 g/m*3 27.9 C 4.8 km/h
236 21-05-2020 19:35:00 27.7 C 10.97 g/m*3 27.7 C 3.2 km/h
237 21-05-2020 19:40:00 27.7 C 11.5 g/m*3 27.7 C 3.2 km/h
238 21-05-2020 19:45:00 27.7 C 12.84 g/m*3 27.7 C 3.2 km/h
239 21-05-2020 19:50:00 27.7 C 12.84 g/m*3 27.7 C 3.2 km/h
240 21-05-2020 19:55:00 27.6 C 12.77 g/m*3 27.6 C 1.6 km/h
241 21-05-2020 20:00:00 27.6 C 12.77 g/m*3 27.6 C 1.6 km/h
242 21-05-2020 20:05:00 27.3 C 12.82 g/m*3 27.3 C 4.8 km/h
243 21-05-2020 20:10:00 26.9 C 12.54 g/m*3 26.9 C 4.8 km/h
244 21-05-2020 20:15:00 26.3 C 12.38 g/m*3 26.3 C 3.2 km/h
245 21-05-2020 20:20:00 25.7 C 12.45 g/m*3 25.7 C 4.8 km/h
246 21-05-2020 20:25:00 25.1 C 12.5 g/m*3 25.1 C 3.2 km/h
247 21-05-2020 20:30:00 24.7 C 12.45 g/m*3 24.7 C 0 km/h
248 21-05-2020 20:35:00 24.5 C 12.53 g/m*3 24.5 C 1.6 km/h
249 21-05-2020 20:40:00 24.3 C 12.61 g/m*3 24.3 C 1.6 km/h
250 21-05-2020 20:45:00 24.1 C 12.47 g/m*3 24.1 C 1.6 km/h
Sensor: Nr:Datum:Temp:Abs-Feuchte:Windchill:Wind:
Aussen-T/F 251 21-05-2020 20:50:00 23.8 C 12.48 g/m*3 23.8 C 1.6 km/h
252 21-05-2020 20:55:00 23.4 C 12.41 g/m*3 23.4 C 0 km/h
253 21-05-2020 21:00:00 23.1 C 12.4 g/m*3 23.1 C 1.6 km/h
254 21-05-2020 21:05:00 22.6 C 12.25 g/m*3 22.6 C 4.8 km/h
255 21-05-2020 21:10:00 22.2 C 12.17 g/m*3 22.2 C 3.2 km/h
256 21-05-2020 21:15:00 21.8 C 12.09 g/m*3 21.8 C 3.2 km/h
257 21-05-2020 21:20:00 21.5 C 12.07 g/m*3 21.5 C 6.4 km/h
258 21-05-2020 21:25:00 21.2 C 12.05 g/m*3 21.2 C 6.4 km/h
259 21-05-2020 21:30:00 20.9 C 12.02 g/m*3 20.9 C 4.8 km/h
260 21-05-2020 21:35:00 20.7 C 12.06 g/m*3 20.7 C 4.8 km/h
261 21-05-2020 21:40:00 20.4 C 11.85 g/m*3 20.4 C 4.8 km/h
262 21-05-2020 21:45:00 20.2 C 11.89 g/m*3 20.2 C 4.8 km/h
263 21-05-2020 21:50:00 20 C 11.92 g/m*3 20 C 8.1 km/h
264 21-05-2020 21:55:00 19.8 C 11.79 g/m*3 19.8 C 8.1 km/h
265 21-05-2020 22:00:00 19.7 C 11.89 g/m*3 19.7 C 6.4 km/h
266 21-05-2020 22:05:00 19.6 C 11.82 g/m*3 19.6 C 4.8 km/h
267 21-05-2020 22:10:00 19.5 C 11.92 g/m*3 19.5 C 4.8 km/h
268 21-05-2020 22:15:00 19.4 C 11.85 g/m*3 19.4 C 4.8 km/h
269 21-05-2020 22:20:00 19.3 C 11.94 g/m*3 19.3 C 4.8 km/h
270 21-05-2020 22:25:00 19.1 C 11.8 g/m*3 19.1 C 4.8 km/h
271 21-05-2020 22:30:00 18.9 C 11.83 g/m*3 18.9 C 4.8 km/h
272 21-05-2020 22:35:00 18.8 C 11.92 g/m*3 18.8 C 4.8 km/h
273 21-05-2020 22:40:00 18.8 C 11.92 g/m*3 18.8 C 4.8 km/h
274 21-05-2020 22:45:00 18.7 C 11.85 g/m*3 18.7 C 4.8 km/h
275 21-05-2020 22:50:00 18.7 C 11.85 g/m*3 18.7 C 8.1 km/h
Sensor: Nr:Datum:Temp:Abs-Feuchte:Windchill:Wind:
Aussen-T/F 276 21-05-2020 22:55:00 18.7 C 11.85 g/m*3 18.7 C 3.2 km/h
277 21-05-2020 23:00:00 18.7 C 11.69 g/m*3 18.7 C 6.4 km/h
278 21-05-2020 23:05:00 18.8 C 11.76 g/m*3 18.8 C 3.2 km/h
279 21-05-2020 23:10:00 18.9 C 11.83 g/m*3 18.9 C 3.2 km/h
280 21-05-2020 23:15:00 18.9 C 11.83 g/m*3 18.9 C 0 km/h
281 21-05-2020 23:20:00 18.9 C 11.83 g/m*3 18.9 C 1.6 km/h
282 21-05-2020 23:25:00 18.9 C 11.83 g/m*3 18.9 C 3.2 km/h
283 21-05-2020 23:30:00 18.8 C 11.76 g/m*3 18.8 C 3.2 km/h
284 21-05-2020 23:35:00 18.7 C 11.69 g/m*3 18.7 C 3.2 km/h
285 21-05-2020 23:40:00 18.6 C 11.62 g/m*3 18.6 C 1.6 km/h
286 21-05-2020 23:45:00 18.4 C 11.64 g/m*3 18.4 C 3.2 km/h
287 21-05-2020 23:50:00 18.3 C 11.57 g/m*3 18.3 C 1.6 km/h
288 21-05-2020 23:55:00 18.2 C 11.5 g/m*3 18.2 C 3.2 km/h
289 22-05-2020 00:00:00 18.1 C 11.59 g/m*3 18.1 C 3.2 km/h
290 22-05-2020 00:05:00 17.9 C 11.45 g/m*3 17.9 C 3.2 km/h
291 22-05-2020 00:10:00 17.9 C 11.45 g/m*3 17.9 C 3.2 km/h
292 22-05-2020 00:15:00 17.8 C 11.38 g/m*3 17.8 C 0 km/h
293 22-05-2020 00:20:00 17.7 C 11.47 g/m*3 17.7 C 0 km/h
294 22-05-2020 00:25:00 17.6 C 11.4 g/m*3 17.6 C 1.6 km/h
295 22-05-2020 00:30:00 17.5 C 11.33 g/m*3 17.5 C 0 km/h
296 22-05-2020 00:35:00 17.4 C 11.26 g/m*3 17.4 C 1.6 km/h
297 22-05-2020 00:40:00 17.4 C 11.41 g/m*3 17.4 C 1.6 km/h
298 22-05-2020 00:45:00 17.3 C 11.34 g/m*3 17.3 C 0 km/h
299 22-05-2020 00:50:00 17.2 C 11.28 g/m*3 17.2 C 0 km/h
300 22-05-2020 00:55:00 16.9 C 11.08 g/m*3 16.9 C 0 km/h
Sensor: Nr:Datum:Temp:Abs-Feuchte:Windchill:Wind:
Aussen-T/F 301 22-05-2020 01:00:00 16.8 C 11.15 g/m*3 16.8 C 0 km/h
302 22-05-2020 01:05:00 16.7 C 11.08 g/m*3 16.7 C 0 km/h
303 22-05-2020 01:10:00 16.6 C 11.16 g/m*3 16.6 C 0 km/h
304 22-05-2020 01:15:00 16.4 C 11.03 g/m*3 16.4 C 0 km/h
305 22-05-2020 01:20:00 16.3 C 10.96 g/m*3 16.3 C 0 km/h
306 22-05-2020 01:25:00 16.3 C 11.1 g/m*3 16.3 C 0 km/h
307 22-05-2020 01:30:00 16.2 C 11.03 g/m*3 16.2 C 0 km/h
308 22-05-2020 01:35:00 16.1 C 10.97 g/m*3 16.1 C 0 km/h
309 22-05-2020 01:40:00 15.9 C 10.97 g/m*3 15.9 C 0 km/h
310 22-05-2020 01:45:00 15.9 C 10.97 g/m*3 15.9 C 0 km/h
311 22-05-2020 01:50:00 15.8 C 10.9 g/m*3 15.8 C 0 km/h
312 22-05-2020 01:55:00 15.7 C 10.97 g/m*3 15.7 C 0 km/h
313 22-05-2020 02:00:00 15.6 C 11.04 g/m*3 15.6 C 0 km/h
314 22-05-2020 02:05:00 15.6 C 11.04 g/m*3 15.6 C 0 km/h
315 22-05-2020 02:10:00 15.5 C 10.97 g/m*3 15.5 C 0 km/h
316 22-05-2020 02:15:00 15.4 C 10.9 g/m*3 15.4 C 0 km/h
317 22-05-2020 02:20:00 15.3 C 10.97 g/m*3 15.3 C 0 km/h
318 22-05-2020 02:25:00 15.3 C 10.97 g/m*3 15.3 C 0 km/h
319 22-05-2020 02:30:00 15.3 C 11.1 g/m*3 15.3 C 0 km/h
320 22-05-2020 02:35:00 15.2 C 11.03 g/m*3 15.2 C 0 km/h
321 22-05-2020 02:40:00 15.2 C 11.03 g/m*3 15.2 C 0 km/h
322 22-05-2020 02:45:00 15.1 C 10.97 g/m*3 15.1 C 0 km/h
323 22-05-2020 02:50:00 15.1 C 10.97 g/m*3 15.1 C 0 km/h
324 22-05-2020 02:55:00 15 C 10.9 g/m*3 15 C 0 km/h
325 22-05-2020 03:00:00 14.9 C 10.83 g/m*3 14.9 C 0 km/h
Sensor: Nr:Datum:Temp:Abs-Feuchte:Windchill:Wind:
Aussen-T/F 326 22-05-2020 03:05:00 14.9 C 10.96 g/m*3 14.9 C 0 km/h
327 22-05-2020 03:10:00 14.8 C 10.89 g/m*3 14.8 C 0 km/h
328 22-05-2020 03:15:00 14.8 C 10.89 g/m*3 14.8 C 0 km/h
329 22-05-2020 03:20:00 14.8 C 10.89 g/m*3 14.8 C 0 km/h
330 22-05-2020 03:25:00 14.7 C 10.83 g/m*3 14.7 C 0 km/h
331 22-05-2020 03:30:00 14.6 C 10.76 g/m*3 14.6 C 0 km/h
332 22-05-2020 03:35:00 14.5 C 10.7 g/m*3 14.5 C 0 km/h
333 22-05-2020 03:40:00 14.4 C 10.63 g/m*3 14.4 C 0 km/h
334 22-05-2020 03:45:00 14.4 C 10.63 g/m*3 14.4 C 0 km/h
335 22-05-2020 03:50:00 14.3 C 10.57 g/m*3 14.3 C 0 km/h
336 22-05-2020 03:55:00 14.2 C 10.5 g/m*3 14.2 C 0 km/h
337 22-05-2020 04:00:00 14.1 C 10.56 g/m*3 14.1 C 0 km/h
338 22-05-2020 04:05:00 13.9 C 10.43 g/m*3 13.9 C 0 km/h
339 22-05-2020 04:10:00 13.8 C 10.37 g/m*3 13.8 C 0 km/h
340 22-05-2020 04:15:00 13.7 C 10.42 g/m*3 13.7 C 0 km/h
341 22-05-2020 04:20:00 13.7 C 10.54 g/m*3 13.7 C 0 km/h
342 22-05-2020 04:25:00 13.6 C 10.47 g/m*3 13.6 C 0 km/h
343 22-05-2020 04:30:00 13.6 C 10.47 g/m*3 13.6 C 0 km/h
344 22-05-2020 04:35:00 13.4 C 10.35 g/m*3 13.4 C 0 km/h
345 22-05-2020 04:40:00 13.4 C 10.35 g/m*3 13.4 C 0 km/h
346 22-05-2020 04:45:00 13.3 C 10.28 g/m*3 13.3 C 0 km/h
347 22-05-2020 04:50:00 13.3 C 10.4 g/m*3 13.3 C 0 km/h
348 22-05-2020 04:55:00 13.2 C 10.33 g/m*3 13.2 C 0 km/h
349 22-05-2020 05:00:00 13.2 C 10.33 g/m*3 13.2 C 0 km/h
350 22-05-2020 05:05:00 13.2 C 10.33 g/m*3 13.2 C 0 km/h
Sensor: Nr:Datum:Temp:Abs-Feuchte:Windchill:Wind:
Aussen-T/F 351 22-05-2020 05:10:00 13.1 C 10.38 g/m*3 13.1 C 0 km/h
352 22-05-2020 05:15:00 13.1 C 10.38 g/m*3 13.1 C 0 km/h
353 22-05-2020 05:20:00 13 C 10.32 g/m*3 13 C 0 km/h
354 22-05-2020 05:25:00 13 C 10.32 g/m*3 13 C 0 km/h
355 22-05-2020 05:30:00 12.9 C 10.26 g/m*3 12.9 C 0 km/h
356 22-05-2020 05:35:00 12.8 C 10.19 g/m*3 12.8 C 0 km/h
357 22-05-2020 05:40:00 12.8 C 10.19 g/m*3 12.8 C 0 km/h
358 22-05-2020 05:45:00 12.8 C 10.3 g/m*3 12.8 C 0 km/h
359 22-05-2020 05:50:00 12.7 C 10.24 g/m*3 12.7 C 0 km/h
360 22-05-2020 05:55:00 12.8 C 10.3 g/m*3 12.8 C 0 km/h
361 22-05-2020 06:00:00 12.8 C 10.3 g/m*3 12.8 C 0 km/h
362 22-05-2020 06:05:00 12.8 C 10.3 g/m*3 12.8 C 0 km/h
363 22-05-2020 06:10:00 12.8 C 10.42 g/m*3 12.8 C 0 km/h
364 22-05-2020 06:15:00 12.9 C 10.48 g/m*3 12.9 C 0 km/h
365 22-05-2020 06:20:00 13.1 C 10.61 g/m*3 13.1 C 0 km/h
366 22-05-2020 06:25:00 13.1 C 10.61 g/m*3 13.1 C 0 km/h
367 22-05-2020 06:30:00 13.2 C 10.68 g/m*3 13.2 C 0 km/h
368 22-05-2020 06:35:00 13.3 C 10.74 g/m*3 13.3 C 0 km/h
369 22-05-2020 06:40:00 13.5 C 10.99 g/m*3 13.5 C 0 km/h
370 22-05-2020 06:45:00 13.7 C 11.13 g/m*3 13.7 C 0 km/h
371 22-05-2020 06:50:00 13.8 C 11.2 g/m*3 13.8 C 0 km/h
372 22-05-2020 06:55:00 14 C 11.34 g/m*3 14 C 0 km/h
373 22-05-2020 07:00:00 14.2 C 11.48 g/m*3 14.2 C 0 km/h
374 22-05-2020 07:05:00 14.3 C 11.55 g/m*3 14.3 C 0 km/h
375 22-05-2020 07:10:00 14.4 C 11.5 g/m*3 14.4 C 0 km/h
Sensor: Nr:Datum:Temp:Abs-Feuchte:Windchill:Wind:
Aussen-T/F 376 22-05-2020 07:15:00 14.6 C 11.64 g/m*3 14.6 C 0 km/h
377 22-05-2020 07:20:00 14.7 C 11.71 g/m*3 14.7 C 0 km/h
378 22-05-2020 07:25:00 14.9 C 11.85 g/m*3 14.9 C 0 km/h
379 22-05-2020 07:30:00 15 C 11.93 g/m*3 15 C 0 km/h
380 22-05-2020 07:35:00 15.2 C 11.94 g/m*3 15.2 C 0 km/h
381 22-05-2020 07:40:00 15.3 C 12.01 g/m*3 15.3 C 0 km/h
382 22-05-2020 07:45:00 15.4 C 11.96 g/m*3 15.4 C 0 km/h
383 22-05-2020 07:50:00 15.6 C 12.1 g/m*3 15.6 C 0 km/h
384 22-05-2020 07:55:00 15.8 C 12.11 g/m*3 15.8 C 0 km/h
385 22-05-2020 08:00:00 16 C 12.26 g/m*3 16 C 0 km/h
386 22-05-2020 08:05:00 16.2 C 12.27 g/m*3 16.2 C 1.6 km/h
387 22-05-2020 08:10:00 16.4 C 12.28 g/m*3 16.4 C 0 km/h
388 22-05-2020 08:15:00 16.7 C 12.22 g/m*3 16.7 C 4.8 km/h
389 22-05-2020 08:20:00 17.1 C 12.37 g/m*3 17.1 C 4.8 km/h
390 22-05-2020 08:25:00 17.4 C 12.45 g/m*3 17.4 C 3.2 km/h
391 22-05-2020 08:30:00 17.7 C 12.67 g/m*3 17.7 C 6.4 km/h
392 22-05-2020 08:35:00 18.1 C 12.52 g/m*3 18.1 C 6.4 km/h
393 22-05-2020 08:40:00 18.4 C 12.58 g/m*3 18.4 C 4.8 km/h
394 22-05-2020 08:45:00 18.7 C 12.65 g/m*3 18.7 C 6.4 km/h
395 22-05-2020 08:50:00 18.9 C 12.8 g/m*3 18.9 C 1.6 km/h
396 22-05-2020 08:55:00 19.1 C 12.79 g/m*3 19.1 C 6.4 km/h
397 22-05-2020 09:00:00 19.3 C 12.77 g/m*3 19.3 C 8.1 km/h
398 22-05-2020 09:05:00 19.3 C 12.77 g/m*3 19.3 C 8.1 km/h
399 22-05-2020 09:10:00 19.4 C 12.68 g/m*3 19.4 C 8.1 km/h
400 22-05-2020 09:15:00 19.6 C 12.83 g/m*3 19.6 C 6.4 km/h
Sensor: Nr:Datum:Temp:Abs-Feuchte:Windchill:Wind:
Aussen-T/F 401 22-05-2020 09:20:00 19.8 C 12.98 g/m*3 19.8 C 8.1 km/h
402 22-05-2020 09:25:00 19.9 C 12.89 g/m*3 19.9 C 6.4 km/h
403 22-05-2020 09:30:00 20.1 C 12.86 g/m*3 20.1 C 8.1 km/h
404 22-05-2020 09:35:00 20.1 C 12.86 g/m*3 20.1 C 6.4 km/h
405 22-05-2020 09:40:00 20.2 C 13.11 g/m*3 20.2 C 4.8 km/h
406 22-05-2020 09:45:00 20.3 C 13.19 g/m*3 20.3 C 3.2 km/h
407 22-05-2020 09:50:00 20.4 C 13.27 g/m*3 20.4 C 3.2 km/h
408 22-05-2020 09:55:00 20.6 C 13.24 g/m*3 20.6 C 3.2 km/h
409 22-05-2020 10:00:00 20.7 C 13.32 g/m*3 20.7 C 1.6 km/h
410 22-05-2020 10:05:00 20.9 C 13.48 g/m*3 20.9 C 1.6 km/h
411 22-05-2020 10:10:00 21.1 C 13.45 g/m*3 21.1 C 0 km/h
412 22-05-2020 10:15:00 21.3 C 13.61 g/m*3 21.3 C 0 km/h
413 22-05-2020 10:20:00 21.5 C 13.58 g/m*3 21.5 C 0 km/h
414 22-05-2020 10:25:00 21.7 C 13.73 g/m*3 21.7 C 0 km/h
415 22-05-2020 10:30:00 21.8 C 13.62 g/m*3 21.8 C 0 km/h
416 22-05-2020 10:35:00 21.9 C 13.7 g/m*3 21.9 C 0 km/h
417 22-05-2020 10:40:00 21.9 C 13.7 g/m*3 21.9 C 1.6 km/h
418 22-05-2020 10:45:00 22.1 C 13.86 g/m*3 22.1 C 1.6 km/h
419 22-05-2020 10:50:00 22.3 C 13.82 g/m*3 22.3 C 4.8 km/h
420 22-05-2020 10:55:00 22.6 C 14.06 g/m*3 22.6 C 1.6 km/h
421 22-05-2020 11:00:00 22.8 C 14.02 g/m*3 22.8 C 4.8 km/h
422 22-05-2020 11:05:00 23 C 14.18 g/m*3 23 C 3.2 km/h
423 22-05-2020 11:10:00 23.2 C 13.93 g/m*3 23.2 C 3.2 km/h
424 22-05-2020 11:15:00 23.4 C 13.88 g/m*3 23.4 C 6.4 km/h
425 22-05-2020 11:20:00 23.5 C 13.96 g/m*3 23.5 C 8.1 km/h
Sensor: Nr:Datum:Temp:Abs-Feuchte:Windchill:Wind:
Aussen-T/F 426 22-05-2020 11:25:00 23.7 C 14.33 g/m*3 23.7 C 8.1 km/h
427 22-05-2020 11:30:00 23.8 C 13.77 g/m*3 23.8 C 11.3 km/h
428 22-05-2020 11:35:00 23.9 C 13.63 g/m*3 23.9 C 9.7 km/h
429 22-05-2020 11:40:00 24 C 13.71 g/m*3 24 C 9.7 km/h
430 22-05-2020 11:45:00 24.1 C 13.78 g/m*3 24.1 C 3.2 km/h
431 22-05-2020 11:50:00 24.3 C 13.72 g/m*3 24.3 C 6.4 km/h
432 22-05-2020 11:55:00 24.4 C 13.58 g/m*3 24.4 C 8.1 km/h
433 22-05-2020 12:00:00 24.4 C 13.35 g/m*3 24.4 C 9.7 km/h
434 22-05-2020 12:05:00 24.4 C 13.35 g/m*3 24.4 C 9.7 km/h
435 22-05-2020 12:10:00 24.5 C 13.65 g/m*3 24.5 C 9.7 km/h
436 22-05-2020 12:15:00 24.4 C 13.35 g/m*3 24.4 C 16.1 km/h
437 22-05-2020 12:20:00 24.4 C 13.8 g/m*3 24.4 C 3.2 km/h
438 22-05-2020 12:25:00 24.5 C 13.43 g/m*3 24.5 C 8.1 km/h
439 22-05-2020 12:30:00 24.6 C 13.73 g/m*3 24.6 C 6.4 km/h
440 22-05-2020 12:35:00 24.5 C 13.65 g/m*3 24.5 C 6.4 km/h
441 22-05-2020 12:40:00 24.6 C 13.73 g/m*3 24.6 C 4.8 km/h
442 22-05-2020 12:45:00 24.6 C 13.73 g/m*3 24.6 C 6.4 km/h
443 22-05-2020 12:50:00 24.6 C 14.18 g/m*3 24.6 C 4.8 km/h
444 22-05-2020 12:55:00 24.7 C 13.81 g/m*3 24.7 C 6.4 km/h
445 22-05-2020 13:00:00 24.7 C 14.49 g/m*3 24.7 C 1.6 km/h
446 22-05-2020 13:05:00 24.7 C 14.26 g/m*3 24.7 C 4.8 km/h
447 22-05-2020 13:10:00 24.7 C 14.03 g/m*3 24.7 C 3.2 km/h
448 22-05-2020 13:15:00 24.8 C 14.11 g/m*3 24.8 C 3.2 km/h
449 22-05-2020 13:20:00 24.9 C 13.96 g/m*3 24.9 C 11.3 km/h
450 22-05-2020 13:25:00 24.9 C 13.73 g/m*3 24.9 C 8.1 km/h
Sensor: Nr:Datum:Temp:Abs-Feuchte:Windchill:Wind:
Aussen-T/F 451 22-05-2020 13:30:00 25.1 C 15.28 g/m*3 25.1 C 1.6 km/h
452 22-05-2020 13:35:00 25.3 C 13.81 g/m*3 25.3 C 8.1 km/h
453 22-05-2020 13:40:00 25.4 C 13.89 g/m*3 25.4 C 8.1 km/h
454 22-05-2020 13:45:00 25.6 C 14.76 g/m*3 25.6 C 4.8 km/h
455 22-05-2020 13:50:00 25.8 C 13.96 g/m*3 25.8 C 9.7 km/h
456 22-05-2020 13:55:00 26 C 13.88 g/m*3 26 C 8.1 km/h
457 22-05-2020 14:00:00 26.1 C 14.44 g/m*3 26.1 C 11.3 km/h
458 22-05-2020 14:05:00 26.2 C 14.77 g/m*3 26.2 C 8.1 km/h
459 22-05-2020 14:10:00 26.2 C 14.28 g/m*3 26.2 C 4.8 km/h
460 22-05-2020 14:15:00 26.2 C 14.52 g/m*3 26.2 C 4.8 km/h
461 22-05-2020 14:20:00 26.3 C 14.36 g/m*3 26.3 C 4.8 km/h
462 22-05-2020 14:25:00 26.3 C 14.61 g/m*3 26.3 C 6.4 km/h
463 22-05-2020 14:30:00 26.4 C 14.19 g/m*3 26.4 C 6.4 km/h
464 22-05-2020 14:35:00 26.3 C 14.11 g/m*3 26.3 C 11.3 km/h
465 22-05-2020 14:40:00 26.2 C 14.03 g/m*3 26.2 C 11.3 km/h
466 22-05-2020 14:45:00 26.2 C 13.79 g/m*3 26.2 C 9.7 km/h
467 22-05-2020 14:50:00 26.3 C 13.86 g/m*3 26.3 C 4.8 km/h
468 22-05-2020 14:55:00 26.4 C 13.69 g/m*3 26.4 C 12.9 km/h
469 22-05-2020 15:00:00 26.3 C 13.62 g/m*3 26.3 C 11.3 km/h
470 22-05-2020 15:05:00 26.3 C 13.37 g/m*3 26.3 C 14.5 km/h
471 22-05-2020 15:10:00 26.5 C 13.52 g/m*3 26.5 C 9.7 km/h
472 22-05-2020 15:15:00 26.6 C 13.59 g/m*3 26.6 C 14.5 km/h
473 22-05-2020 15:20:00 26.8 C 13.74 g/m*3 26.8 C 9.7 km/h
474 22-05-2020 15:25:00 26.8 C 13.49 g/m*3 26.8 C 16.1 km/h
475 22-05-2020 15:30:00 26.6 C 13.34 g/m*3 26.6 C 12.9 km/h
Sensor: Nr:Datum:Temp:Abs-Feuchte:Windchill:Wind:
Aussen-T/F 476 22-05-2020 15:35:00 26.4 C 13.44 g/m*3 26.4 C 8.1 km/h
477 22-05-2020 15:40:00 26.2 C 13.54 g/m*3 26.2 C 14.5 km/h
478 22-05-2020 15:45:00 26.1 C 13.46 g/m*3 26.1 C 11.3 km/h
479 22-05-2020 15:50:00 25.9 C 13.32 g/m*3 25.9 C 9.7 km/h
480 22-05-2020 15:55:00 25.9 C 13.56 g/m*3 25.9 C 11.3 km/h
481 22-05-2020 16:00:00 25.9 C 13.56 g/m*3 25.9 C 9.7 km/h
482 22-05-2020 16:05:00 25.9 C 13.8 g/m*3 25.9 C 12.9 km/h
483 22-05-2020 16:10:00 25.9 C 13.32 g/m*3 25.9 C 12.9 km/h
484 22-05-2020 16:15:00 25.9 C 13.32 g/m*3 25.9 C 11.3 km/h
485 22-05-2020 16:20:00 25.9 C 13.32 g/m*3 25.9 C 17.7 km/h
486 22-05-2020 16:25:00 26.1 C 13.46 g/m*3 26.1 C 12.9 km/h
487 22-05-2020 16:30:00 26.2 C 13.79 g/m*3 26.2 C 12.9 km/h
488 22-05-2020 16:35:00 26.2 C 13.29 g/m*3 26.2 C 8.1 km/h
489 22-05-2020 16:40:00 26.2 C 13.79 g/m*3 26.2 C 12.9 km/h
490 22-05-2020 16:45:00 26.3 C 13.62 g/m*3 26.3 C 12.9 km/h
491 22-05-2020 16:50:00 26.3 C 13.86 g/m*3 26.3 C 12.9 km/h
492 22-05-2020 16:55:00 26.2 C 13.54 g/m*3 26.2 C 9.7 km/h
493 22-05-2020 17:00:00 26.2 C 13.79 g/m*3 26.2 C 12.9 km/h
494 22-05-2020 17:05:00 26.1 C 13.46 g/m*3 26.1 C 9.7 km/h
495 22-05-2020 17:10:00 26.1 C 13.46 g/m*3 26.1 C 11.3 km/h
496 22-05-2020 17:15:00 26.1 C 13.71 g/m*3 26.1 C 6.4 km/h
497 22-05-2020 17:20:00 26.2 C 13.79 g/m*3 26.2 C 6.4 km/h
498 22-05-2020 17:25:00 26.3 C 14.11 g/m*3 26.3 C 6.4 km/h
499 22-05-2020 17:30:00 26.4 C 14.44 g/m*3 26.4 C 4.8 km/h
500 22-05-2020 17:35:00 26.4 C 13.69 g/m*3 26.4 C 8.1 km/h
Sensor: Nr:Datum:Temp:Abs-Feuchte:Windchill:Wind:
Aussen-T/F 501 22-05-2020 17:40:00 26.4 C 14.19 g/m*3 26.4 C 3.2 km/h
502 22-05-2020 17:45:00 26.3 C 14.36 g/m*3 26.3 C 6.4 km/h
503 22-05-2020 17:50:00 26.2 C 14.03 g/m*3 26.2 C 4.8 km/h
504 22-05-2020 17:55:00 26.1 C 13.71 g/m*3 26.1 C 8.1 km/h
505 22-05-2020 18:00:00 25.9 C 13.8 g/m*3 25.9 C 9.7 km/h
506 22-05-2020 18:05:00 25.9 C 14.04 g/m*3 25.9 C 8.1 km/h
507 22-05-2020 18:10:00 25.8 C 14.2 g/m*3 25.8 C 9.7 km/h
508 22-05-2020 18:15:00 25.7 C 13.65 g/m*3 25.7 C 11.3 km/h
509 22-05-2020 18:20:00 25.6 C 14.52 g/m*3 25.6 C 11.3 km/h
510 22-05-2020 18:25:00 25.3 C 14.51 g/m*3 25.3 C 12.9 km/h
511 22-05-2020 18:30:00 25 C 14.73 g/m*3 25 C 4.8 km/h
512 22-05-2020 18:35:00 24.8 C 14.8 g/m*3 24.8 C 8.1 km/h
513 22-05-2020 18:40:00 24.7 C 14.94 g/m*3 24.7 C 3.2 km/h
514 22-05-2020 18:45:00 24.4 C 14.91 g/m*3 24.4 C 4.8 km/h
515 22-05-2020 18:50:00 24.2 C 14.74 g/m*3 24.2 C 3.2 km/h
516 22-05-2020 18:55:00 24.1 C 14.66 g/m*3 24.1 C 6.4 km/h
517 22-05-2020 19:00:00 24 C 14.36 g/m*3 24 C 9.7 km/h
518 22-05-2020 19:05:00 24 C 14.14 g/m*3 24 C 4.8 km/h
519 22-05-2020 19:10:00 24.1 C 14 g/m*3 24.1 C 8.1 km/h
520 22-05-2020 19:15:00 24.4 C 13.8 g/m*3 24.4 C 12.9 km/h
521 22-05-2020 19:20:00 24.6 C 14.18 g/m*3 24.6 C 6.4 km/h
522 22-05-2020 19:25:00 24.7 C 14.26 g/m*3 24.7 C 4.8 km/h
523 22-05-2020 19:30:00 24.7 C 14.49 g/m*3 24.7 C 0 km/h
524 22-05-2020 19:35:00 24.6 C 14.18 g/m*3 24.6 C 4.8 km/h
525 22-05-2020 19:40:00 24.4 C 14.47 g/m*3 24.4 C 11.3 km/h
Sensor: Nr:Datum:Temp:Abs-Feuchte:Windchill:Wind:
Aussen-T/F 526 22-05-2020 19:45:00 24.2 C 14.08 g/m*3 24.2 C 11.3 km/h
527 22-05-2020 19:50:00 23.9 C 14.06 g/m*3 23.9 C 8.1 km/h
528 22-05-2020 19:55:00 23.7 C 13.9 g/m*3 23.7 C 9.7 km/h
529 22-05-2020 20:00:00 23.5 C 13.96 g/m*3 23.5 C 9.7 km/h
530 22-05-2020 20:05:00 23.2 C 14.14 g/m*3 23.2 C 8.1 km/h
531 22-05-2020 20:10:00 22.7 C 14.14 g/m*3 22.7 C 12.9 km/h
532 22-05-2020 20:15:00 22.2 C 13.94 g/m*3 22.2 C 22.5 km/h
533 22-05-2020 20:20:00 21.7 C 13.93 g/m*3 21.7 C 16.1 km/h
534 22-05-2020 20:25:00 21.2 C 13.71 g/m*3 21.2 C 14.5 km/h
535 22-05-2020 20:30:00 20.8 C 13.76 g/m*3 20.8 C 11.3 km/h
536 22-05-2020 20:35:00 20.5 C 13.7 g/m*3 20.5 C 12.9 km/h
537 22-05-2020 20:40:00 20.2 C 13.81 g/m*3 20.2 C 6.4 km/h
538 22-05-2020 20:45:00 19.9 C 13.57 g/m*3 19.9 C 12.9 km/h
539 22-05-2020 20:50:00 19.7 C 13.41 g/m*3 19.7 C 11.3 km/h
540 22-05-2020 20:55:00 19.5 C 13.59 g/m*3 19.5 C 19.3 km/h
541 22-05-2020 21:00:00 19.3 C 13.6 g/m*3 19.3 C 8.1 km/h
542 22-05-2020 21:05:00 19 C 13.53 g/m*3 19 C 9.7 km/h
543 22-05-2020 21:10:00 18.8 C 13.53 g/m*3 18.8 C 6.4 km/h
544 22-05-2020 21:15:00 18.6 C 13.69 g/m*3 18.6 C 1.6 km/h
545 22-05-2020 21:20:00 18.4 C 13.53 g/m*3 18.4 C 3.2 km/h
546 22-05-2020 21:25:00 18.3 C 13.6 g/m*3 18.3 C 4.8 km/h
547 22-05-2020 21:30:00 18.2 C 13.52 g/m*3 18.2 C 3.2 km/h
548 22-05-2020 21:35:00 18.1 C 13.6 g/m*3 18.1 C 0 km/h
549 22-05-2020 21:40:00 18 C 13.67 g/m*3 18 C 0 km/h
550 22-05-2020 21:45:00 17.9 C 13.59 g/m*3 17.9 C 0 km/h
Sensor: Nr:Datum:Temp:Abs-Feuchte:Windchill:Wind:
Aussen-T/F 551 22-05-2020 21:50:00 17.8 C 13.66 g/m*3 17.8 C 0 km/h
552 22-05-2020 21:55:00 17.8 C 13.66 g/m*3 17.8 C 0 km/h
553 22-05-2020 22:00:00 17.7 C 13.58 g/m*3 17.7 C 1.6 km/h
554 22-05-2020 22:05:00 17.7 C 13.73 g/m*3 17.7 C 0 km/h
555 22-05-2020 22:10:00 17.6 C 13.65 g/m*3 17.6 C 0 km/h
556 22-05-2020 22:15:00 17.6 C 13.8 g/m*3 17.6 C 0 km/h
557 22-05-2020 22:20:00 17.6 C 13.8 g/m*3 17.6 C 0 km/h
558 22-05-2020 22:25:00 17.6 C 13.8 g/m*3 17.6 C 3.2 km/h
559 22-05-2020 22:30:00 17.5 C 13.72 g/m*3 17.5 C 4.8 km/h
560 22-05-2020 22:35:00 17.4 C 13.78 g/m*3 17.4 C 4.8 km/h
561 22-05-2020 22:40:00 17.4 C 13.78 g/m*3 17.4 C 3.2 km/h
562 22-05-2020 22:45:00 17.3 C 13.7 g/m*3 17.3 C 0 km/h
563 22-05-2020 22:50:00 17.3 C 13.7 g/m*3 17.3 C 1.6 km/h
564 22-05-2020 22:55:00 17.3 C 13.7 g/m*3 17.3 C 3.2 km/h
565 22-05-2020 23:00:00 17.3 C 13.7 g/m*3 17.3 C 6.4 km/h
566 22-05-2020 23:05:00 17.2 C 13.62 g/m*3 17.2 C 4.8 km/h
567 22-05-2020 23:10:00 17.2 C 13.62 g/m*3 17.2 C 3.2 km/h
568 22-05-2020 23:15:00 17.2 C 13.62 g/m*3 17.2 C 1.6 km/h
569 22-05-2020 23:20:00 17.2 C 13.77 g/m*3 17.2 C 1.6 km/h
570 22-05-2020 23:25:00 17.1 C 13.68 g/m*3 17.1 C 3.2 km/h
571 22-05-2020 23:30:00 17.1 C 13.68 g/m*3 17.1 C 0 km/h
572 22-05-2020 23:35:00 17.1 C 13.68 g/m*3 17.1 C 0 km/h
573 22-05-2020 23:40:00 17.1 C 13.68 g/m*3 17.1 C 0 km/h
574 22-05-2020 23:45:00 16.9 C 13.52 g/m*3 16.9 C 4.8 km/h
575 22-05-2020 23:50:00 16.9 C 13.52 g/m*3 16.9 C 3.2 km/h
Sensor: Nr:Datum:Temp:Abs-Feuchte:Windchill:Wind:
Aussen-T/F 576 22-05-2020 23:55:00 16.8 C 13.44 g/m*3 16.8 C 0 km/h
577 23-05-2020 00:00:00 16.8 C 13.44 g/m*3 16.8 C 1.6 km/h
578 23-05-2020 00:05:00 16.8 C 13.44 g/m*3 16.8 C 3.2 km/h
579 23-05-2020 00:10:00 16.8 C 13.44 g/m*3 16.8 C 3.2 km/h
580 23-05-2020 00:15:00 16.8 C 13.58 g/m*3 16.8 C 3.2 km/h
581 23-05-2020 00:20:00 16.7 C 13.5 g/m*3 16.7 C 1.6 km/h
582 23-05-2020 00:25:00 16.7 C 13.5 g/m*3 16.7 C 0 km/h
583 23-05-2020 00:30:00 16.7 C 13.36 g/m*3 16.7 C 3.2 km/h
584 23-05-2020 00:35:00 16.7 C 13.5 g/m*3 16.7 C 1.6 km/h
585 23-05-2020 00:40:00 16.6 C 13.42 g/m*3 16.6 C 3.2 km/h
586 23-05-2020 00:45:00 16.6 C 13.42 g/m*3 16.6 C 0 km/h
587 23-05-2020 00:50:00 16.6 C 13.42 g/m*3 16.6 C 0 km/h
588 23-05-2020 00:55:00 16.6 C 13.42 g/m*3 16.6 C 1.6 km/h
589 23-05-2020 01:00:00 16.6 C 13.42 g/m*3 16.6 C 0 km/h
590 23-05-2020 01:05:00 16.6 C 13.42 g/m*3 16.6 C 1.6 km/h
591 23-05-2020 01:10:00 16.5 C 13.34 g/m*3 16.5 C 0 km/h
592 23-05-2020 01:15:00 16.6 C 13.42 g/m*3 16.6 C 0 km/h
593 23-05-2020 01:20:00 16.6 C 13.56 g/m*3 16.6 C 0 km/h
594 23-05-2020 01:25:00 16.6 C 13.42 g/m*3 16.6 C 3.2 km/h
595 23-05-2020 01:30:00 16.5 C 13.34 g/m*3 16.5 C 0 km/h
596 23-05-2020 01:35:00 16.3 C 13.18 g/m*3 16.3 C 1.6 km/h
597 23-05-2020 01:40:00 15.9 C 12.73 g/m*3 15.9 C 3.2 km/h
598 23-05-2020 01:45:00 15.4 C 12.09 g/m*3 15.4 C 6.4 km/h
599 23-05-2020 01:50:00 15.1 C 11.87 g/m*3 15.1 C 3.2 km/h
600 23-05-2020 01:55:00 14.8 C 11.78 g/m*3 14.8 C 3.2 km/h
Sensor: Nr:Datum:Temp:Abs-Feuchte:Windchill:Wind:
Aussen-T/F 601 23-05-2020 02:00:00 14.7 C 11.71 g/m*3 14.7 C 3.2 km/h
602 23-05-2020 02:05:00 14.5 C 11.57 g/m*3 14.5 C 4.8 km/h
603 23-05-2020 02:10:00 14.3 C 11.43 g/m*3 14.3 C 8.1 km/h
604 23-05-2020 02:15:00 14.3 C 11.55 g/m*3 14.3 C 6.4 km/h
605 23-05-2020 02:20:00 14.2 C 11.48 g/m*3 14.2 C 6.4 km/h
606 23-05-2020 02:25:00 14.2 C 11.48 g/m*3 14.2 C 6.4 km/h
607 23-05-2020 02:30:00 14.2 C 11.48 g/m*3 14.2 C 6.4 km/h
608 23-05-2020 02:35:00 14.1 C 11.41 g/m*3 14.1 C 3.2 km/h
609 23-05-2020 02:40:00 14.1 C 11.41 g/m*3 14.1 C 1.6 km/h
610 23-05-2020 02:45:00 14 C 11.34 g/m*3 14 C 0 km/h
611 23-05-2020 02:50:00 13.9 C 11.39 g/m*3 13.9 C 4.8 km/h
612 23-05-2020 02:55:00 13.9 C 11.39 g/m*3 13.9 C 6.4 km/h
613 23-05-2020 03:00:00 13.9 C 11.39 g/m*3 13.9 C 4.8 km/h
614 23-05-2020 03:05:00 13.8 C 11.32 g/m*3 13.8 C 3.2 km/h
615 23-05-2020 03:10:00 13.8 C 11.32 g/m*3 13.8 C 4.8 km/h
616 23-05-2020 03:15:00 13.7 C 11.25 g/m*3 13.7 C 6.4 km/h
617 23-05-2020 03:20:00 13.7 C 11.25 g/m*3 13.7 C 8.1 km/h
618 23-05-2020 03:25:00 13.6 C 11.18 g/m*3 13.6 C 8.1 km/h
619 23-05-2020 03:30:00 13.6 C 11.18 g/m*3 13.6 C 0 km/h
620 23-05-2020 03:35:00 13.5 C 11.11 g/m*3 13.5 C 0 km/h
621 23-05-2020 03:40:00 13.5 C 11.11 g/m*3 13.5 C 4.8 km/h
622 23-05-2020 03:45:00 13.6 C 11.18 g/m*3 13.6 C 6.4 km/h
623 23-05-2020 03:50:00 13.6 C 11.18 g/m*3 13.6 C 4.8 km/h
624 23-05-2020 03:55:00 13.6 C 11.18 g/m*3 13.6 C 4.8 km/h
625 23-05-2020 04:00:00 13.6 C 11.3 g/m*3 13.6 C 4.8 km/h
Sensor: Nr:Datum:Temp:Abs-Feuchte:Windchill:Wind:
Aussen-T/F 626 23-05-2020 04:05:00 13.7 C 11.37 g/m*3 13.7 C 1.6 km/h
627 23-05-2020 04:10:00 13.7 C 11.37 g/m*3 13.7 C 3.2 km/h
628 23-05-2020 04:15:00 13.8 C 11.44 g/m*3 13.8 C 4.8 km/h
629 23-05-2020 04:20:00 13.8 C 11.44 g/m*3 13.8 C 1.6 km/h
630 23-05-2020 04:25:00 13.8 C 11.44 g/m*3 13.8 C 3.2 km/h
631 23-05-2020 04:30:00 13.8 C 11.44 g/m*3 13.8 C 4.8 km/h
632 23-05-2020 04:35:00 13.8 C 11.44 g/m*3 13.8 C 1.6 km/h
633 23-05-2020 04:40:00 13.8 C 11.44 g/m*3 13.8 C 4.8 km/h
634 23-05-2020 04:45:00 13.7 C 11.37 g/m*3 13.7 C 6.4 km/h
635 23-05-2020 04:50:00 13.4 C 11.04 g/m*3 13.4 C 11.3 km/h
636 23-05-2020 04:55:00 13.1 C 10.73 g/m*3 13.1 C 11.3 km/h
637 23-05-2020 05:00:00 12.7 C 10.46 g/m*3 12.7 C 12.9 km/h
638 23-05-2020 05:05:00 12.5 C 10.33 g/m*3 12.5 C 9.7 km/h
639 23-05-2020 05:10:00 12.3 C 10.21 g/m*3 12.3 C 8.1 km/h
640 23-05-2020 05:15:00 12.2 C 10.25 g/m*3 12.2 C 8.1 km/h
641 23-05-2020 05:20:00 12.1 C 10.19 g/m*3 12.1 C 8.1 km/h
642 23-05-2020 05:25:00 12 C 10.12 g/m*3 12 C 8.1 km/h
643 23-05-2020 05:30:00 11.9 C 10.06 g/m*3 11.9 C 9.7 km/h
644 23-05-2020 05:35:00 11.8 C 10 g/m*3 11.8 C 8.1 km/h
645 23-05-2020 05:40:00 11.8 C 10 g/m*3 11.8 C 8.1 km/h
646 23-05-2020 05:45:00 11.7 C 9.94 g/m*3 11.7 C 9.7 km/h
647 23-05-2020 05:50:00 11.6 C 9.87 g/m*3 11.6 C 6.4 km/h
648 23-05-2020 05:55:00 11.6 C 9.87 g/m*3 11.6 C 8.1 km/h
649 23-05-2020 06:00:00 11.4 C 9.75 g/m*3 11.4 C 8.1 km/h
650 23-05-2020 06:05:00 11.4 C 9.75 g/m*3 11.4 C 8.1 km/h
Sensor: Nr:Datum:Temp:Abs-Feuchte:Windchill:Wind:
Aussen-T/F 651 23-05-2020 06:10:00 11.4 C 9.75 g/m*3 11.4 C 8.1 km/h
652 23-05-2020 06:15:00 11.5 C 9.81 g/m*3 11.5 C 8.1 km/h
653 23-05-2020 06:20:00 11.6 C 9.98 g/m*3 11.6 C 6.4 km/h
654 23-05-2020 06:25:00 11.6 C 9.98 g/m*3 11.6 C 6.4 km/h
655 23-05-2020 06:30:00 11.6 C 9.98 g/m*3 11.6 C 4.8 km/h
656 23-05-2020 06:35:00 11.6 C 9.98 g/m*3 11.6 C 4.8 km/h
657 23-05-2020 06:40:00 11.7 C 10.04 g/m*3 11.7 C 4.8 km/h
658 23-05-2020 06:45:00 11.7 C 10.04 g/m*3 11.7 C 0 km/h
659 23-05-2020 06:50:00 11.8 C 10.1 g/m*3 11.8 C 1.6 km/h
660 23-05-2020 06:55:00 11.9 C 10.17 g/m*3 11.9 C 1.6 km/h
661 23-05-2020 07:00:00 12 C 10.23 g/m*3 12 C 3.2 km/h
662 23-05-2020 07:05:00 12 C 10.23 g/m*3 12 C 1.6 km/h
663 23-05-2020 07:10:00 12 C 10.23 g/m*3 12 C 4.8 km/h
664 23-05-2020 07:15:00 12.1 C 10.29 g/m*3 12.1 C 4.8 km/h
665 23-05-2020 07:20:00 12.2 C 10.36 g/m*3 12.2 C 3.2 km/h
666 23-05-2020 07:25:00 12.2 C 10.36 g/m*3 12.2 C 3.2 km/h
667 23-05-2020 07:30:00 12.3 C 10.42 g/m*3 12.3 C 4.8 km/h
668 23-05-2020 07:35:00 12.4 C 10.49 g/m*3 12.4 C 3.2 km/h
669 23-05-2020 07:40:00 12.6 C 10.62 g/m*3 12.6 C 1.6 km/h
670 23-05-2020 07:45:00 12.7 C 10.8 g/m*3 12.7 C 0 km/h
671 23-05-2020 07:50:00 12.8 C 10.87 g/m*3 12.8 C 0 km/h
672 23-05-2020 07:55:00 12.9 C 10.93 g/m*3 12.9 C 0 km/h
673 23-05-2020 08:00:00 12.9 C 10.82 g/m*3 12.9 C 3.2 km/h
674 23-05-2020 08:05:00 12.9 C 10.82 g/m*3 12.9 C 1.6 km/h
675 23-05-2020 08:10:00 12.9 C 10.82 g/m*3 12.9 C 1.6 km/h
Sensor: Nr:Datum:Temp:Abs-Feuchte:Windchill:Wind:
Aussen-T/F 676 23-05-2020 08:15:00 12.9 C 10.82 g/m*3 12.9 C 1.6 km/h
677 23-05-2020 08:20:00 12.9 C 10.82 g/m*3 12.9 C 0 km/h
678 23-05-2020 08:25:00 13.1 C 10.95 g/m*3 13.1 C 0 km/h
679 23-05-2020 08:30:00 13.2 C 11.14 g/m*3 13.2 C 1.6 km/h
680 23-05-2020 08:35:00 13.2 C 11.02 g/m*3 13.2 C 3.2 km/h
681 23-05-2020 08:40:00 13.2 C 11.02 g/m*3 13.2 C 1.6 km/h
682 23-05-2020 08:45:00 13.2 C 11.02 g/m*3 13.2 C 1.6 km/h
683 23-05-2020 08:50:00 13.2 C 11.02 g/m*3 13.2 C 0 km/h
684 23-05-2020 08:55:00 13.2 C 11.02 g/m*3 13.2 C 3.2 km/h
685 23-05-2020 09:00:00 13.3 C 11.09 g/m*3 13.3 C 3.2 km/h
686 23-05-2020 09:05:00 13.2 C 10.91 g/m*3 13.2 C 6.4 km/h
687 23-05-2020 09:10:00 13.1 C 10.84 g/m*3 13.1 C 1.6 km/h
688 23-05-2020 09:15:00 13.1 C 10.84 g/m*3 13.1 C 3.2 km/h
689 23-05-2020 09:20:00 12.9 C 10.71 g/m*3 12.9 C 4.8 km/h
690 23-05-2020 09:25:00 12.8 C 10.64 g/m*3 12.8 C 1.6 km/h
691 23-05-2020 09:30:00 12.8 C 10.64 g/m*3 12.8 C 3.2 km/h
692 23-05-2020 09:35:00 12.8 C 10.64 g/m*3 12.8 C 1.6 km/h
693 23-05-2020 09:40:00 12.9 C 10.71 g/m*3 12.9 C 11.3 km/h
694 23-05-2020 09:45:00 12.9 C 10.71 g/m*3 12.9 C 3.2 km/h
695 23-05-2020 09:50:00 13 C 10.77 g/m*3 13 C 4.8 km/h
696 23-05-2020 09:55:00 12.9 C 10.59 g/m*3 12.9 C 1.6 km/h
697 23-05-2020 10:00:00 12.9 C 10.59 g/m*3 12.9 C 4.8 km/h
698 23-05-2020 10:05:00 12.9 C 10.59 g/m*3 12.9 C 4.8 km/h
699 23-05-2020 10:10:00 12.9 C 10.71 g/m*3 12.9 C 3.2 km/h
700 23-05-2020 10:15:00 13 C 10.77 g/m*3 13 C 1.6 km/h
Sensor: Nr:Datum:Temp:Abs-Feuchte:Windchill:Wind:
Aussen-T/F 701 23-05-2020 10:20:00 13.1 C 10.84 g/m*3 13.1 C 1.6 km/h
702 23-05-2020 10:25:00 13 C 10.66 g/m*3 13 C 4.8 km/h
703 23-05-2020 10:30:00 12.7 C 10.35 g/m*3 12.7 C 9.7 km/h
704 23-05-2020 10:35:00 12.3 C 9.77 g/m*3 12.3 C 6.4 km/h
705 23-05-2020 10:40:00 12.1 C 9.54 g/m*3 12.1 C 20.9 km/h
706 23-05-2020 10:45:00 11.8 C 8.84 g/m*3 11.8 C 20.9 km/h
707 23-05-2020 10:50:00 11.7 C 8.89 g/m*3 11.7 C 16.1 km/h
708 23-05-2020 10:55:00 11.6 C 9.15 g/m*3 11.6 C 3.2 km/h
709 23-05-2020 11:00:00 11.6 C 9.35 g/m*3 11.6 C 9.7 km/h
710 23-05-2020 11:05:00 11.6 C 9.46 g/m*3 11.6 C 8.1 km/h
711 23-05-2020 11:10:00 11.5 C 9.4 g/m*3 11.5 C 11.3 km/h
712 23-05-2020 11:15:00 11.5 C 9.5 g/m*3 11.5 C 9.7 km/h
713 23-05-2020 11:20:00 11.6 C 9.56 g/m*3 11.6 C 8.1 km/h
714 23-05-2020 11:25:00 11.8 C 9.79 g/m*3 11.8 C 6.4 km/h
715 23-05-2020 11:30:00 11.9 C 9.85 g/m*3 11.9 C 6.4 km/h
716 23-05-2020 11:35:00 12.1 C 9.87 g/m*3 12.1 C 11.3 km/h
717 23-05-2020 11:40:00 12.1 C 9.97 g/m*3 12.1 C 6.4 km/h
718 23-05-2020 11:45:00 12.3 C 10.1 g/m*3 12.3 C 4.8 km/h
719 23-05-2020 11:50:00 12.4 C 10.16 g/m*3 12.4 C 4.8 km/h
720 23-05-2020 11:55:00 12.3 C 9.88 g/m*3 12.3 C 3.2 km/h
721 23-05-2020 12:00:00 12.4 C 9.94 g/m*3 12.4 C 3.2 km/h
722 23-05-2020 12:05:00 12.4 C 9.83 g/m*3 12.4 C 6.4 km/h
723 23-05-2020 12:10:00 12.3 C 9.66 g/m*3 12.3 C 8.1 km/h
724 23-05-2020 12:15:00 12.3 C 9.77 g/m*3 12.3 C 8.1 km/h
725 23-05-2020 12:20:00 12.3 C 9.77 g/m*3 12.3 C 6.4 km/h
Sensor: Nr:Datum:Temp:Abs-Feuchte:Windchill:Wind:
Aussen-T/F 726 23-05-2020 12:25:00 12.3 C 9.66 g/m*3 12.3 C 4.8 km/h
727 23-05-2020 12:30:00 12.3 C 9.66 g/m*3 12.3 C 9.7 km/h
728 23-05-2020 12:35:00 12.3 C 9.56 g/m*3 12.3 C 11.3 km/h
729 23-05-2020 12:40:00 12.3 C 9.56 g/m*3 12.3 C 11.3 km/h
730 23-05-2020 12:45:00 12.3 C 9.66 g/m*3 12.3 C 8.1 km/h
731 23-05-2020 12:50:00 12.3 C 9.77 g/m*3 12.3 C 6.4 km/h
732 23-05-2020 12:55:00 12.4 C 9.83 g/m*3 12.4 C 6.4 km/h
733 23-05-2020 13:00:00 12.4 C 9.83 g/m*3 12.4 C 6.4 km/h
734 23-05-2020 13:05:00 12.5 C 9.89 g/m*3 12.5 C 3.2 km/h
735 23-05-2020 13:10:00 12.6 C 9.85 g/m*3 12.6 C 9.7 km/h
736 23-05-2020 13:15:00 12.7 C 9.91 g/m*3 12.7 C 9.7 km/h
737 23-05-2020 13:20:00 12.8 C 9.86 g/m*3 12.8 C 12.9 km/h
738 23-05-2020 13:25:00 12.9 C 9.81 g/m*3 12.9 C 8.1 km/h
739 23-05-2020 13:30:00 13 C 9.87 g/m*3 13 C 8.1 km/h
740 23-05-2020 13:35:00 12.9 C 9.58 g/m*3 12.9 C 14.5 km/h
741 23-05-2020 13:40:00 13.1 C 9.81 g/m*3 13.1 C 6.4 km/h
742 23-05-2020 13:45:00 13.3 C 10.05 g/m*3 13.3 C 4.8 km/h
743 23-05-2020 13:50:00 13.4 C 10.11 g/m*3 13.4 C 8.1 km/h
744 23-05-2020 13:55:00 13.4 C 10 g/m*3 13.4 C 11.3 km/h
745 23-05-2020 14:00:00 13.3 C 9.7 g/m*3 13.3 C 11.3 km/h
746 23-05-2020 14:05:00 13.3 C 9.82 g/m*3 13.3 C 9.7 km/h
747 23-05-2020 14:10:00 13.3 C 9.7 g/m*3 13.3 C 12.9 km/h
748 23-05-2020 14:15:00 13.3 C 9.82 g/m*3 13.3 C 8.1 km/h
749 23-05-2020 14:20:00 13.4 C 9.65 g/m*3 13.4 C 12.9 km/h
750 23-05-2020 14:25:00 13.5 C 9.83 g/m*3 13.5 C 12.9 km/h
Sensor: Nr:Datum:Temp:Abs-Feuchte:Windchill:Wind:
Aussen-T/F 751 23-05-2020 14:30:00 13.7 C 10.07 g/m*3 13.7 C 6.4 km/h
752 23-05-2020 14:35:00 14 C 10.13 g/m*3 14 C 11.3 km/h
753 23-05-2020 14:40:00 14.1 C 9.95 g/m*3 14.1 C 12.9 km/h
754 23-05-2020 14:45:00 14.2 C 10.01 g/m*3 14.2 C 12.9 km/h
755 23-05-2020 14:50:00 14.2 C 10.01 g/m*3 14.2 C 17.7 km/h
756 23-05-2020 14:55:00 14.3 C 10.07 g/m*3 14.3 C 12.9 km/h
757 23-05-2020 15:00:00 14.4 C 10.14 g/m*3 14.4 C 11.3 km/h
758 23-05-2020 15:05:00 14.6 C 10.14 g/m*3 14.6 C 11.3 km/h
759 23-05-2020 15:10:00 14.7 C 10.07 g/m*3 14.7 C 14.5 km/h
760 23-05-2020 15:15:00 14.7 C 9.95 g/m*3 14.7 C 14.5 km/h
761 23-05-2020 15:20:00 14.9 C 10.07 g/m*3 14.9 C 20.9 km/h
762 23-05-2020 15:25:00 15 C 10 g/m*3 15 C 12.9 km/h
763 23-05-2020 15:30:00 15 C 10 g/m*3 15 C 17.7 km/h
764 23-05-2020 15:35:00 15 C 10.13 g/m*3 15 C 12.9 km/h
765 23-05-2020 15:40:00 15.1 C 9.93 g/m*3 15.1 C 12.9 km/h
766 23-05-2020 15:45:00 15.1 C 9.8 g/m*3 15.1 C 14.5 km/h
767 23-05-2020 15:50:00 15.3 C 10.06 g/m*3 15.3 C 12.9 km/h
768 23-05-2020 15:55:00 15.3 C 9.92 g/m*3 15.3 C 14.5 km/h
769 23-05-2020 16:00:00 15.4 C 9.85 g/m*3 15.4 C 11.3 km/h
770 23-05-2020 16:05:00 15.7 C 10.03 g/m*3 15.7 C 11.3 km/h
771 23-05-2020 16:10:00 15.8 C 9.96 g/m*3 15.8 C 14.5 km/h
772 23-05-2020 16:15:00 15.8 C 9.96 g/m*3 15.8 C 9.7 km/h
773 23-05-2020 16:20:00 15.8 C 9.69 g/m*3 15.8 C 17.7 km/h
774 23-05-2020 16:25:00 15.9 C 10.02 g/m*3 15.9 C 9.7 km/h
775 23-05-2020 16:30:00 16 C 9.54 g/m*3 16 C 12.9 km/h
Sensor: Nr:Datum:Temp:Abs-Feuchte:Windchill:Wind:
Aussen-T/F 776 23-05-2020 16:35:00 16.1 C 9.46 g/m*3 16.1 C 6.4 km/h
777 23-05-2020 16:40:00 16.2 C 9.79 g/m*3 16.2 C 11.3 km/h
778 23-05-2020 16:45:00 16.3 C 9.85 g/m*3 16.3 C 9.7 km/h
779 23-05-2020 16:50:00 16.3 C 9.99 g/m*3 16.3 C 11.3 km/h
780 23-05-2020 16:55:00 16.2 C 9.79 g/m*3 16.2 C 11.3 km/h
781 23-05-2020 17:00:00 16.2 C 9.65 g/m*3 16.2 C 14.5 km/h
782 23-05-2020 17:05:00 16.1 C 9.87 g/m*3 16.1 C 12.9 km/h
783 23-05-2020 17:10:00 15.8 C 9.83 g/m*3 15.8 C 12.9 km/h
784 23-05-2020 17:15:00 15.8 C 9.83 g/m*3 15.8 C 8.1 km/h
785 23-05-2020 17:20:00 15.8 C 9.83 g/m*3 15.8 C 14.5 km/h
786 23-05-2020 17:25:00 15.7 C 9.9 g/m*3 15.7 C 11.3 km/h
787 23-05-2020 17:30:00 15.4 C 9.72 g/m*3 15.4 C 9.7 km/h
788 23-05-2020 17:35:00 15.4 C 10.12 g/m*3 15.4 C 17.7 km/h
789 23-05-2020 17:40:00 15.4 C 10.38 g/m*3 15.4 C 16.1 km/h
790 23-05-2020 17:45:00 15.6 C 10.24 g/m*3 15.6 C 11.3 km/h
791 23-05-2020 17:50:00 16 C 10.49 g/m*3 16 C 11.3 km/h
792 23-05-2020 17:55:00 16.6 C 10.74 g/m*3 16.6 C 11.3 km/h
793 23-05-2020 18:00:00 16.7 C 10.23 g/m*3 16.7 C 9.7 km/h
794 23-05-2020 18:05:00 16.8 C 10.44 g/m*3 16.8 C 11.3 km/h
795 23-05-2020 18:10:00 16.9 C 10.36 g/m*3 16.9 C 9.7 km/h
796 23-05-2020 18:15:00 16.9 C 10.36 g/m*3 16.9 C 14.5 km/h
797 23-05-2020 18:20:00 16.4 C 9.91 g/m*3 16.4 C 16.1 km/h
798 23-05-2020 18:25:00 15.9 C 9.75 g/m*3 15.9 C 16.1 km/h
799 23-05-2020 18:30:00 15.6 C 9.84 g/m*3 15.6 C 16.1 km/h
800 23-05-2020 18:35:00 15.3 C 9.92 g/m*3 15.3 C 9.7 km/h
Sensor: Nr:Datum:Temp:Abs-Feuchte:Windchill:Wind:
Aussen-T/F 801 23-05-2020 18:40:00 15.2 C 10.38 g/m*3 15.2 C 12.9 km/h
802 23-05-2020 18:45:00 15.2 C 10.64 g/m*3 15.2 C 4.8 km/h
803 23-05-2020 18:50:00 15.1 C 10.19 g/m*3 15.1 C 11.3 km/h
804 23-05-2020 18:55:00 15.1 C 10.06 g/m*3 15.1 C 8.1 km/h
805 23-05-2020 19:00:00 15.7 C 10.17 g/m*3 15.7 C 8.1 km/h
806 23-05-2020 19:05:00 15.9 C 10.02 g/m*3 15.9 C 16.1 km/h
807 23-05-2020 19:10:00 16.2 C 10.2 g/m*3 16.2 C 12.9 km/h
808 23-05-2020 19:15:00 16.1 C 10.14 g/m*3 16.1 C 14.5 km/h
809 23-05-2020 19:20:00 15.6 C 9.71 g/m*3 15.6 C 14.5 km/h
810 23-05-2020 19:25:00 15.2 C 9.86 g/m*3 15.2 C 11.3 km/h
811 23-05-2020 19:30:00 15 C 9.75 g/m*3 15 C 9.7 km/h
812 23-05-2020 19:35:00 15 C 10 g/m*3 15 C 8.1 km/h
813 23-05-2020 19:40:00 15 C 9.87 g/m*3 15 C 8.1 km/h
814 23-05-2020 19:45:00 14.9 C 9.81 g/m*3 14.9 C 9.7 km/h
815 23-05-2020 19:50:00 15.1 C 9.93 g/m*3 15.1 C 11.3 km/h
816 23-05-2020 19:55:00 15.2 C 9.99 g/m*3 15.2 C 8.1 km/h
817 23-05-2020 20:00:00 15.3 C 9.92 g/m*3 15.3 C 9.7 km/h
818 23-05-2020 20:05:00 15.2 C 9.86 g/m*3 15.2 C 9.7 km/h
819 23-05-2020 20:10:00 15 C 9.75 g/m*3 15 C 11.3 km/h
820 23-05-2020 20:15:00 14.8 C 9.75 g/m*3 14.8 C 12.9 km/h
821 23-05-2020 20:20:00 14.8 C 10.01 g/m*3 14.8 C 6.4 km/h
822 23-05-2020 20:25:00 14.7 C 9.82 g/m*3 14.7 C 9.7 km/h
823 23-05-2020 20:30:00 14.6 C 9.89 g/m*3 14.6 C 4.8 km/h
824 23-05-2020 20:35:00 14.6 C 9.89 g/m*3 14.6 C 9.7 km/h
825 23-05-2020 20:40:00 14.4 C 9.77 g/m*3 14.4 C 11.3 km/h
Sensor: Nr:Datum:Temp:Abs-Feuchte:Windchill:Wind:
Aussen-T/F 826 23-05-2020 20:45:00 14.3 C 9.71 g/m*3 14.3 C 12.9 km/h
827 23-05-2020 20:50:00 14.2 C 9.65 g/m*3 14.2 C 11.3 km/h
828 23-05-2020 20:55:00 14.1 C 9.71 g/m*3 14.1 C 14.5 km/h
829 23-05-2020 21:00:00 13.9 C 9.59 g/m*3 13.9 C 8.1 km/h
830 23-05-2020 21:05:00 13.8 C 9.53 g/m*3 13.8 C 9.7 km/h
831 23-05-2020 21:10:00 13.7 C 9.59 g/m*3 13.7 C 4.8 km/h
832 23-05-2020 21:15:00 13.5 C 9.59 g/m*3 13.5 C 4.8 km/h
833 23-05-2020 21:20:00 13.3 C 9.36 g/m*3 13.3 C 8.1 km/h
834 23-05-2020 21:25:00 13.2 C 9.3 g/m*3 13.2 C 14.5 km/h
835 23-05-2020 21:30:00 13.2 C 9.3 g/m*3 13.2 C 12.9 km/h
836 23-05-2020 21:35:00 13.1 C 9.24 g/m*3 13.1 C 11.3 km/h
837 23-05-2020 21:40:00 13 C 9.19 g/m*3 13 C 12.9 km/h
838 23-05-2020 21:45:00 12.9 C 9.24 g/m*3 12.9 C 6.4 km/h
839 23-05-2020 21:50:00 12.7 C 9.13 g/m*3 12.7 C 6.4 km/h
840 23-05-2020 21:55:00 12.6 C 9.18 g/m*3 12.6 C 1.6 km/h
841 23-05-2020 22:00:00 12.3 C 9.01 g/m*3 12.3 C 9.7 km/h
842 23-05-2020 22:05:00 12.3 C 9.01 g/m*3 12.3 C 8.1 km/h
843 23-05-2020 22:10:00 12.2 C 9.06 g/m*3 12.2 C 9.7 km/h
844 23-05-2020 22:15:00 12.2 C 9.06 g/m*3 12.2 C 9.7 km/h
845 23-05-2020 22:20:00 12.1 C 9.01 g/m*3 12.1 C 4.8 km/h
846 23-05-2020 22:25:00 12 C 8.95 g/m*3 12 C 6.4 km/h
847 23-05-2020 22:30:00 11.9 C 9 g/m*3 11.9 C 3.2 km/h
848 23-05-2020 22:35:00 11.8 C 8.95 g/m*3 11.8 C 8.1 km/h
849 23-05-2020 22:40:00 11.7 C 8.89 g/m*3 11.7 C 6.4 km/h
850 23-05-2020 22:45:00 11.6 C 8.94 g/m*3 11.6 C 3.2 km/h
Sensor: Nr:Datum:Temp:Abs-Feuchte:Windchill:Wind:
Aussen-T/F 851 23-05-2020 22:50:00 11.5 C 8.88 g/m*3 11.5 C 6.4 km/h
852 23-05-2020 22:55:00 11.4 C 8.83 g/m*3 11.4 C 6.4 km/h
853 23-05-2020 23:00:00 11.3 C 8.77 g/m*3 11.3 C 6.4 km/h
854 23-05-2020 23:05:00 11.3 C 8.77 g/m*3 11.3 C 8.1 km/h
855 23-05-2020 23:10:00 11.3 C 8.87 g/m*3 11.3 C 9.7 km/h
856 23-05-2020 23:15:00 11.2 C 8.82 g/m*3 11.2 C 3.2 km/h
857 23-05-2020 23:20:00 11.2 C 8.82 g/m*3 11.2 C 1.6 km/h
858 23-05-2020 23:25:00 11.1 C 8.76 g/m*3 11.1 C 1.6 km/h
859 23-05-2020 23:30:00 10.9 C 8.75 g/m*3 10.41 C 6.4 km/h
860 23-05-2020 23:35:00 10.9 C 8.75 g/m*3 10.04 C 8.1 km/h
861 23-05-2020 23:40:00 10.9 C 8.75 g/m*3 10.04 C 8.1 km/h
862 23-05-2020 23:45:00 10.9 C 8.75 g/m*3 10.9 C 3.2 km/h
863 23-05-2020 23:50:00 10.8 C 8.7 g/m*3 10.8 C 3.2 km/h
864 23-05-2020 23:55:00 10.8 C 8.8 g/m*3 10.8 C 3.2 km/h
865 24-05-2020 00:00:00 10.7 C 8.74 g/m*3 10.7 C 3.2 km/h
866 24-05-2020 00:05:00 10.7 C 8.74 g/m*3 10.7 C 1.6 km/h
867 24-05-2020 00:10:00 10.6 C 8.69 g/m*3 10.6 C 4.8 km/h
868 24-05-2020 00:15:00 10.6 C 8.69 g/m*3 9.4 C 9.7 km/h
869 24-05-2020 00:20:00 10.5 C 8.63 g/m*3 10.5 C 3.2 km/h
870 24-05-2020 00:25:00 10.5 C 8.63 g/m*3 9.95 C 6.4 km/h
871 24-05-2020 00:30:00 10.5 C 8.63 g/m*3 10.5 C 4.8 km/h
872 24-05-2020 00:35:00 10.4 C 8.58 g/m*3 10.4 C 1.6 km/h
873 24-05-2020 00:40:00 10.3 C 8.52 g/m*3 10.3 C 1.6 km/h
874 24-05-2020 00:45:00 10.3 C 8.52 g/m*3 10.3 C 4.8 km/h
875 24-05-2020 00:50:00 10.4 C 8.58 g/m*3 10.4 C 3.2 km/h
Sensor: Nr:Datum:Temp:Abs-Feuchte:Windchill:Wind:
Aussen-T/F 876 24-05-2020 00:55:00 10.3 C 8.52 g/m*3 10.3 C 3.2 km/h
877 24-05-2020 01:00:00 10.3 C 8.52 g/m*3 10.3 C 3.2 km/h
878 24-05-2020 01:05:00 10.3 C 8.52 g/m*3 10.3 C 3.2 km/h
879 24-05-2020 01:10:00 10.2 C 8.47 g/m*3 10.2 C 4.8 km/h
880 24-05-2020 01:15:00 10.2 C 8.37 g/m*3 10.2 C 4.8 km/h
881 24-05-2020 01:20:00 10.2 C 8.37 g/m*3 10.2 C 3.2 km/h
882 24-05-2020 01:25:00 10.2 C 8.37 g/m*3 10.2 C 3.2 km/h
883 24-05-2020 01:30:00 10.2 C 8.28 g/m*3 9.22 C 8.1 km/h
884 24-05-2020 01:35:00 10.1 C 8.23 g/m*3 10.1 C 3.2 km/h
885 24-05-2020 01:40:00 10.1 C 8.23 g/m*3 10.1 C 4.8 km/h
886 24-05-2020 01:45:00 10 C 8.17 g/m*3 10 C 4.8 km/h
887 24-05-2020 01:50:00 9.9 C 8.12 g/m*3 9.9 C 1.6 km/h
888 24-05-2020 01:55:00 9.9 C 8.12 g/m*3 9.9 C 4.8 km/h
889 24-05-2020 02:00:00 9.8 C 7.98 g/m*3 9.8 C 3.2 km/h
890 24-05-2020 02:05:00 9.8 C 7.98 g/m*3 8.18 C 11.3 km/h
891 24-05-2020 02:10:00 9.9 C 7.94 g/m*3 8.87 C 8.1 km/h
892 24-05-2020 02:15:00 10.1 C 7.94 g/m*3 8.8 C 9.7 km/h
893 24-05-2020 02:20:00 10.2 C 7.9 g/m*3 9.6 C 6.4 km/h
894 24-05-2020 02:25:00 10.2 C 7.8 g/m*3 9.6 C 6.4 km/h
895 24-05-2020 02:30:00 10.3 C 7.85 g/m*3 9.04 C 9.7 km/h
896 24-05-2020 02:35:00 10.3 C 7.76 g/m*3 9.34 C 8.1 km/h
897 24-05-2020 02:40:00 10.4 C 7.81 g/m*3 10.4 C 4.8 km/h
898 24-05-2020 02:45:00 10.4 C 7.81 g/m*3 9.46 C 8.1 km/h
899 24-05-2020 02:50:00 10.4 C 7.81 g/m*3 9.46 C 8.1 km/h
900 24-05-2020 02:55:00 10.4 C 7.81 g/m*3 9.16 C 9.7 km/h
Sensor: Nr:Datum:Temp:Abs-Feuchte:Windchill:Wind:
Aussen-T/F 901 24-05-2020 03:00:00 10.4 C 7.81 g/m*3 9.16 C 9.7 km/h
902 24-05-2020 03:05:00 10.4 C 7.9 g/m*3 10.4 C 4.8 km/h
903 24-05-2020 03:10:00 10.4 C 7.9 g/m*3 10.4 C 4.8 km/h
904 24-05-2020 03:15:00 10.3 C 7.76 g/m*3 9.72 C 6.4 km/h
905 24-05-2020 03:20:00 10.3 C 7.76 g/m*3 9.34 C 8.1 km/h
906 24-05-2020 03:25:00 10.4 C 7.71 g/m*3 9.16 C 9.7 km/h
907 24-05-2020 03:30:00 10.4 C 7.71 g/m*3 8.67 C 12.9 km/h
908 24-05-2020 03:35:00 10.6 C 7.81 g/m*3 9.14 C 11.3 km/h
909 24-05-2020 03:40:00 10.6 C 7.81 g/m*3 8.71 C 14.5 km/h
910 24-05-2020 03:45:00 10.6 C 7.71 g/m*3 8.71 C 14.5 km/h
911 24-05-2020 03:50:00 10.6 C 7.71 g/m*3 9.69 C 8.1 km/h
912 24-05-2020 03:55:00 10.6 C 7.71 g/m*3 10.06 C 6.4 km/h
913 24-05-2020 04:00:00 10.6 C 7.71 g/m*3 9.4 C 9.7 km/h
914 24-05-2020 04:05:00 10.5 C 7.66 g/m*3 9.95 C 6.4 km/h
915 24-05-2020 04:10:00 10.4 C 7.61 g/m*3 9.46 C 8.1 km/h
916 24-05-2020 04:15:00 10.3 C 7.57 g/m*3 9.72 C 6.4 km/h
917 24-05-2020 04:20:00 10.3 C 7.57 g/m*3 8.78 C 11.3 km/h
918 24-05-2020 04:25:00 10.3 C 7.57 g/m*3 10.3 C 4.8 km/h
919 24-05-2020 04:30:00 10.3 C 7.57 g/m*3 9.34 C 8.1 km/h
920 24-05-2020 04:35:00 10.2 C 7.61 g/m*3 8.92 C 9.7 km/h
921 24-05-2020 04:40:00 10.2 C 7.61 g/m*3 8.66 C 11.3 km/h
922 24-05-2020 04:45:00 10.2 C 7.61 g/m*3 8.92 C 9.7 km/h
923 24-05-2020 04:50:00 10.2 C 7.61 g/m*3 8.66 C 11.3 km/h
924 24-05-2020 04:55:00 10.2 C 7.52 g/m*3 8.92 C 9.7 km/h
925 24-05-2020 05:00:00 10.2 C 7.61 g/m*3 8.66 C 11.3 km/h
Sensor: Nr:Datum:Temp:Abs-Feuchte:Windchill:Wind:
Aussen-T/F 926 24-05-2020 05:05:00 10.2 C 7.52 g/m*3 9.22 C 8.1 km/h
927 24-05-2020 05:10:00 10.2 C 7.52 g/m*3 8.43 C 12.9 km/h
928 24-05-2020 05:15:00 10.2 C 7.61 g/m*3 9.22 C 8.1 km/h
929 24-05-2020 05:20:00 10.2 C 7.61 g/m*3 8.22 C 14.5 km/h
930 24-05-2020 05:25:00 10.2 C 7.61 g/m*3 8.22 C 14.5 km/h
931 24-05-2020 05:30:00 10.2 C 7.61 g/m*3 8.43 C 12.9 km/h
932 24-05-2020 05:35:00 10.2 C 7.61 g/m*3 8.66 C 11.3 km/h
933 24-05-2020 05:40:00 10.2 C 7.61 g/m*3 8.92 C 9.7 km/h
934 24-05-2020 05:45:00 10.2 C 7.61 g/m*3 7.7 C 19.3 km/h
935 24-05-2020 05:50:00 10.3 C 7.57 g/m*3 8.16 C 16.1 km/h
936 24-05-2020 05:55:00 10.3 C 7.66 g/m*3 8.78 C 11.3 km/h
937 24-05-2020 06:00:00 10.3 C 7.66 g/m*3 10.3 C 4.8 km/h
938 24-05-2020 06:05:00 10.3 C 7.66 g/m*3 9.34 C 8.1 km/h
939 24-05-2020 06:10:00 10.2 C 7.61 g/m*3 9.22 C 8.1 km/h
940 24-05-2020 06:15:00 10.2 C 7.61 g/m*3 10.2 C 4.8 km/h
941 24-05-2020 06:20:00 10.2 C 7.71 g/m*3 9.6 C 6.4 km/h
942 24-05-2020 06:25:00 10.3 C 7.76 g/m*3 9.34 C 8.1 km/h
943 24-05-2020 06:30:00 10.3 C 7.85 g/m*3 9.72 C 6.4 km/h
944 24-05-2020 06:35:00 10.3 C 7.85 g/m*3 9.04 C 9.7 km/h
945 24-05-2020 06:40:00 10.3 C 7.85 g/m*3 9.04 C 9.7 km/h
946 24-05-2020 06:45:00 10.3 C 7.85 g/m*3 9.34 C 8.1 km/h
947 24-05-2020 06:50:00 10.2 C 7.8 g/m*3 8.92 C 9.7 km/h
948 24-05-2020 06:55:00 10.2 C 7.9 g/m*3 8.92 C 9.7 km/h
949 24-05-2020 07:00:00 10.2 C 7.8 g/m*3 8.66 C 11.3 km/h
950 24-05-2020 07:05:00 10.3 C 7.85 g/m*3 8.78 C 11.3 km/h
Sensor: Nr:Datum:Temp:Abs-Feuchte:Windchill:Wind:
Aussen-T/F 951 24-05-2020 07:10:00 10.3 C 7.95 g/m*3 9.04 C 9.7 km/h
952 24-05-2020 07:15:00 10.2 C 7.8 g/m*3 8.92 C 9.7 km/h
953 24-05-2020 07:20:00 10.3 C 7.85 g/m*3 8.16 C 16.1 km/h
954 24-05-2020 07:25:00 10.3 C 7.85 g/m*3 9.72 C 6.4 km/h
955 24-05-2020 07:30:00 10.2 C 7.8 g/m*3 10.2 C 4.8 km/h
956 24-05-2020 07:35:00 10.2 C 7.8 g/m*3 8.66 C 11.3 km/h
957 24-05-2020 07:40:00 10.3 C 7.85 g/m*3 9.72 C 6.4 km/h
958 24-05-2020 07:45:00 10.3 C 7.85 g/m*3 8.55 C 12.9 km/h
959 24-05-2020 07:50:00 10.4 C 7.9 g/m*3 8.9 C 11.3 km/h
960 24-05-2020 07:55:00 10.6 C 8 g/m*3 9.4 C 9.7 km/h
961 24-05-2020 08:00:00 10.7 C 8.05 g/m*3 9.04 C 12.9 km/h
962 24-05-2020 08:05:00 10.7 C 8.05 g/m*3 10.7 C 4.8 km/h
963 24-05-2020 08:10:00 10.8 C 8.11 g/m*3 9.64 C 9.7 km/h
964 24-05-2020 08:15:00 10.9 C 8.16 g/m*3 9.51 C 11.3 km/h
965 24-05-2020 08:20:00 11 C 8.11 g/m*3 9.88 C 9.7 km/h
966 24-05-2020 08:25:00 11.1 C 8.16 g/m*3 11.1 C 9.7 km/h
967 24-05-2020 08:30:00 11.2 C 8.21 g/m*3 11.2 C 8.1 km/h
968 24-05-2020 08:35:00 11.3 C 8.16 g/m*3 11.3 C 8.1 km/h
969 24-05-2020 08:40:00 11.3 C 8.16 g/m*3 11.3 C 11.3 km/h
970 24-05-2020 08:45:00 11.4 C 8.11 g/m*3 11.4 C 12.9 km/h
971 24-05-2020 08:50:00 11.6 C 8.32 g/m*3 11.6 C 4.8 km/h
972 24-05-2020 08:55:00 11.7 C 8.26 g/m*3 11.7 C 11.3 km/h
973 24-05-2020 09:00:00 11.8 C 8.31 g/m*3 11.8 C 14.5 km/h
974 24-05-2020 09:05:00 12.1 C 8.36 g/m*3 12.1 C 14.5 km/h
975 24-05-2020 09:10:00 12.2 C 8.42 g/m*3 12.2 C 16.1 km/h
Sensor: Nr:Datum:Temp:Abs-Feuchte:Windchill:Wind:
Aussen-T/F 976 24-05-2020 09:15:00 12.3 C 8.47 g/m*3 12.3 C 6.4 km/h
977 24-05-2020 09:20:00 12.4 C 8.41 g/m*3 12.4 C 12.9 km/h
978 24-05-2020 09:25:00 12.6 C 8.52 g/m*3 12.6 C 11.3 km/h
979 24-05-2020 09:30:00 12.8 C 8.51 g/m*3 12.8 C 12.9 km/h
980 24-05-2020 09:35:00 12.9 C 8.68 g/m*3 12.9 C 12.9 km/h
981 24-05-2020 09:40:00 13.2 C 8.73 g/m*3 13.2 C 11.3 km/h
982 24-05-2020 09:45:00 13.3 C 8.78 g/m*3 13.3 C 14.5 km/h
983 24-05-2020 09:50:00 13.6 C 8.83 g/m*3 13.6 C 14.5 km/h
984 24-05-2020 09:55:00 13.7 C 8.88 g/m*3 13.7 C 16.1 km/h
985 24-05-2020 10:00:00 13.8 C 8.82 g/m*3 13.8 C 16.1 km/h
986 24-05-2020 10:05:00 14.2 C 8.91 g/m*3 14.2 C 16.1 km/h
987 24-05-2020 10:10:00 14.2 C 8.79 g/m*3 14.2 C 8.1 km/h
988 24-05-2020 10:15:00 14.2 C 8.91 g/m*3 14.2 C 8.1 km/h
989 24-05-2020 10:20:00 14.2 C 8.91 g/m*3 14.2 C 16.1 km/h
990 24-05-2020 10:25:00 14.3 C 9.09 g/m*3 14.3 C 11.3 km/h
991 24-05-2020 10:30:00 14.4 C 9.15 g/m*3 14.4 C 16.1 km/h
992 24-05-2020 10:35:00 14.5 C 8.95 g/m*3 14.5 C 14.5 km/h
993 24-05-2020 10:40:00 14.5 C 8.83 g/m*3 14.5 C 9.7 km/h
994 24-05-2020 10:45:00 14.7 C 8.81 g/m*3 14.7 C 14.5 km/h
995 24-05-2020 10:50:00 14.9 C 8.54 g/m*3 14.9 C 16.1 km/h
996 24-05-2020 10:55:00 15.1 C 8.51 g/m*3 15.1 C 12.9 km/h
997 24-05-2020 11:00:00 15.1 C 8.39 g/m*3 15.1 C 11.3 km/h
998 24-05-2020 11:05:00 15.2 C 8.18 g/m*3 15.2 C 14.5 km/h
999 24-05-2020 11:10:00 15.2 C 8.05 g/m*3 15.2 C 6.4 km/h
1000 24-05-2020 11:15:00 15.2 C 8.18 g/m*3 15.2 C 9.7 km/h
Sensor: Nr:Datum:Temp:Abs-Feuchte:Windchill:Wind:
Aussen-T/F 1001 24-05-2020 11:20:00 15.2 C 8.18 g/m*3 15.2 C 9.7 km/h
1002 24-05-2020 11:25:00 15.3 C 8.23 g/m*3 15.3 C 14.5 km/h
1003 24-05-2020 11:30:00 15.5 C 8.33 g/m*3 15.5 C 14.5 km/h
1004 24-05-2020 11:35:00 15.7 C 8.3 g/m*3 15.7 C 12.9 km/h
1005 24-05-2020 11:40:00 15.9 C 8.13 g/m*3 15.9 C 8.1 km/h
1006 24-05-2020 11:45:00 15.9 C 7.99 g/m*3 15.9 C 9.7 km/h
1007 24-05-2020 11:50:00 16.1 C 8.22 g/m*3 16.1 C 16.1 km/h
1008 24-05-2020 11:55:00 16.3 C 8.05 g/m*3 16.3 C 12.9 km/h
1009 24-05-2020 12:00:00 16.4 C 7.82 g/m*3 16.4 C 11.3 km/h
1010 24-05-2020 12:05:00 16.6 C 8.05 g/m*3 16.6 C 17.7 km/h
1011 24-05-2020 12:10:00 16.5 C 8.28 g/m*3 16.5 C 11.3 km/h
1012 24-05-2020 12:15:00 16.5 C 8.14 g/m*3 16.5 C 12.9 km/h
1013 24-05-2020 12:20:00 16.5 C 8.14 g/m*3 16.5 C 12.9 km/h
1014 24-05-2020 12:25:00 16.7 C 8.24 g/m*3 16.7 C 11.3 km/h
1015 24-05-2020 12:30:00 16.8 C 7.86 g/m*3 16.8 C 14.5 km/h
1016 24-05-2020 12:35:00 16.9 C 8.05 g/m*3 16.9 C 14.5 km/h
1017 24-05-2020 12:40:00 17.1 C 7.86 g/m*3 17.1 C 12.9 km/h
1018 24-05-2020 12:45:00 17.2 C 7.91 g/m*3 17.2 C 16.1 km/h
1019 24-05-2020 12:50:00 17.4 C 7.85 g/m*3 17.4 C 14.5 km/h
1020 24-05-2020 12:55:00 17.4 C 8 g/m*3 17.4 C 14.5 km/h
1021 24-05-2020 13:00:00 17.4 C 8 g/m*3 17.4 C 11.3 km/h
1022 24-05-2020 13:05:00 17.4 C 8.15 g/m*3 17.4 C 11.3 km/h
1023 24-05-2020 13:10:00 17.3 C 7.66 g/m*3 17.3 C 16.1 km/h
1024 24-05-2020 13:15:00 17.3 C 7.81 g/m*3 17.3 C 12.9 km/h
1025 24-05-2020 13:20:00 17.4 C 8.15 g/m*3 17.4 C 8.1 km/h
Sensor: Nr:Datum:Temp:Abs-Feuchte:Windchill:Wind:
Aussen-T/F 1026 24-05-2020 13:25:00 17.6 C 7.95 g/m*3 17.6 C 11.3 km/h
1027 24-05-2020 13:30:00 17.7 C 8.3 g/m*3 17.7 C 14.5 km/h
1028 24-05-2020 13:35:00 17.8 C 8.2 g/m*3 17.8 C 12.9 km/h
1029 24-05-2020 13:40:00 17.7 C 8 g/m*3 17.7 C 14.5 km/h
1030 24-05-2020 13:45:00 17.7 C 8.15 g/m*3 17.7 C 8.1 km/h
1031 24-05-2020 13:50:00 17.7 C 8.3 g/m*3 17.7 C 12.9 km/h
1032 24-05-2020 13:55:00 17.5 C 8.05 g/m*3 17.5 C 12.9 km/h
1033 24-05-2020 14:00:00 17.3 C 8.1 g/m*3 17.3 C 16.1 km/h
1034 24-05-2020 14:05:00 17.2 C 8.05 g/m*3 17.2 C 11.3 km/h
1035 24-05-2020 14:10:00 17.1 C 8.3 g/m*3 17.1 C 11.3 km/h
1036 24-05-2020 14:15:00 17 C 8.1 g/m*3 17 C 14.5 km/h
1037 24-05-2020 14:20:00 16.9 C 8.05 g/m*3 16.9 C 8.1 km/h
1038 24-05-2020 14:25:00 16.9 C 8.2 g/m*3 16.9 C 12.9 km/h
1039 24-05-2020 14:30:00 16.9 C 8.05 g/m*3 16.9 C 17.7 km/h
1040 24-05-2020 14:35:00 16.9 C 8.05 g/m*3 16.9 C 12.9 km/h
1041 24-05-2020 14:40:00 16.9 C 8.2 g/m*3 16.9 C 8.1 km/h
1042 24-05-2020 14:45:00 17 C 8.25 g/m*3 17 C 8.1 km/h
1043 24-05-2020 14:50:00 17 C 8.25 g/m*3 17 C 9.7 km/h
1044 24-05-2020 14:55:00 17 C 8.25 g/m*3 17 C 11.3 km/h
1045 24-05-2020 15:00:00 17.1 C 8.3 g/m*3 17.1 C 9.7 km/h
1046 24-05-2020 15:05:00 17.1 C 8.3 g/m*3 17.1 C 12.9 km/h
1047 24-05-2020 15:10:00 17.1 C 8.44 g/m*3 17.1 C 9.7 km/h
1048 24-05-2020 15:15:00 17.1 C 8.3 g/m*3 17.1 C 16.1 km/h
1049 24-05-2020 15:20:00 17 C 8.25 g/m*3 17 C 9.7 km/h
1050 24-05-2020 15:25:00 16.9 C 8.34 g/m*3 16.9 C 17.7 km/h
Sensor: Nr:Datum:Temp:Abs-Feuchte:Windchill:Wind:
Aussen-T/F 1051 24-05-2020 15:30:00 16.8 C 8.44 g/m*3 16.8 C 12.9 km/h
1052 24-05-2020 15:35:00 16.8 C 8.58 g/m*3 16.8 C 8.1 km/h
1053 24-05-2020 15:40:00 16.7 C 8.53 g/m*3 16.7 C 11.3 km/h
1054 24-05-2020 15:45:00 16.7 C 8.67 g/m*3 16.7 C 11.3 km/h
1055 24-05-2020 15:50:00 16.7 C 8.67 g/m*3 16.7 C 12.9 km/h
1056 24-05-2020 15:55:00 16.7 C 8.67 g/m*3 16.7 C 12.9 km/h
1057 24-05-2020 16:00:00 16.8 C 8.58 g/m*3 16.8 C 19.3 km/h
1058 24-05-2020 16:05:00 16.8 C 9.01 g/m*3 16.8 C 12.9 km/h
1059 24-05-2020 16:10:00 16.8 C 9.01 g/m*3 16.8 C 8.1 km/h
1060 24-05-2020 16:15:00 16.7 C 8.95 g/m*3 16.7 C 14.5 km/h
1061 24-05-2020 16:20:00 16.6 C 8.76 g/m*3 16.6 C 20.9 km/h
1062 24-05-2020 16:25:00 16.6 C 8.62 g/m*3 16.6 C 12.9 km/h
1063 24-05-2020 16:30:00 16.6 C 8.76 g/m*3 16.6 C 11.3 km/h
1064 24-05-2020 16:35:00 16.6 C 8.9 g/m*3 16.6 C 12.9 km/h
1065 24-05-2020 16:40:00 16.6 C 8.9 g/m*3 16.6 C 17.7 km/h
1066 24-05-2020 16:45:00 16.6 C 8.9 g/m*3 16.6 C 8.1 km/h
1067 24-05-2020 16:50:00 16.6 C 8.9 g/m*3 16.6 C 8.1 km/h
1068 24-05-2020 16:55:00 16.6 C 8.9 g/m*3 16.6 C 14.5 km/h
1069 24-05-2020 17:00:00 16.7 C 8.95 g/m*3 16.7 C 12.9 km/h
1070 24-05-2020 17:05:00 16.7 C 8.95 g/m*3 16.7 C 16.1 km/h
1071 24-05-2020 17:10:00 16.7 C 8.95 g/m*3 16.7 C 12.9 km/h
1072 24-05-2020 17:15:00 16.7 C 9.1 g/m*3 16.7 C 9.7 km/h
1073 24-05-2020 17:20:00 16.7 C 9.24 g/m*3 16.7 C 4.8 km/h
1074 24-05-2020 17:25:00 16.6 C 9.04 g/m*3 16.6 C 8.1 km/h
1075 24-05-2020 17:30:00 16.6 C 9.18 g/m*3 16.6 C 9.7 km/h
Sensor: Nr:Datum:Temp:Abs-Feuchte:Windchill:Wind:
Aussen-T/F 1076 24-05-2020 17:35:00 16.6 C 9.32 g/m*3 16.6 C 9.7 km/h
1077 24-05-2020 17:40:00 16.6 C 9.18 g/m*3 16.6 C 11.3 km/h
1078 24-05-2020 17:45:00 16.6 C 9.18 g/m*3 16.6 C 8.1 km/h
1079 24-05-2020 17:50:00 16.6 C 9.32 g/m*3 16.6 C 3.2 km/h
1080 24-05-2020 17:55:00 16.6 C 9.32 g/m*3 16.6 C 9.7 km/h
1081 24-05-2020 18:00:00 16.6 C 9.32 g/m*3 16.6 C 8.1 km/h
1082 24-05-2020 18:05:00 16.6 C 9.32 g/m*3 16.6 C 6.4 km/h
1083 24-05-2020 18:10:00 16.6 C 9.18 g/m*3 16.6 C 6.4 km/h
1084 24-05-2020 18:15:00 16.6 C 9.18 g/m*3 16.6 C 8.1 km/h
1085 24-05-2020 18:20:00 16.6 C 9.32 g/m*3 16.6 C 9.7 km/h
1086 24-05-2020 18:25:00 16.6 C 9.46 g/m*3 16.6 C 9.7 km/h
1087 24-05-2020 18:30:00 16.4 C 9.49 g/m*3 16.4 C 12.9 km/h
1088 24-05-2020 18:35:00 16.1 C 9.73 g/m*3 16.1 C 16.1 km/h
1089 24-05-2020 18:40:00 15.7 C 9.9 g/m*3 15.7 C 9.7 km/h
1090 24-05-2020 18:45:00 15.4 C 10.25 g/m*3 15.4 C 8.1 km/h
1091 24-05-2020 18:50:00 15.3 C 10.45 g/m*3 15.3 C 0 km/h
1092 24-05-2020 18:55:00 15.2 C 10.51 g/m*3 15.2 C 1.6 km/h
1093 24-05-2020 19:00:00 15.1 C 10.45 g/m*3 15.1 C 0 km/h
1094 24-05-2020 19:05:00 14.9 C 10.45 g/m*3 14.9 C 4.8 km/h
1095 24-05-2020 19:10:00 14.8 C 10.51 g/m*3 14.8 C 4.8 km/h
1096 24-05-2020 19:15:00 14.7 C 10.45 g/m*3 14.7 C 4.8 km/h
1097 24-05-2020 19:20:00 14.6 C 10.51 g/m*3 14.6 C 4.8 km/h
1098 24-05-2020 19:25:00 14.4 C 10.38 g/m*3 14.4 C 1.6 km/h
1099 24-05-2020 19:30:00 14.3 C 10.32 g/m*3 14.3 C 3.2 km/h
1100 24-05-2020 19:35:00 14.3 C 10.44 g/m*3 14.3 C 3.2 km/h
Sensor: Nr:Datum:Temp:Abs-Feuchte:Windchill:Wind:
Aussen-T/F 1101 24-05-2020 19:40:00 14.3 C 10.44 g/m*3 14.3 C 0 km/h
1102 24-05-2020 19:45:00 14.3 C 10.44 g/m*3 14.3 C 0 km/h
1103 24-05-2020 19:50:00 14.2 C 10.5 g/m*3 14.2 C 0 km/h
1104 24-05-2020 19:55:00 14.2 C 10.5 g/m*3 14.2 C 0 km/h
1105 24-05-2020 20:00:00 14.2 C 10.5 g/m*3 14.2 C 3.2 km/h
1106 24-05-2020 20:05:00 14.1 C 10.44 g/m*3 14.1 C 1.6 km/h
1107 24-05-2020 20:10:00 14.1 C 10.44 g/m*3 14.1 C 1.6 km/h
1108 24-05-2020 20:15:00 14.1 C 10.44 g/m*3 14.1 C 3.2 km/h
1109 24-05-2020 20:20:00 14.2 C 10.38 g/m*3 14.2 C 3.2 km/h
1110 24-05-2020 20:25:00 14.6 C 10.39 g/m*3 14.6 C 9.7 km/h
1111 24-05-2020 20:30:00 15 C 10.39 g/m*3 15 C 9.7 km/h
1112 24-05-2020 20:35:00 15.3 C 10.19 g/m*3 15.3 C 11.3 km/h
1113 24-05-2020 20:40:00 15.4 C 10.25 g/m*3 15.4 C 11.3 km/h
1114 24-05-2020 20:45:00 15.4 C 10.25 g/m*3 15.4 C 9.7 km/h
1115 24-05-2020 20:50:00 15.3 C 10.19 g/m*3 15.3 C 4.8 km/h
1116 24-05-2020 20:55:00 15.3 C 10.06 g/m*3 15.3 C 4.8 km/h
1117 24-05-2020 21:00:00 15.3 C 10.32 g/m*3 15.3 C 0 km/h
1118 24-05-2020 21:05:00 15.2 C 10.25 g/m*3 15.2 C 1.6 km/h
1119 24-05-2020 21:10:00 15.1 C 10.32 g/m*3 15.1 C 3.2 km/h
1120 24-05-2020 21:15:00 14.9 C 10.2 g/m*3 14.9 C 4.8 km/h
1121 24-05-2020 21:20:00 14.7 C 10.2 g/m*3 14.7 C 3.2 km/h
1122 24-05-2020 21:25:00 14.6 C 10.14 g/m*3 14.6 C 1.6 km/h
1123 24-05-2020 21:30:00 14.4 C 10.01 g/m*3 14.4 C 8.1 km/h
1124 24-05-2020 21:35:00 14.4 C 10.14 g/m*3 14.4 C 4.8 km/h
1125 24-05-2020 21:40:00 14.4 C 10.14 g/m*3 14.4 C 3.2 km/h
Sensor: Nr:Datum:Temp:Abs-Feuchte:Windchill:Wind:
Aussen-T/F 1126 24-05-2020 21:45:00 14.3 C 10.07 g/m*3 14.3 C 9.7 km/h
1127 24-05-2020 21:50:00 14.3 C 10.07 g/m*3 14.3 C 1.6 km/h
1128 24-05-2020 21:55:00 14.3 C 10.2 g/m*3 14.3 C 4.8 km/h
1129 24-05-2020 22:00:00 14.3 C 10.2 g/m*3 14.3 C 6.4 km/h
1130 24-05-2020 22:05:00 14.2 C 10.14 g/m*3 14.2 C 4.8 km/h
1131 24-05-2020 22:10:00 14.2 C 10.14 g/m*3 14.2 C 3.2 km/h
1132 24-05-2020 22:15:00 14.2 C 10.14 g/m*3 14.2 C 3.2 km/h
1133 24-05-2020 22:20:00 14.2 C 10.14 g/m*3 14.2 C 6.4 km/h
1134 24-05-2020 22:25:00 14.1 C 10.07 g/m*3 14.1 C 4.8 km/h
1135 24-05-2020 22:30:00 14.1 C 10.19 g/m*3 14.1 C 1.6 km/h
1136 24-05-2020 22:35:00 14.1 C 10.19 g/m*3 14.1 C 0 km/h
1137 24-05-2020 22:40:00 14.1 C 10.19 g/m*3 14.1 C 1.6 km/h
1138 24-05-2020 22:45:00 14.1 C 10.19 g/m*3 14.1 C 0 km/h
1139 24-05-2020 22:50:00 14 C 10.13 g/m*3 14 C 4.8 km/h
1140 24-05-2020 22:55:00 14 C 10.13 g/m*3 14 C 4.8 km/h
1141 24-05-2020 23:00:00 14 C 10.13 g/m*3 14 C 8.1 km/h
1142 24-05-2020 23:05:00 14.1 C 10.19 g/m*3 14.1 C 1.6 km/h
1143 24-05-2020 23:10:00 14.1 C 10.07 g/m*3 14.1 C 3.2 km/h
1144 24-05-2020 23:15:00 14.1 C 10.19 g/m*3 14.1 C 3.2 km/h
1145 24-05-2020 23:20:00 14.2 C 10.26 g/m*3 14.2 C 3.2 km/h
1146 24-05-2020 23:25:00 14.2 C 10.26 g/m*3 14.2 C 4.8 km/h
1147 24-05-2020 23:30:00 14.1 C 10.19 g/m*3 14.1 C 3.2 km/h
1148 24-05-2020 23:35:00 14.1 C 10.07 g/m*3 14.1 C 4.8 km/h
1149 24-05-2020 23:40:00 14.1 C 10.07 g/m*3 14.1 C 1.6 km/h
1150 24-05-2020 23:45:00 14.1 C 10.19 g/m*3 14.1 C 4.8 km/h
Sensor: Nr:Datum:Temp:Abs-Feuchte:Windchill:Wind:
Aussen-T/F 1151 24-05-2020 23:50:00 14 C 10.13 g/m*3 14 C 6.4 km/h
1152 24-05-2020 23:55:00 13.9 C 10.07 g/m*3 13.9 C 0 km/h
1153 25-05-2020 00:00:00 13.9 C 10.19 g/m*3 13.9 C 0 km/h
1154 25-05-2020 00:05:00 13.8 C 10.13 g/m*3 13.8 C 3.2 km/h
1155 25-05-2020 00:10:00 13.7 C 10.18 g/m*3 13.7 C 1.6 km/h
1156 25-05-2020 00:15:00 13.7 C 10.18 g/m*3 13.7 C 3.2 km/h
1157 25-05-2020 00:20:00 13.6 C 10.12 g/m*3 13.6 C 1.6 km/h
1158 25-05-2020 00:25:00 13.5 C 10.06 g/m*3 13.5 C 0 km/h
1159 25-05-2020 00:30:00 13.5 C 10.18 g/m*3 13.5 C 0 km/h
1160 25-05-2020 00:35:00 13.4 C 10.11 g/m*3 13.4 C 0 km/h
1161 25-05-2020 00:40:00 13.4 C 10.11 g/m*3 13.4 C 0 km/h
1162 25-05-2020 00:45:00 13.3 C 10.17 g/m*3 13.3 C 1.6 km/h
1163 25-05-2020 00:50:00 13.3 C 10.17 g/m*3 13.3 C 1.6 km/h
1164 25-05-2020 00:55:00 13.2 C 10.1 g/m*3 13.2 C 4.8 km/h
1165 25-05-2020 01:00:00 13.2 C 10.1 g/m*3 13.2 C 1.6 km/h
1166 25-05-2020 01:05:00 13.2 C 10.1 g/m*3 13.2 C 0 km/h
1167 25-05-2020 01:10:00 13.1 C 10.04 g/m*3 13.1 C 0 km/h
1168 25-05-2020 01:15:00 13.1 C 10.04 g/m*3 13.1 C 0 km/h
1169 25-05-2020 01:20:00 13 C 9.98 g/m*3 13 C 0 km/h
1170 25-05-2020 01:25:00 13 C 10.09 g/m*3 13 C 0 km/h
1171 25-05-2020 01:30:00 12.9 C 10.03 g/m*3 12.9 C 0 km/h
1172 25-05-2020 01:35:00 12.9 C 10.03 g/m*3 12.9 C 3.2 km/h
1173 25-05-2020 01:40:00 12.9 C 10.03 g/m*3 12.9 C 3.2 km/h
1174 25-05-2020 01:45:00 12.9 C 10.03 g/m*3 12.9 C 1.6 km/h
1175 25-05-2020 01:50:00 12.9 C 10.03 g/m*3 12.9 C 0 km/h
Sensor: Nr:Datum:Temp:Abs-Feuchte:Windchill:Wind:
Aussen-T/F 1176 25-05-2020 01:55:00 12.9 C 10.03 g/m*3 12.9 C 0 km/h
1177 25-05-2020 02:00:00 12.9 C 10.03 g/m*3 12.9 C 0 km/h
1178 25-05-2020 02:05:00 12.9 C 10.03 g/m*3 12.9 C 1.6 km/h
1179 25-05-2020 02:10:00 12.9 C 10.03 g/m*3 12.9 C 1.6 km/h
1180 25-05-2020 02:15:00 12.9 C 10.03 g/m*3 12.9 C 1.6 km/h
1181 25-05-2020 02:20:00 12.9 C 10.03 g/m*3 12.9 C 0 km/h
1182 25-05-2020 02:25:00 12.9 C 10.03 g/m*3 12.9 C 4.8 km/h
1183 25-05-2020 02:30:00 12.9 C 10.03 g/m*3 12.9 C 1.6 km/h
1184 25-05-2020 02:35:00 12.9 C 10.03 g/m*3 12.9 C 3.2 km/h
1185 25-05-2020 02:40:00 12.9 C 10.03 g/m*3 12.9 C 4.8 km/h
1186 25-05-2020 02:45:00 13 C 10.09 g/m*3 13 C 3.2 km/h
1187 25-05-2020 02:50:00 13 C 10.09 g/m*3 13 C 0 km/h
1188 25-05-2020 02:55:00 13.1 C 10.16 g/m*3 13.1 C 0 km/h
1189 25-05-2020 03:00:00 13.1 C 10.16 g/m*3 13.1 C 0 km/h
1190 25-05-2020 03:05:00 13.1 C 10.16 g/m*3 13.1 C 1.6 km/h
1191 25-05-2020 03:10:00 13.1 C 10.04 g/m*3 13.1 C 1.6 km/h
1192 25-05-2020 03:15:00 13.2 C 10.1 g/m*3 13.2 C 6.4 km/h
1193 25-05-2020 03:20:00 13.2 C 10.1 g/m*3 13.2 C 3.2 km/h
1194 25-05-2020 03:25:00 13.3 C 10.17 g/m*3 13.3 C 4.8 km/h
1195 25-05-2020 03:30:00 13.3 C 10.05 g/m*3 13.3 C 1.6 km/h
1196 25-05-2020 03:35:00 13.4 C 10.11 g/m*3 13.4 C 1.6 km/h
1197 25-05-2020 03:40:00 13.4 C 10.11 g/m*3 13.4 C 3.2 km/h
1198 25-05-2020 03:45:00 13.4 C 10.11 g/m*3 13.4 C 1.6 km/h
1199 25-05-2020 03:50:00 13.4 C 10.11 g/m*3 13.4 C 0 km/h
1200 25-05-2020 03:55:00 13.4 C 10.11 g/m*3 13.4 C 1.6 km/h
Sensor: Nr:Datum:Temp:Abs-Feuchte:Windchill:Wind:
Aussen-T/F 1201 25-05-2020 04:00:00 13.4 C 10.11 g/m*3 13.4 C 3.2 km/h
1202 25-05-2020 04:05:00 13.3 C 10.05 g/m*3 13.3 C 3.2 km/h
1203 25-05-2020 04:10:00 13.3 C 10.05 g/m*3 13.3 C 1.6 km/h
1204 25-05-2020 04:15:00 13.3 C 10.05 g/m*3 13.3 C 0 km/h
1205 25-05-2020 04:20:00 13.3 C 10.05 g/m*3 13.3 C 0 km/h
1206 25-05-2020 04:25:00 13.3 C 10.05 g/m*3 13.3 C 1.6 km/h
1207 25-05-2020 04:30:00 13.3 C 10.17 g/m*3 13.3 C 1.6 km/h
1208 25-05-2020 04:35:00 13.3 C 10.05 g/m*3 13.3 C 4.8 km/h
1209 25-05-2020 04:40:00 13.3 C 10.05 g/m*3 13.3 C 4.8 km/h
1210 25-05-2020 04:45:00 13.3 C 10.05 g/m*3 13.3 C 6.4 km/h
1211 25-05-2020 04:50:00 13.3 C 10.05 g/m*3 13.3 C 0 km/h
1212 25-05-2020 04:55:00 13.3 C 10.05 g/m*3 13.3 C 1.6 km/h
1213 25-05-2020 05:00:00 13.3 C 10.05 g/m*3 13.3 C 3.2 km/h
1214 25-05-2020 05:05:00 13.3 C 10.17 g/m*3 13.3 C 0 km/h
1215 25-05-2020 05:10:00 13.3 C 10.05 g/m*3 13.3 C 4.8 km/h
1216 25-05-2020 05:15:00 13.3 C 10.17 g/m*3 13.3 C 0 km/h
1217 25-05-2020 05:20:00 13.2 C 9.99 g/m*3 13.2 C 3.2 km/h
1218 25-05-2020 05:25:00 13.3 C 10.17 g/m*3 13.3 C 0 km/h
1219 25-05-2020 05:30:00 13.2 C 10.1 g/m*3 13.2 C 3.2 km/h
1220 25-05-2020 05:35:00 13.2 C 9.99 g/m*3 13.2 C 0 km/h
1221 25-05-2020 05:40:00 13.2 C 10.1 g/m*3 13.2 C 1.6 km/h
1222 25-05-2020 05:45:00 13.2 C 9.99 g/m*3 13.2 C 3.2 km/h
1223 25-05-2020 05:50:00 13.2 C 9.99 g/m*3 13.2 C 0 km/h
1224 25-05-2020 05:55:00 13.2 C 9.99 g/m*3 13.2 C 3.2 km/h
1225 25-05-2020 06:00:00 13.2 C 10.1 g/m*3 13.2 C 1.6 km/h
Sensor: Nr:Datum:Temp:Abs-Feuchte:Windchill:Wind:
Aussen-T/F 1226 25-05-2020 06:05:00 13.2 C 10.1 g/m*3 13.2 C 3.2 km/h
1227 25-05-2020 06:10:00 13.2 C 10.1 g/m*3 13.2 C 3.2 km/h
1228 25-05-2020 06:15:00 13.2 C 10.1 g/m*3 13.2 C 1.6 km/h
1229 25-05-2020 06:20:00 13.3 C 10.17 g/m*3 13.3 C 0 km/h
1230 25-05-2020 06:25:00 13.3 C 10.17 g/m*3 13.3 C 1.6 km/h
1231 25-05-2020 06:30:00 13.3 C 10.17 g/m*3 13.3 C 1.6 km/h
1232 25-05-2020 06:35:00 13.3 C 10.17 g/m*3 13.3 C 0 km/h
1233 25-05-2020 06:40:00 13.3 C 10.17 g/m*3 13.3 C 0 km/h
1234 25-05-2020 06:45:00 13.4 C 10.11 g/m*3 13.4 C 0 km/h
1235 25-05-2020 06:50:00 13.4 C 10.23 g/m*3 13.4 C 0 km/h
1236 25-05-2020 06:55:00 13.5 C 10.29 g/m*3 13.5 C 0 km/h
1237 25-05-2020 07:00:00 13.5 C 10.29 g/m*3 13.5 C 1.6 km/h
1238 25-05-2020 07:05:00 13.6 C 10.36 g/m*3 13.6 C 0 km/h
1239 25-05-2020 07:10:00 13.6 C 10.36 g/m*3 13.6 C 0 km/h
1240 25-05-2020 07:15:00 13.6 C 10.36 g/m*3 13.6 C 0 km/h
1241 25-05-2020 07:20:00 13.7 C 10.42 g/m*3 13.7 C 1.6 km/h
1242 25-05-2020 07:25:00 13.7 C 10.3 g/m*3 13.7 C 1.6 km/h
1243 25-05-2020 07:30:00 13.8 C 10.37 g/m*3 13.8 C 4.8 km/h
1244 25-05-2020 07:35:00 13.8 C 10.25 g/m*3 13.8 C 8.1 km/h
1245 25-05-2020 07:40:00 13.9 C 10.19 g/m*3 13.9 C 6.4 km/h
1246 25-05-2020 07:45:00 14.1 C 10.32 g/m*3 14.1 C 8.1 km/h
1247 25-05-2020 07:50:00 14.1 C 10.32 g/m*3 14.1 C 4.8 km/h
1248 25-05-2020 07:55:00 14.2 C 10.26 g/m*3 14.2 C 6.4 km/h
1249 25-05-2020 08:00:00 14.2 C 10.26 g/m*3 14.2 C 8.1 km/h
1250 25-05-2020 08:05:00 14.3 C 10.32 g/m*3 14.3 C 3.2 km/h
Sensor: Nr:Datum:Temp:Abs-Feuchte:Windchill:Wind:
Aussen-T/F 1251 25-05-2020 08:10:00 14.4 C 10.51 g/m*3 14.4 C 1.6 km/h
1252 25-05-2020 08:15:00 14.5 C 10.45 g/m*3 14.5 C 8.1 km/h
1253 25-05-2020 08:20:00 14.6 C 10.51 g/m*3 14.6 C 6.4 km/h
1254 25-05-2020 08:25:00 14.7 C 10.58 g/m*3 14.7 C 1.6 km/h
1255 25-05-2020 08:30:00 14.8 C 10.51 g/m*3 14.8 C 4.8 km/h
1256 25-05-2020 08:35:00 14.8 C 10.39 g/m*3 14.8 C 9.7 km/h
1257 25-05-2020 08:40:00 14.9 C 10.45 g/m*3 14.9 C 8.1 km/h
1258 25-05-2020 08:45:00 14.9 C 10.32 g/m*3 14.9 C 6.4 km/h
1259 25-05-2020 08:50:00 15 C 10.39 g/m*3 15 C 9.7 km/h
1260 25-05-2020 08:55:00 15.1 C 10.45 g/m*3 15.1 C 9.7 km/h
1261 25-05-2020 09:00:00 15.1 C 10.45 g/m*3 15.1 C 9.7 km/h
1262 25-05-2020 09:05:00 15.2 C 10.51 g/m*3 15.2 C 4.8 km/h
1263 25-05-2020 09:10:00 15.3 C 10.58 g/m*3 15.3 C 6.4 km/h
1264 25-05-2020 09:15:00 15.4 C 10.51 g/m*3 15.4 C 6.4 km/h
1265 25-05-2020 09:20:00 15.4 C 10.51 g/m*3 15.4 C 12.9 km/h
1266 25-05-2020 09:25:00 15.5 C 10.44 g/m*3 15.5 C 9.7 km/h
1267 25-05-2020 09:30:00 15.5 C 10.44 g/m*3 15.5 C 9.7 km/h
1268 25-05-2020 09:35:00 15.5 C 10.44 g/m*3 15.5 C 9.7 km/h
1269 25-05-2020 09:40:00 15.5 C 10.57 g/m*3 15.5 C 9.7 km/h
1270 25-05-2020 09:45:00 15.6 C 10.64 g/m*3 15.6 C 6.4 km/h
1271 25-05-2020 09:50:00 15.7 C 10.7 g/m*3 15.7 C 6.4 km/h
1272 25-05-2020 09:55:00 15.7 C 10.57 g/m*3 15.7 C 9.7 km/h
1273 25-05-2020 10:00:00 15.8 C 10.63 g/m*3 15.8 C 12.9 km/h
1274 25-05-2020 10:05:00 15.8 C 10.63 g/m*3 15.8 C 8.1 km/h
1275 25-05-2020 10:10:00 15.8 C 10.5 g/m*3 15.8 C 11.3 km/h
Sensor: Nr:Datum:Temp:Abs-Feuchte:Windchill:Wind:
Aussen-T/F 1276 25-05-2020 10:15:00 15.8 C 10.36 g/m*3 15.8 C 12.9 km/h
1277 25-05-2020 10:20:00 15.8 C 10.5 g/m*3 15.8 C 12.9 km/h
1278 25-05-2020 10:25:00 15.8 C 10.63 g/m*3 15.8 C 9.7 km/h
1279 25-05-2020 10:30:00 15.9 C 10.43 g/m*3 15.9 C 11.3 km/h
1280 25-05-2020 10:35:00 15.9 C 10.43 g/m*3 15.9 C 11.3 km/h
1281 25-05-2020 10:40:00 16 C 10.49 g/m*3 16 C 11.3 km/h
1282 25-05-2020 10:45:00 16 C 10.49 g/m*3 16 C 12.9 km/h
1283 25-05-2020 10:50:00 16 C 10.49 g/m*3 16 C 14.5 km/h
1284 25-05-2020 10:55:00 16.1 C 10.42 g/m*3 16.1 C 9.7 km/h
1285 25-05-2020 11:00:00 16.2 C 10.48 g/m*3 16.2 C 9.7 km/h
1286 25-05-2020 11:05:00 16.2 C 10.62 g/m*3 16.2 C 9.7 km/h
1287 25-05-2020 11:10:00 16.2 C 10.48 g/m*3 16.2 C 9.7 km/h
1288 25-05-2020 11:15:00 16.3 C 10.54 g/m*3 16.3 C 8.1 km/h
1289 25-05-2020 11:20:00 16.3 C 10.41 g/m*3 16.3 C 9.7 km/h
1290 25-05-2020 11:25:00 16.3 C 10.54 g/m*3 16.3 C 11.3 km/h
1291 25-05-2020 11:30:00 16.4 C 10.61 g/m*3 16.4 C 8.1 km/h
1292 25-05-2020 11:35:00 16.6 C 10.59 g/m*3 16.6 C 6.4 km/h
1293 25-05-2020 11:40:00 16.7 C 10.52 g/m*3 16.7 C 8.1 km/h
1294 25-05-2020 11:45:00 16.8 C 10.58 g/m*3 16.8 C 11.3 km/h
1295 25-05-2020 11:50:00 16.9 C 10.64 g/m*3 16.9 C 11.3 km/h
1296 25-05-2020 11:55:00 16.9 C 10.5 g/m*3 16.9 C 12.9 km/h
1297 25-05-2020 12:00:00 16.8 C 10.44 g/m*3 16.8 C 9.7 km/h
1298 25-05-2020 12:05:00 16.8 C 10.44 g/m*3 16.8 C 11.3 km/h
1299 25-05-2020 12:10:00 16.7 C 10.52 g/m*3 16.7 C 8.1 km/h
1300 25-05-2020 12:15:00 16.9 C 10.64 g/m*3 16.9 C 9.7 km/h
Sensor: Nr:Datum:Temp:Abs-Feuchte:Windchill:Wind:
Aussen-T/F 1301 25-05-2020 12:20:00 17.1 C 10.48 g/m*3 17.1 C 12.9 km/h
1302 25-05-2020 12:25:00 17.2 C 10.54 g/m*3 17.2 C 9.7 km/h
1303 25-05-2020 12:30:00 17.3 C 10.61 g/m*3 17.3 C 9.7 km/h
1304 25-05-2020 12:35:00 17.3 C 10.61 g/m*3 17.3 C 8.1 km/h
1305 25-05-2020 12:40:00 17.3 C 10.46 g/m*3 17.3 C 9.7 km/h
1306 25-05-2020 12:45:00 17.1 C 10.34 g/m*3 17.1 C 19.3 km/h
1307 25-05-2020 12:50:00 17.1 C 10.48 g/m*3 17.1 C 19.3 km/h
1308 25-05-2020 12:55:00 17.1 C 10.34 g/m*3 17.1 C 9.7 km/h
1309 25-05-2020 13:00:00 17.2 C 10.4 g/m*3 17.2 C 9.7 km/h
1310 25-05-2020 13:05:00 17.3 C 10.31 g/m*3 17.3 C 11.3 km/h
1311 25-05-2020 13:10:00 17.4 C 10.37 g/m*3 17.4 C 11.3 km/h
1312 25-05-2020 13:15:00 17.5 C 10.44 g/m*3 17.5 C 8.1 km/h
1313 25-05-2020 13:20:00 17.7 C 10.56 g/m*3 17.7 C 8.1 km/h
1314 25-05-2020 13:25:00 17.8 C 10.47 g/m*3 17.8 C 8.1 km/h
1315 25-05-2020 13:30:00 17.8 C 10.32 g/m*3 17.8 C 8.1 km/h
1316 25-05-2020 13:35:00 17.7 C 10.41 g/m*3 17.7 C 9.7 km/h
1317 25-05-2020 13:40:00 17.5 C 10.14 g/m*3 17.5 C 8.1 km/h
1318 25-05-2020 13:45:00 17.5 C 10.44 g/m*3 17.5 C 8.1 km/h
1319 25-05-2020 13:50:00 17.6 C 10.2 g/m*3 17.6 C 9.7 km/h
1320 25-05-2020 13:55:00 17.8 C 10.47 g/m*3 17.8 C 16.1 km/h
1321 25-05-2020 14:00:00 17.9 C 10.23 g/m*3 17.9 C 9.7 km/h
1322 25-05-2020 14:05:00 18.2 C 10.41 g/m*3 18.2 C 9.7 km/h
1323 25-05-2020 14:10:00 18.2 C 9.95 g/m*3 18.2 C 9.7 km/h
1324 25-05-2020 14:15:00 18.1 C 10.04 g/m*3 18.1 C 8.1 km/h
1325 25-05-2020 14:20:00 17.9 C 10.08 g/m*3 17.9 C 12.9 km/h
Sensor: Nr:Datum:Temp:Abs-Feuchte:Windchill:Wind:
Aussen-T/F 1326 25-05-2020 14:25:00 17.8 C 10.02 g/m*3 17.8 C 16.1 km/h
1327 25-05-2020 14:30:00 17.8 C 10.17 g/m*3 17.8 C 4.8 km/h
1328 25-05-2020 14:35:00 17.9 C 10.23 g/m*3 17.9 C 11.3 km/h
1329 25-05-2020 14:40:00 18.2 C 10.26 g/m*3 18.2 C 17.7 km/h
1330 25-05-2020 14:45:00 18.2 C 10.26 g/m*3 18.2 C 11.3 km/h
1331 25-05-2020 14:50:00 18.2 C 10.26 g/m*3 18.2 C 9.7 km/h
1332 25-05-2020 14:55:00 18.1 C 10.2 g/m*3 18.1 C 11.3 km/h
1333 25-05-2020 15:00:00 18.1 C 10.2 g/m*3 18.1 C 6.4 km/h
1334 25-05-2020 15:05:00 18.2 C 10.1 g/m*3 18.2 C 14.5 km/h
1335 25-05-2020 15:10:00 18.2 C 10.1 g/m*3 18.2 C 12.9 km/h
1336 25-05-2020 15:15:00 18.3 C 10.32 g/m*3 18.3 C 12.9 km/h
1337 25-05-2020 15:20:00 18.4 C 10.22 g/m*3 18.4 C 12.9 km/h
1338 25-05-2020 15:25:00 18.6 C 10.35 g/m*3 18.6 C 6.4 km/h
1339 25-05-2020 15:30:00 18.7 C 10.09 g/m*3 18.7 C 12.9 km/h
1340 25-05-2020 15:35:00 18.6 C 10.03 g/m*3 18.6 C 11.3 km/h
1341 25-05-2020 15:40:00 18.4 C 10.07 g/m*3 18.4 C 11.3 km/h
1342 25-05-2020 15:45:00 18.5 C 10.13 g/m*3 18.5 C 12.9 km/h
1343 25-05-2020 15:50:00 18.8 C 10.31 g/m*3 18.8 C 16.1 km/h
1344 25-05-2020 15:55:00 19.1 C 10.33 g/m*3 19.1 C 9.7 km/h
1345 25-05-2020 16:00:00 19.1 C 10.16 g/m*3 19.1 C 11.3 km/h
1346 25-05-2020 16:05:00 19.1 C 10.16 g/m*3 19.1 C 14.5 km/h
1347 25-05-2020 16:10:00 19.3 C 10.28 g/m*3 19.3 C 11.3 km/h
1348 25-05-2020 16:15:00 19.5 C 10.57 g/m*3 19.5 C 11.3 km/h
1349 25-05-2020 16:20:00 19.9 C 10.31 g/m*3 19.9 C 17.7 km/h
1350 25-05-2020 16:25:00 20 C 10.2 g/m*3 20 C 16.1 km/h
Sensor: Nr:Datum:Temp:Abs-Feuchte:Windchill:Wind:
Aussen-T/F 1351 25-05-2020 16:30:00 20.1 C 10.08 g/m*3 20.1 C 14.5 km/h
1352 25-05-2020 16:35:00 20.2 C 10.14 g/m*3 20.2 C 16.1 km/h
1353 25-05-2020 16:40:00 20.2 C 9.97 g/m*3 20.2 C 19.3 km/h
1354 25-05-2020 16:45:00 20.2 C 9.79 g/m*3 20.2 C 17.7 km/h
1355 25-05-2020 16:50:00 19.9 C 9.97 g/m*3 19.9 C 20.9 km/h
1356 25-05-2020 16:55:00 19.8 C 10.08 g/m*3 19.8 C 9.7 km/h
1357 25-05-2020 17:00:00 20.1 C 10.6 g/m*3 20.1 C 11.3 km/h
1358 25-05-2020 17:05:00 20.7 C 10.44 g/m*3 20.7 C 11.3 km/h
1359 25-05-2020 17:10:00 21.1 C 10.32 g/m*3 21.1 C 14.5 km/h
1360 25-05-2020 17:15:00 21.2 C 10.19 g/m*3 21.2 C 16.1 km/h
1361 25-05-2020 17:20:00 20.9 C 10.2 g/m*3 20.9 C 14.5 km/h
1362 25-05-2020 17:25:00 20.4 C 10.08 g/m*3 20.4 C 9.7 km/h
1363 25-05-2020 17:30:00 20.6 C 10.2 g/m*3 20.6 C 11.3 km/h
1364 25-05-2020 17:35:00 20.6 C 10.2 g/m*3 20.6 C 9.7 km/h
1365 25-05-2020 17:40:00 20.1 C 10.26 g/m*3 20.1 C 11.3 km/h
1366 25-05-2020 17:45:00 19.8 C 10.08 g/m*3 19.8 C 12.9 km/h
1367 25-05-2020 17:50:00 19.8 C 10.42 g/m*3 19.8 C 6.4 km/h
1368 25-05-2020 17:55:00 20.3 C 10.38 g/m*3 20.3 C 19.3 km/h
1369 25-05-2020 18:00:00 20.2 C 10.32 g/m*3 20.2 C 16.1 km/h
1370 25-05-2020 18:05:00 20.3 C 10.2 g/m*3 20.3 C 14.5 km/h
1371 25-05-2020 18:10:00 20.6 C 10.38 g/m*3 20.6 C 9.7 km/h
1372 25-05-2020 18:15:00 20.8 C 10.32 g/m*3 20.8 C 11.3 km/h
1373 25-05-2020 18:20:00 21.1 C 10.32 g/m*3 21.1 C 11.3 km/h
1374 25-05-2020 18:25:00 21.2 C 10.01 g/m*3 21.2 C 9.7 km/h
1375 25-05-2020 18:30:00 21.2 C 10.19 g/m*3 21.2 C 9.7 km/h
Sensor: Nr:Datum:Temp:Abs-Feuchte:Windchill:Wind:
Aussen-T/F 1376 25-05-2020 18:35:00 20.8 C 9.96 g/m*3 20.8 C 11.3 km/h
1377 25-05-2020 18:40:00 20.1 C 9.73 g/m*3 20.1 C 12.9 km/h
1378 25-05-2020 18:45:00 19.4 C 9.84 g/m*3 19.4 C 9.7 km/h
1379 25-05-2020 18:50:00 19.4 C 10.18 g/m*3 19.4 C 9.7 km/h
1380 25-05-2020 18:55:00 19.9 C 10.14 g/m*3 19.9 C 9.7 km/h
1381 25-05-2020 19:00:00 20.5 C 10.32 g/m*3 20.5 C 6.4 km/h
1382 25-05-2020 19:05:00 20.8 C 9.96 g/m*3 20.8 C 9.7 km/h
1383 25-05-2020 19:10:00 20.8 C 9.6 g/m*3 20.8 C 16.1 km/h
1384 25-05-2020 19:15:00 20.6 C 9.66 g/m*3 20.6 C 11.3 km/h
1385 25-05-2020 19:20:00 20.3 C 9.5 g/m*3 20.3 C 17.7 km/h
1386 25-05-2020 19:25:00 20.1 C 9.39 g/m*3 20.1 C 16.1 km/h
1387 25-05-2020 19:30:00 19.9 C 9.45 g/m*3 19.9 C 11.3 km/h
1388 25-05-2020 19:35:00 19.8 C 9.57 g/m*3 19.8 C 11.3 km/h
1389 25-05-2020 19:40:00 19.8 C 9.57 g/m*3 19.8 C 9.7 km/h
1390 25-05-2020 19:45:00 19.6 C 9.45 g/m*3 19.6 C 11.3 km/h
1391 25-05-2020 19:50:00 19.2 C 9.4 g/m*3 19.2 C 11.3 km/h
1392 25-05-2020 19:55:00 19 C 9.61 g/m*3 19 C 9.7 km/h
1393 25-05-2020 20:00:00 18.9 C 9.56 g/m*3 18.9 C 6.4 km/h
1394 25-05-2020 20:05:00 18.9 C 9.4 g/m*3 18.9 C 6.4 km/h
1395 25-05-2020 20:10:00 19 C 9.45 g/m*3 19 C 8.1 km/h
1396 25-05-2020 20:15:00 19.1 C 9.51 g/m*3 19.1 C 4.8 km/h
1397 25-05-2020 20:20:00 19.1 C 9.34 g/m*3 19.1 C 8.1 km/h
1398 25-05-2020 20:25:00 19.1 C 9.51 g/m*3 19.1 C 3.2 km/h
1399 25-05-2020 20:30:00 19.1 C 9.34 g/m*3 19.1 C 1.6 km/h
1400 25-05-2020 20:35:00 18.9 C 9.23 g/m*3 18.9 C 9.7 km/h
Sensor: Nr:Datum:Temp:Abs-Feuchte:Windchill:Wind:
Aussen-T/F 1401 25-05-2020 20:40:00 18.7 C 9.29 g/m*3 18.7 C 6.4 km/h
1402 25-05-2020 20:45:00 18.5 C 9.33 g/m*3 18.5 C 6.4 km/h
1403 25-05-2020 20:50:00 18.3 C 9.38 g/m*3 18.3 C 3.2 km/h
1404 25-05-2020 20:55:00 18.2 C 9.17 g/m*3 18.2 C 11.3 km/h
1405 25-05-2020 21:00:00 18.1 C 9.27 g/m*3 18.1 C 3.2 km/h
1406 25-05-2020 21:05:00 17.8 C 9.41 g/m*3 17.8 C 3.2 km/h
1407 25-05-2020 21:10:00 17.6 C 9 g/m*3 17.6 C 3.2 km/h
1408 25-05-2020 21:15:00 17.4 C 9.34 g/m*3 17.4 C 1.6 km/h
1409 25-05-2020 21:20:00 17.1 C 9.32 g/m*3 17.1 C 0 km/h
1410 25-05-2020 21:25:00 16.7 C 9.24 g/m*3 16.7 C 0 km/h
1411 25-05-2020 21:30:00 16.4 C 9.21 g/m*3 16.4 C 0 km/h
1412 25-05-2020 21:35:00 16.1 C 9.32 g/m*3 16.1 C 0 km/h
1413 25-05-2020 21:40:00 15.7 C 9.23 g/m*3 15.7 C 1.6 km/h
1414 25-05-2020 21:45:00 15.3 C 9.14 g/m*3 15.3 C 0 km/h
1415 25-05-2020 21:50:00 15.1 C 9.16 g/m*3 15.1 C 0 km/h
1416 25-05-2020 21:55:00 14.8 C 9.12 g/m*3 14.8 C 0 km/h
1417 25-05-2020 22:00:00 14.7 C 9.19 g/m*3 14.7 C 3.2 km/h
1418 25-05-2020 22:05:00 14.5 C 9.08 g/m*3 14.5 C 1.6 km/h
1419 25-05-2020 22:10:00 14.3 C 9.09 g/m*3 14.3 C 0 km/h
1420 25-05-2020 22:15:00 14.1 C 9.1 g/m*3 14.1 C 3.2 km/h
1421 25-05-2020 22:20:00 14.1 C 9.1 g/m*3 14.1 C 1.6 km/h
1422 25-05-2020 22:25:00 14 C 9.17 g/m*3 14 C 3.2 km/h
1423 25-05-2020 22:30:00 13.9 C 9.11 g/m*3 13.9 C 0 km/h
1424 25-05-2020 22:35:00 13.8 C 9.06 g/m*3 13.8 C 0 km/h
1425 25-05-2020 22:40:00 13.8 C 9.06 g/m*3 13.8 C 0 km/h
Sensor: Nr:Datum:Temp:Abs-Feuchte:Windchill:Wind:
Aussen-T/F 1426 25-05-2020 22:45:00 13.7 C 9.12 g/m*3 13.7 C 0 km/h
1427 25-05-2020 22:50:00 13.5 C 9.12 g/m*3 13.5 C 0 km/h
1428 25-05-2020 22:55:00 13.3 C 9.01 g/m*3 13.3 C 0 km/h
1429 25-05-2020 23:00:00 13.1 C 8.9 g/m*3 13.1 C 1.6 km/h
1430 25-05-2020 23:05:00 12.9 C 8.9 g/m*3 12.9 C 0 km/h
1431 25-05-2020 23:10:00 12.9 C 8.9 g/m*3 12.9 C 0 km/h
1432 25-05-2020 23:15:00 12.8 C 8.85 g/m*3 12.8 C 0 km/h
1433 25-05-2020 23:20:00 12.7 C 8.91 g/m*3 12.7 C 0 km/h
1434 25-05-2020 23:25:00 12.6 C 8.85 g/m*3 12.6 C 0 km/h
1435 25-05-2020 23:30:00 12.5 C 8.91 g/m*3 12.5 C 0 km/h
1436 25-05-2020 23:35:00 12.3 C 8.8 g/m*3 12.3 C 0 km/h
1437 25-05-2020 23:40:00 12.2 C 8.85 g/m*3 12.2 C 0 km/h
1438 25-05-2020 23:45:00 12.1 C 8.79 g/m*3 12.1 C 0 km/h
1439 25-05-2020 23:50:00 11.9 C 8.68 g/m*3 11.9 C 0 km/h
1440 25-05-2020 23:55:00 11.8 C 8.74 g/m*3 11.8 C 0 km/h
1441 26-05-2020 00:00:00 11.7 C 8.68 g/m*3 11.7 C 0 km/h
1442 26-05-2020 00:05:00 11.6 C 8.73 g/m*3 11.6 C 0 km/h
1443 26-05-2020 00:10:00 11.4 C 8.62 g/m*3 11.4 C 0 km/h
1444 26-05-2020 00:15:00 11.3 C 8.57 g/m*3 11.3 C 0 km/h
1445 26-05-2020 00:20:00 11.2 C 8.62 g/m*3 11.2 C 0 km/h
1446 26-05-2020 00:25:00 11.1 C 8.56 g/m*3 11.1 C 0 km/h
1447 26-05-2020 00:30:00 10.9 C 8.55 g/m*3 10.9 C 0 km/h
1448 26-05-2020 00:35:00 10.8 C 8.5 g/m*3 10.8 C 0 km/h
1449 26-05-2020 00:40:00 10.8 C 8.5 g/m*3 10.8 C 0 km/h
1450 26-05-2020 00:45:00 10.7 C 8.45 g/m*3 10.7 C 0 km/h
Sensor: Nr:Datum:Temp:Abs-Feuchte:Windchill:Wind:
Aussen-T/F 1451 26-05-2020 00:50:00 10.6 C 8.49 g/m*3 10.6 C 0 km/h
1452 26-05-2020 00:55:00 10.4 C 8.38 g/m*3 10.4 C 0 km/h
1453 26-05-2020 01:00:00 10.3 C 8.33 g/m*3 10.3 C 0 km/h
1454 26-05-2020 01:05:00 10.3 C 8.43 g/m*3 10.3 C 0 km/h
1455 26-05-2020 01:10:00 10.2 C 8.37 g/m*3 10.2 C 0 km/h
1456 26-05-2020 01:15:00 10.1 C 8.32 g/m*3 10.1 C 0 km/h
1457 26-05-2020 01:20:00 10 C 8.27 g/m*3 10 C 0 km/h
1458 26-05-2020 01:25:00 9.9 C 8.31 g/m*3 9.9 C 0 km/h
1459 26-05-2020 01:30:00 9.8 C 8.26 g/m*3 9.8 C 0 km/h
1460 26-05-2020 01:35:00 9.7 C 8.2 g/m*3 9.7 C 0 km/h
1461 26-05-2020 01:40:00 9.6 C 8.15 g/m*3 9.6 C 0 km/h
1462 26-05-2020 01:45:00 9.4 C 8.05 g/m*3 9.4 C 0 km/h
1463 26-05-2020 01:50:00 9.4 C 8.14 g/m*3 9.4 C 0 km/h
1464 26-05-2020 01:55:00 9.3 C 8.09 g/m*3 9.3 C 0 km/h
1465 26-05-2020 02:00:00 9.2 C 8.04 g/m*3 9.2 C 0 km/h
1466 26-05-2020 02:05:00 9.2 C 8.04 g/m*3 9.2 C 0 km/h
1467 26-05-2020 02:10:00 9 C 7.93 g/m*3 9 C 0 km/h
1468 26-05-2020 02:15:00 8.9 C 7.88 g/m*3 8.9 C 0 km/h
1469 26-05-2020 02:20:00 8.8 C 7.92 g/m*3 8.8 C 0 km/h
1470 26-05-2020 02:25:00 8.8 C 7.92 g/m*3 8.8 C 0 km/h
1471 26-05-2020 02:30:00 8.7 C 7.87 g/m*3 8.7 C 0 km/h
1472 26-05-2020 02:35:00 8.6 C 7.82 g/m*3 8.6 C 0 km/h
1473 26-05-2020 02:40:00 8.6 C 7.91 g/m*3 8.6 C 0 km/h
1474 26-05-2020 02:45:00 8.5 C 7.85 g/m*3 8.5 C 0 km/h
1475 26-05-2020 02:50:00 8.4 C 7.8 g/m*3 8.4 C 0 km/h
Sensor: Nr:Datum:Temp:Abs-Feuchte:Windchill:Wind:
Aussen-T/F 1476 26-05-2020 02:55:00 8.4 C 7.8 g/m*3 8.4 C 0 km/h
1477 26-05-2020 03:00:00 8.3 C 7.75 g/m*3 8.3 C 0 km/h
1478 26-05-2020 03:05:00 8.3 C 7.75 g/m*3 8.3 C 0 km/h
1479 26-05-2020 03:10:00 8.2 C 7.7 g/m*3 8.2 C 0 km/h
1480 26-05-2020 03:15:00 8.2 C 7.79 g/m*3 8.2 C 0 km/h
1481 26-05-2020 03:20:00 8.1 C 7.74 g/m*3 8.1 C 0 km/h
1482 26-05-2020 03:25:00 8.2 C 7.79 g/m*3 8.2 C 0 km/h
1483 26-05-2020 03:30:00 8.2 C 7.79 g/m*3 8.2 C 0 km/h
1484 26-05-2020 03:35:00 8.1 C 7.74 g/m*3 8.1 C 0 km/h
1485 26-05-2020 03:40:00 8 C 7.69 g/m*3 8 C 0 km/h
1486 26-05-2020 03:45:00 8.1 C 7.74 g/m*3 8.1 C 0 km/h
1487 26-05-2020 03:50:00 8 C 7.69 g/m*3 8 C 0 km/h
1488 26-05-2020 03:55:00 7.9 C 7.64 g/m*3 7.9 C 0 km/h
1489 26-05-2020 04:00:00 7.8 C 7.59 g/m*3 7.8 C 0 km/h
1490 26-05-2020 04:05:00 7.8 C 7.59 g/m*3 7.8 C 0 km/h
1491 26-05-2020 04:10:00 7.7 C 7.62 g/m*3 7.7 C 0 km/h
1492 26-05-2020 04:15:00 7.7 C 7.62 g/m*3 7.7 C 0 km/h
1493 26-05-2020 04:20:00 7.7 C 7.62 g/m*3 7.7 C 0 km/h
1494 26-05-2020 04:25:00 7.7 C 7.62 g/m*3 7.7 C 0 km/h
1495 26-05-2020 04:30:00 7.8 C 7.67 g/m*3 7.8 C 0 km/h
1496 26-05-2020 04:35:00 7.8 C 7.67 g/m*3 7.8 C 0 km/h
1497 26-05-2020 04:40:00 7.7 C 7.62 g/m*3 7.7 C 0 km/h
1498 26-05-2020 04:45:00 7.6 C 7.57 g/m*3 7.6 C 0 km/h
1499 26-05-2020 04:50:00 7.6 C 7.57 g/m*3 7.6 C 0 km/h
1500 26-05-2020 04:55:00 7.7 C 7.62 g/m*3 7.7 C 0 km/h
Sensor: Nr:Datum:Temp:Abs-Feuchte:Windchill:Wind:
Aussen-T/F 1501 26-05-2020 05:00:00 7.6 C 7.57 g/m*3 7.6 C 0 km/h
1502 26-05-2020 05:05:00 7.5 C 7.52 g/m*3 7.5 C 0 km/h
1503 26-05-2020 05:10:00 7.4 C 7.48 g/m*3 7.4 C 0 km/h
1504 26-05-2020 05:15:00 7.4 C 7.48 g/m*3 7.4 C 0 km/h
1505 26-05-2020 05:20:00 7.3 C 7.43 g/m*3 7.3 C 0 km/h
1506 26-05-2020 05:25:00 7.3 C 7.43 g/m*3 7.3 C 0 km/h
1507 26-05-2020 05:30:00 7.3 C 7.43 g/m*3 7.3 C 0 km/h
1508 26-05-2020 05:35:00 7.3 C 7.43 g/m*3 7.3 C 0 km/h
1509 26-05-2020 05:40:00 7.3 C 7.51 g/m*3 7.3 C 0 km/h
1510 26-05-2020 05:45:00 7.3 C 7.51 g/m*3 7.3 C 0 km/h
1511 26-05-2020 05:50:00 7.2 C 7.46 g/m*3 7.2 C 0 km/h
1512 26-05-2020 05:55:00 7.2 C 7.46 g/m*3 7.2 C 0 km/h
1513 26-05-2020 06:00:00 7.3 C 7.51 g/m*3 7.3 C 0 km/h
1514 26-05-2020 06:05:00 7.3 C 7.51 g/m*3 7.3 C 0 km/h
1515 26-05-2020 06:10:00 7.3 C 7.51 g/m*3 7.3 C 0 km/h
1516 26-05-2020 06:15:00 7.3 C 7.51 g/m*3 7.3 C 0 km/h
1517 26-05-2020 06:20:00 7.3 C 7.51 g/m*3 7.3 C 0 km/h
1518 26-05-2020 06:25:00 7.3 C 7.51 g/m*3 7.3 C 0 km/h
1519 26-05-2020 06:30:00 7.3 C 7.51 g/m*3 7.3 C 0 km/h
1520 26-05-2020 06:35:00 7.3 C 7.51 g/m*3 7.3 C 0 km/h
1521 26-05-2020 06:40:00 7.3 C 7.51 g/m*3 7.3 C 0 km/h
1522 26-05-2020 06:45:00 7.3 C 7.51 g/m*3 7.3 C 0 km/h
1523 26-05-2020 06:50:00 7.3 C 7.51 g/m*3 7.3 C 0 km/h
1524 26-05-2020 06:55:00 7.3 C 7.51 g/m*3 7.3 C 0 km/h
1525 26-05-2020 07:00:00 7.4 C 7.55 g/m*3 7.4 C 0 km/h
Sensor: Nr:Datum:Temp:Abs-Feuchte:Windchill:Wind:
Aussen-T/F 1526 26-05-2020 07:05:00 7.4 C 7.55 g/m*3 7.4 C 0 km/h
1527 26-05-2020 07:10:00 7.5 C 7.6 g/m*3 7.5 C 0 km/h
1528 26-05-2020 07:15:00 7.6 C 7.65 g/m*3 7.6 C 0 km/h
1529 26-05-2020 07:20:00 7.6 C 7.65 g/m*3 7.6 C 0 km/h
1530 26-05-2020 07:25:00 7.7 C 7.7 g/m*3 7.7 C 0 km/h
1531 26-05-2020 07:30:00 7.7 C 7.78 g/m*3 7.7 C 0 km/h
1532 26-05-2020 07:35:00 7.8 C 7.83 g/m*3 7.8 C 0 km/h
1533 26-05-2020 07:40:00 7.9 C 7.89 g/m*3 7.9 C 0 km/h
1534 26-05-2020 07:45:00 8 C 7.94 g/m*3 8 C 0 km/h
1535 26-05-2020 07:50:00 8.1 C 7.99 g/m*3 8.1 C 0 km/h
1536 26-05-2020 07:55:00 8.2 C 8.04 g/m*3 8.2 C 0 km/h
1537 26-05-2020 08:00:00 8.2 C 8.04 g/m*3 8.2 C 0 km/h
1538 26-05-2020 08:05:00 8.3 C 8.09 g/m*3 8.3 C 0 km/h
1539 26-05-2020 08:10:00 8.4 C 8.14 g/m*3 8.4 C 0 km/h
1540 26-05-2020 08:15:00 8.5 C 8.2 g/m*3 8.5 C 0 km/h
1541 26-05-2020 08:20:00 8.6 C 8.25 g/m*3 8.6 C 0 km/h
1542 26-05-2020 08:25:00 8.7 C 8.3 g/m*3 8.7 C 0 km/h
1543 26-05-2020 08:30:00 8.8 C 8.36 g/m*3 8.8 C 0 km/h
1544 26-05-2020 08:35:00 9 C 8.46 g/m*3 9 C 0 km/h
1545 26-05-2020 08:40:00 9.1 C 8.52 g/m*3 9.1 C 0 km/h
1546 26-05-2020 08:45:00 9.3 C 8.63 g/m*3 9.3 C 0 km/h
1547 26-05-2020 08:50:00 9.4 C 8.68 g/m*3 9.4 C 0 km/h
1548 26-05-2020 08:55:00 9.6 C 8.79 g/m*3 9.6 C 0 km/h
1549 26-05-2020 09:00:00 9.7 C 8.85 g/m*3 9.7 C 0 km/h
1550 26-05-2020 09:05:00 9.8 C 8.91 g/m*3 9.8 C 0 km/h
Sensor: Nr:Datum:Temp:Abs-Feuchte:Windchill:Wind:
Aussen-T/F 1551 26-05-2020 09:10:00 9.9 C 8.96 g/m*3 9.9 C 0 km/h
1552 26-05-2020 09:15:00 10.1 C 9.08 g/m*3 10.1 C 0 km/h
1553 26-05-2020 09:20:00 10.3 C 9.19 g/m*3 10.3 C 0 km/h
1554 26-05-2020 09:25:00 10.4 C 9.25 g/m*3 10.4 C 0 km/h
1555 26-05-2020 09:30:00 10.5 C 9.31 g/m*3 10.5 C 0 km/h
1556 26-05-2020 09:35:00 10.6 C 9.37 g/m*3 10.6 C 0 km/h
1557 26-05-2020 09:40:00 10.7 C 9.43 g/m*3 10.7 C 0 km/h
1558 26-05-2020 09:45:00 10.8 C 9.39 g/m*3 10.8 C 0 km/h
1559 26-05-2020 09:50:00 11 C 9.51 g/m*3 11 C 0 km/h
1560 26-05-2020 09:55:00 11.2 C 9.53 g/m*3 11.2 C 1.6 km/h
1561 26-05-2020 10:00:00 11.6 C 9.77 g/m*3 11.6 C 1.6 km/h
1562 26-05-2020 10:05:00 12 C 9.91 g/m*3 12 C 1.6 km/h
1563 26-05-2020 10:10:00 12.2 C 9.82 g/m*3 12.2 C 1.6 km/h
1564 26-05-2020 10:15:00 12.7 C 9.91 g/m*3 12.7 C 3.2 km/h
1565 26-05-2020 10:20:00 13.3 C 9.94 g/m*3 13.3 C 4.8 km/h
1566 26-05-2020 10:25:00 13.8 C 9.89 g/m*3 13.8 C 1.6 km/h
1567 26-05-2020 10:30:00 14.3 C 9.83 g/m*3 14.3 C 4.8 km/h
1568 26-05-2020 10:35:00 14.9 C 9.56 g/m*3 14.9 C 8.1 km/h
1569 26-05-2020 10:40:00 15.4 C 9.2 g/m*3 15.4 C 9.7 km/h
1570 26-05-2020 10:45:00 15.7 C 9.1 g/m*3 15.7 C 12.9 km/h
1571 26-05-2020 10:50:00 15.8 C 9.29 g/m*3 15.8 C 3.2 km/h
1572 26-05-2020 10:55:00 15.9 C 9.21 g/m*3 15.9 C 1.6 km/h
1573 26-05-2020 11:00:00 16 C 9.26 g/m*3 16 C 11.3 km/h
1574 26-05-2020 11:05:00 16.3 C 9.3 g/m*3 16.3 C 11.3 km/h
1575 26-05-2020 11:10:00 16.4 C 9.21 g/m*3 16.4 C 8.1 km/h
Sensor: Nr:Datum:Temp:Abs-Feuchte:Windchill:Wind:
Aussen-T/F 1576 26-05-2020 11:15:00 16.4 C 9.35 g/m*3 16.4 C 4.8 km/h
1577 26-05-2020 11:20:00 16.6 C 9.32 g/m*3 16.6 C 3.2 km/h
1578 26-05-2020 11:25:00 16.8 C 8.86 g/m*3 16.8 C 12.9 km/h
1579 26-05-2020 11:30:00 17 C 8.97 g/m*3 17 C 8.1 km/h
1580 26-05-2020 11:35:00 17.2 C 9.52 g/m*3 17.2 C 0 km/h
1581 26-05-2020 11:40:00 17.3 C 8.99 g/m*3 17.3 C 11.3 km/h
1582 26-05-2020 11:45:00 17.3 C 8.69 g/m*3 17.3 C 6.4 km/h
1583 26-05-2020 11:50:00 17.3 C 9.13 g/m*3 17.3 C 6.4 km/h
1584 26-05-2020 11:55:00 17.4 C 8.89 g/m*3 17.4 C 6.4 km/h
1585 26-05-2020 12:00:00 17.6 C 9 g/m*3 17.6 C 9.7 km/h
1586 26-05-2020 12:05:00 17.7 C 8.9 g/m*3 17.7 C 8.1 km/h
1587 26-05-2020 12:10:00 17.8 C 8.65 g/m*3 17.8 C 6.4 km/h
1588 26-05-2020 12:15:00 17.8 C 8.95 g/m*3 17.8 C 4.8 km/h
1589 26-05-2020 12:20:00 17.8 C 8.65 g/m*3 17.8 C 3.2 km/h
1590 26-05-2020 12:25:00 18.1 C 8.5 g/m*3 18.1 C 16.1 km/h
1591 26-05-2020 12:30:00 18.3 C 8.44 g/m*3 18.3 C 8.1 km/h
1592 26-05-2020 12:35:00 18.2 C 8.39 g/m*3 18.2 C 11.3 km/h
1593 26-05-2020 12:40:00 18.3 C 8.44 g/m*3 18.3 C 9.7 km/h
1594 26-05-2020 12:45:00 18.3 C 8.6 g/m*3 18.3 C 11.3 km/h
1595 26-05-2020 12:50:00 18.4 C 8.49 g/m*3 18.4 C 8.1 km/h
1596 26-05-2020 12:55:00 18.3 C 8.29 g/m*3 18.3 C 6.4 km/h
1597 26-05-2020 13:00:00 18.4 C 8.65 g/m*3 18.4 C 6.4 km/h
1598 26-05-2020 13:05:00 18.5 C 8.7 g/m*3 18.5 C 8.1 km/h
1599 26-05-2020 13:10:00 18.6 C 8.59 g/m*3 18.6 C 11.3 km/h
1600 26-05-2020 13:15:00 18.9 C 8.59 g/m*3 18.9 C 12.9 km/h
Sensor: Nr:Datum:Temp:Abs-Feuchte:Windchill:Wind:
Aussen-T/F 1601 26-05-2020 13:20:00 19 C 8.47 g/m*3 19 C 16.1 km/h
1602 26-05-2020 13:25:00 18.9 C 8.26 g/m*3 18.9 C 11.3 km/h
1603 26-05-2020 13:30:00 18.9 C 8.26 g/m*3 18.9 C 9.7 km/h
1604 26-05-2020 13:35:00 18.9 C 8.26 g/m*3 18.9 C 8.1 km/h
1605 26-05-2020 13:40:00 19.1 C 8.52 g/m*3 19.1 C 11.3 km/h
1606 26-05-2020 13:45:00 19.2 C 8.57 g/m*3 19.2 C 8.1 km/h
1607 26-05-2020 13:50:00 19.2 C 8.24 g/m*3 19.2 C 11.3 km/h
1608 26-05-2020 13:55:00 19.1 C 8.2 g/m*3 19.1 C 11.3 km/h
1609 26-05-2020 14:00:00 19.2 C 8.41 g/m*3 19.2 C 12.9 km/h
1610 26-05-2020 14:05:00 19.3 C 8.29 g/m*3 19.3 C 14.5 km/h
1611 26-05-2020 14:10:00 19.4 C 8.18 g/m*3 19.4 C 8.1 km/h
1612 26-05-2020 14:15:00 19.3 C 8.29 g/m*3 19.3 C 6.4 km/h
1613 26-05-2020 14:20:00 19.3 C 8.46 g/m*3 19.3 C 8.1 km/h
1614 26-05-2020 14:25:00 19.5 C 8.56 g/m*3 19.5 C 6.4 km/h
1615 26-05-2020 14:30:00 19.8 C 8.71 g/m*3 19.8 C 14.5 km/h
1616 26-05-2020 14:35:00 20.1 C 8.69 g/m*3 20.1 C 12.9 km/h
1617 26-05-2020 14:40:00 20.3 C 8.79 g/m*3 20.3 C 8.1 km/h
1618 26-05-2020 14:45:00 20.5 C 8.72 g/m*3 20.5 C 12.9 km/h
1619 26-05-2020 14:50:00 20.6 C 8.95 g/m*3 20.6 C 11.3 km/h
1620 26-05-2020 14:55:00 20.8 C 8.69 g/m*3 20.8 C 19.3 km/h
1621 26-05-2020 15:00:00 20.8 C 8.51 g/m*3 20.8 C 11.3 km/h
1622 26-05-2020 15:05:00 20.8 C 8.87 g/m*3 20.8 C 12.9 km/h
1623 26-05-2020 15:10:00 21 C 8.61 g/m*3 21 C 8.1 km/h
1624 26-05-2020 15:15:00 21.2 C 8.71 g/m*3 21.2 C 9.7 km/h
1625 26-05-2020 15:20:00 21 C 8.79 g/m*3 21 C 11.3 km/h
Sensor: Nr:Datum:Temp:Abs-Feuchte:Windchill:Wind:
Aussen-T/F 1626 26-05-2020 15:25:00 21.2 C 8.9 g/m*3 21.2 C 8.1 km/h
1627 26-05-2020 15:30:00 21.6 C 8.72 g/m*3 21.6 C 12.9 km/h
1628 26-05-2020 15:35:00 21.8 C 8.83 g/m*3 21.8 C 11.3 km/h
1629 26-05-2020 15:40:00 22.1 C 8.78 g/m*3 22.1 C 11.3 km/h
1630 26-05-2020 15:45:00 22.1 C 8.98 g/m*3 22.1 C 12.9 km/h
1631 26-05-2020 15:50:00 22.2 C 8.83 g/m*3 22.2 C 8.1 km/h
1632 26-05-2020 15:55:00 21.9 C 8.68 g/m*3 21.9 C 9.7 km/h
1633 26-05-2020 16:00:00 21.7 C 8.77 g/m*3 21.7 C 8.1 km/h
1634 26-05-2020 16:05:00 21.8 C 8.83 g/m*3 21.8 C 14.5 km/h
1635 26-05-2020 16:10:00 21.7 C 8.77 g/m*3 21.7 C 6.4 km/h
1636 26-05-2020 16:15:00 21.9 C 8.88 g/m*3 21.9 C 14.5 km/h
1637 26-05-2020 16:20:00 22.3 C 9.08 g/m*3 22.3 C 11.3 km/h
1638 26-05-2020 16:25:00 22.6 C 8.64 g/m*3 22.6 C 8.1 km/h
1639 26-05-2020 16:30:00 22.8 C 8.94 g/m*3 22.8 C 11.3 km/h
1640 26-05-2020 16:35:00 22.7 C 9.09 g/m*3 22.7 C 12.9 km/h
1641 26-05-2020 16:40:00 22.5 C 9.19 g/m*3 22.5 C 14.5 km/h
1642 26-05-2020 16:45:00 22.2 C 9.03 g/m*3 22.2 C 4.8 km/h
1643 26-05-2020 16:50:00 21.9 C 9.46 g/m*3 21.9 C 6.4 km/h
1644 26-05-2020 16:55:00 22.1 C 9.17 g/m*3 22.1 C 6.4 km/h
1645 26-05-2020 17:00:00 22.2 C 9.03 g/m*3 22.2 C 4.8 km/h
1646 26-05-2020 17:05:00 22 C 8.93 g/m*3 22 C 6.4 km/h
1647 26-05-2020 17:10:00 22.2 C 8.83 g/m*3 22.2 C 8.1 km/h
1648 26-05-2020 17:15:00 22.5 C 9.19 g/m*3 22.5 C 14.5 km/h
1649 26-05-2020 17:20:00 22.6 C 9.24 g/m*3 22.6 C 17.7 km/h
1650 26-05-2020 17:25:00 22.4 C 8.94 g/m*3 22.4 C 11.3 km/h
Sensor: Nr:Datum:Temp:Abs-Feuchte:Windchill:Wind:
Aussen-T/F 1651 26-05-2020 17:30:00 21.9 C 9.26 g/m*3 21.9 C 8.1 km/h
1652 26-05-2020 17:35:00 22 C 9.51 g/m*3 22 C 6.4 km/h
1653 26-05-2020 17:40:00 22.6 C 9.44 g/m*3 22.6 C 6.4 km/h
1654 26-05-2020 17:45:00 23.2 C 9.36 g/m*3 23.2 C 6.4 km/h
1655 26-05-2020 17:50:00 23.4 C 9.25 g/m*3 23.4 C 6.4 km/h
1656 26-05-2020 17:55:00 23.6 C 9.57 g/m*3 23.6 C 8.1 km/h
1657 26-05-2020 18:00:00 23.6 C 9.57 g/m*3 23.6 C 8.1 km/h
1658 26-05-2020 18:05:00 23.1 C 9.1 g/m*3 23.1 C 12.9 km/h
1659 26-05-2020 18:10:00 23.1 C 9.3 g/m*3 23.1 C 9.7 km/h
1660 26-05-2020 18:15:00 22.8 C 9.14 g/m*3 22.8 C 14.5 km/h
1661 26-05-2020 18:20:00 22.4 C 9.14 g/m*3 22.4 C 12.9 km/h
1662 26-05-2020 18:25:00 22.4 C 9.53 g/m*3 22.4 C 11.3 km/h
1663 26-05-2020 18:30:00 22.8 C 9.55 g/m*3 22.8 C 8.1 km/h
1664 26-05-2020 18:35:00 23.2 C 9.15 g/m*3 23.2 C 6.4 km/h
1665 26-05-2020 18:40:00 23.3 C 9.2 g/m*3 23.3 C 4.8 km/h
1666 26-05-2020 18:45:00 23.2 C 9.36 g/m*3 23.2 C 9.7 km/h
1667 26-05-2020 18:50:00 23.1 C 9.1 g/m*3 23.1 C 9.7 km/h
1668 26-05-2020 18:55:00 22.9 C 9.2 g/m*3 22.9 C 9.7 km/h
1669 26-05-2020 19:00:00 22.7 C 8.89 g/m*3 22.7 C 12.9 km/h
1670 26-05-2020 19:05:00 22.3 C 8.89 g/m*3 22.3 C 9.7 km/h
1671 26-05-2020 19:10:00 22.3 C 9.28 g/m*3 22.3 C 4.8 km/h
1672 26-05-2020 19:15:00 22.3 C 8.89 g/m*3 22.3 C 6.4 km/h
1673 26-05-2020 19:20:00 22.2 C 9.03 g/m*3 22.2 C 9.7 km/h
1674 26-05-2020 19:25:00 21.9 C 8.88 g/m*3 21.9 C 8.1 km/h
1675 26-05-2020 19:30:00 21.7 C 8.77 g/m*3 21.7 C 8.1 km/h
Sensor: Nr:Datum:Temp:Abs-Feuchte:Windchill:Wind:
Aussen-T/F 1676 26-05-2020 19:35:00 21.6 C 8.72 g/m*3 21.6 C 11.3 km/h
1677 26-05-2020 19:40:00 21.3 C 8.76 g/m*3 21.3 C 11.3 km/h
1678 26-05-2020 19:45:00 21.1 C 8.84 g/m*3 21.1 C 8.1 km/h
1679 26-05-2020 19:50:00 21.1 C 9.03 g/m*3 21.1 C 9.7 km/h
1680 26-05-2020 19:55:00 21.2 C 8.9 g/m*3 21.2 C 6.4 km/h
1681 26-05-2020 20:00:00 21 C 9.16 g/m*3 21 C 6.4 km/h
1682 26-05-2020 20:05:00 21 C 8.79 g/m*3 21 C 4.8 km/h
1683 26-05-2020 20:10:00 20.7 C 8.82 g/m*3 20.7 C 11.3 km/h
1684 26-05-2020 20:15:00 20.6 C 8.95 g/m*3 20.6 C 9.7 km/h
1685 26-05-2020 20:20:00 20.4 C 8.67 g/m*3 20.4 C 8.1 km/h
1686 26-05-2020 20:25:00 20.3 C 8.79 g/m*3 20.3 C 6.4 km/h
1687 26-05-2020 20:30:00 20.2 C 9.27 g/m*3 20.2 C 4.8 km/h
1688 26-05-2020 20:35:00 20 C 9.51 g/m*3 20 C 1.6 km/h
1689 26-05-2020 20:40:00 19.8 C 9.57 g/m*3 19.8 C 0 km/h
1690 26-05-2020 20:45:00 19.6 C 9.62 g/m*3 19.6 C 0 km/h
1691 26-05-2020 20:50:00 19.2 C 9.73 g/m*3 19.2 C 3.2 km/h
1692 26-05-2020 20:55:00 18.8 C 9.5 g/m*3 18.8 C 1.6 km/h
1693 26-05-2020 21:00:00 18.3 C 9.54 g/m*3 18.3 C 1.6 km/h
1694 26-05-2020 21:05:00 17.9 C 9.47 g/m*3 17.9 C 1.6 km/h
1695 26-05-2020 21:10:00 17.5 C 9.39 g/m*3 17.5 C 4.8 km/h
1696 26-05-2020 21:15:00 17.2 C 9.23 g/m*3 17.2 C 4.8 km/h
1697 26-05-2020 21:20:00 16.8 C 9.15 g/m*3 16.8 C 3.2 km/h
1698 26-05-2020 21:25:00 16.6 C 9.04 g/m*3 16.6 C 3.2 km/h
1699 26-05-2020 21:30:00 16.2 C 8.83 g/m*3 16.2 C 3.2 km/h
1700 26-05-2020 21:35:00 15.9 C 8.67 g/m*3 15.9 C 3.2 km/h
Sensor: Nr:Datum:Temp:Abs-Feuchte:Windchill:Wind:
Aussen-T/F 1701 26-05-2020 21:40:00 15.7 C 8.7 g/m*3 15.7 C 4.8 km/h
1702 26-05-2020 21:45:00 15.6 C 8.64 g/m*3 15.6 C 4.8 km/h
1703 26-05-2020 21:50:00 15.3 C 8.49 g/m*3 15.3 C 4.8 km/h
1704 26-05-2020 21:55:00 15.2 C 8.57 g/m*3 15.2 C 4.8 km/h
1705 26-05-2020 22:00:00 15.1 C 8.64 g/m*3 15.1 C 4.8 km/h
1706 26-05-2020 22:05:00 14.9 C 8.54 g/m*3 14.9 C 4.8 km/h
1707 26-05-2020 22:10:00 14.8 C 8.61 g/m*3 14.8 C 4.8 km/h
1708 26-05-2020 22:15:00 14.8 C 8.74 g/m*3 14.8 C 6.4 km/h
1709 26-05-2020 22:20:00 14.7 C 8.81 g/m*3 14.7 C 3.2 km/h
1710 26-05-2020 22:25:00 14.7 C 8.81 g/m*3 14.7 C 4.8 km/h
1711 26-05-2020 22:30:00 14.7 C 9.07 g/m*3 14.7 C 3.2 km/h
1712 26-05-2020 22:35:00 14.6 C 9.01 g/m*3 14.6 C 3.2 km/h
1713 26-05-2020 22:40:00 14.5 C 8.95 g/m*3 14.5 C 3.2 km/h
1714 26-05-2020 22:45:00 14.3 C 8.72 g/m*3 14.3 C 1.6 km/h
1715 26-05-2020 22:50:00 14.2 C 8.67 g/m*3 14.2 C 1.6 km/h
1716 26-05-2020 22:55:00 14.1 C 8.86 g/m*3 14.1 C 1.6 km/h
1717 26-05-2020 23:00:00 13.9 C 8.87 g/m*3 13.9 C 0 km/h
1718 26-05-2020 23:05:00 13.8 C 8.82 g/m*3 13.8 C 0 km/h
1719 26-05-2020 23:10:00 13.6 C 8.71 g/m*3 13.6 C 0 km/h
1720 26-05-2020 23:15:00 13.4 C 8.6 g/m*3 13.4 C 0 km/h
1721 26-05-2020 23:20:00 13.2 C 8.61 g/m*3 13.2 C 0 km/h
1722 26-05-2020 23:25:00 13.1 C 8.67 g/m*3 13.1 C 0 km/h
1723 26-05-2020 23:30:00 12.9 C 8.57 g/m*3 12.9 C 0 km/h
1724 26-05-2020 23:35:00 12.8 C 8.62 g/m*3 12.8 C 0 km/h
1725 26-05-2020 23:40:00 12.7 C 8.57 g/m*3 12.7 C 0 km/h
Sensor: Nr:Datum:Temp:Abs-Feuchte:Windchill:Wind:
Aussen-T/F 1726 26-05-2020 23:45:00 12.6 C 8.63 g/m*3 12.6 C 0 km/h
1727 26-05-2020 23:50:00 12.4 C 8.63 g/m*3 12.4 C 0 km/h
1728 26-05-2020 23:55:00 12.3 C 8.58 g/m*3 12.3 C 0 km/h
1729 27-05-2020 00:00:00 12.2 C 8.52 g/m*3 12.2 C 0 km/h
1730 27-05-2020 00:05:00 12.1 C 8.58 g/m*3 12.1 C 0 km/h
1731 27-05-2020 00:10:00 12.1 C 8.58 g/m*3 12.1 C 0 km/h
1732 27-05-2020 00:15:00 11.9 C 8.58 g/m*3 11.9 C 0 km/h
1733 27-05-2020 00:20:00 11.9 C 8.58 g/m*3 11.9 C 0 km/h
1734 27-05-2020 00:25:00 11.8 C 8.53 g/m*3 11.8 C 0 km/h
1735 27-05-2020 00:30:00 11.7 C 8.47 g/m*3 11.7 C 0 km/h
1736 27-05-2020 00:35:00 11.6 C 8.42 g/m*3 11.6 C 0 km/h
1737 27-05-2020 00:40:00 11.6 C 8.42 g/m*3 11.6 C 0 km/h
1738 27-05-2020 00:45:00 11.5 C 8.47 g/m*3 11.5 C 0 km/h
1739 27-05-2020 00:50:00 11.4 C 8.42 g/m*3 11.4 C 0 km/h
1740 27-05-2020 00:55:00 11.3 C 8.36 g/m*3 11.3 C 0 km/h
1741 27-05-2020 01:00:00 11.3 C 8.36 g/m*3 11.3 C 0 km/h
1742 27-05-2020 01:05:00 11.2 C 8.31 g/m*3 11.2 C 0 km/h
1743 27-05-2020 01:10:00 11.1 C 8.36 g/m*3 11.1 C 0 km/h
1744 27-05-2020 01:15:00 10.9 C 8.26 g/m*3 10.9 C 0 km/h
1745 27-05-2020 01:20:00 10.8 C 8.2 g/m*3 10.8 C 0 km/h
1746 27-05-2020 01:25:00 10.7 C 8.15 g/m*3 10.7 C 0 km/h
1747 27-05-2020 01:30:00 10.6 C 8.2 g/m*3 10.6 C 0 km/h
1748 27-05-2020 01:35:00 10.5 C 8.15 g/m*3 10.5 C 0 km/h
1749 27-05-2020 01:40:00 10.4 C 8.1 g/m*3 10.4 C 0 km/h
1750 27-05-2020 01:45:00 10.3 C 8.14 g/m*3 10.3 C 0 km/h
Sensor: Nr:Datum:Temp:Abs-Feuchte:Windchill:Wind:
Aussen-T/F 1751 27-05-2020 01:50:00 10.2 C 8.09 g/m*3 10.2 C 0 km/h
1752 27-05-2020 01:55:00 10.1 C 8.04 g/m*3 10.1 C 0 km/h
1753 27-05-2020 02:00:00 10 C 7.99 g/m*3 10 C 0 km/h
1754 27-05-2020 02:05:00 9.9 C 8.03 g/m*3 9.9 C 0 km/h
1755 27-05-2020 02:10:00 9.9 C 8.03 g/m*3 9.9 C 0 km/h
1756 27-05-2020 02:15:00 9.8 C 7.98 g/m*3 9.8 C 0 km/h
1757 27-05-2020 02:20:00 9.8 C 7.98 g/m*3 9.8 C 0 km/h
1758 27-05-2020 02:25:00 9.7 C 7.93 g/m*3 9.7 C 0 km/h
1759 27-05-2020 02:30:00 9.7 C 7.93 g/m*3 9.7 C 0 km/h
1760 27-05-2020 02:35:00 9.6 C 7.97 g/m*3 9.6 C 0 km/h
1761 27-05-2020 02:40:00 9.6 C 7.97 g/m*3 9.6 C 0 km/h
1762 27-05-2020 02:45:00 9.6 C 8.06 g/m*3 9.6 C 0 km/h
1763 27-05-2020 02:50:00 9.7 C 8.11 g/m*3 9.7 C 0 km/h
1764 27-05-2020 02:55:00 9.7 C 8.11 g/m*3 9.7 C 0 km/h
1765 27-05-2020 03:00:00 9.7 C 8.11 g/m*3 9.7 C 0 km/h
1766 27-05-2020 03:05:00 9.7 C 8.11 g/m*3 9.7 C 0 km/h
1767 27-05-2020 03:10:00 9.6 C 8.06 g/m*3 9.6 C 0 km/h
1768 27-05-2020 03:15:00 9.4 C 7.96 g/m*3 9.4 C 0 km/h
1769 27-05-2020 03:20:00 9.3 C 7.91 g/m*3 9.3 C 0 km/h
1770 27-05-2020 03:25:00 9.3 C 7.91 g/m*3 9.3 C 0 km/h
1771 27-05-2020 03:30:00 9.2 C 7.86 g/m*3 9.2 C 0 km/h
1772 27-05-2020 03:35:00 9.1 C 7.9 g/m*3 9.1 C 0 km/h
1773 27-05-2020 03:40:00 9.1 C 7.9 g/m*3 9.1 C 0 km/h
1774 27-05-2020 03:45:00 9 C 7.85 g/m*3 9 C 0 km/h
1775 27-05-2020 03:50:00 8.9 C 7.8 g/m*3 8.9 C 0 km/h
Sensor: Nr:Datum:Temp:Abs-Feuchte:Windchill:Wind:
Aussen-T/F 1776 27-05-2020 03:55:00 8.8 C 7.75 g/m*3 8.8 C 0 km/h
1777 27-05-2020 04:00:00 8.8 C 7.75 g/m*3 8.8 C 0 km/h
1778 27-05-2020 04:05:00 8.8 C 7.83 g/m*3 8.8 C 0 km/h
1779 27-05-2020 04:10:00 8.7 C 7.78 g/m*3 8.7 C 0 km/h
1780 27-05-2020 04:15:00 8.7 C 7.78 g/m*3 8.7 C 0 km/h
1781 27-05-2020 04:20:00 8.6 C 7.73 g/m*3 8.6 C 0 km/h
1782 27-05-2020 04:25:00 8.6 C 7.73 g/m*3 8.6 C 0 km/h
1783 27-05-2020 04:30:00 8.6 C 7.82 g/m*3 8.6 C 0 km/h
1784 27-05-2020 04:35:00 8.6 C 7.82 g/m*3 8.6 C 0 km/h
1785 27-05-2020 04:40:00 8.6 C 7.82 g/m*3 8.6 C 0 km/h
1786 27-05-2020 04:45:00 8.5 C 7.77 g/m*3 8.5 C 0 km/h
1787 27-05-2020 04:50:00 8.4 C 7.72 g/m*3 8.4 C 0 km/h
1788 27-05-2020 04:55:00 8.3 C 7.67 g/m*3 8.3 C 0 km/h
1789 27-05-2020 05:00:00 8.2 C 7.62 g/m*3 8.2 C 0 km/h
1790 27-05-2020 05:05:00 8.2 C 7.62 g/m*3 8.2 C 0 km/h
1791 27-05-2020 05:10:00 8.1 C 7.57 g/m*3 8.1 C 0 km/h
1792 27-05-2020 05:15:00 8.1 C 7.57 g/m*3 8.1 C 0 km/h
1793 27-05-2020 05:20:00 7.9 C 7.47 g/m*3 7.9 C 0 km/h
1794 27-05-2020 05:25:00 7.9 C 7.56 g/m*3 7.9 C 0 km/h
1795 27-05-2020 05:30:00 7.8 C 7.51 g/m*3 7.8 C 0 km/h
1796 27-05-2020 05:35:00 7.8 C 7.51 g/m*3 7.8 C 0 km/h
1797 27-05-2020 05:40:00 7.8 C 7.51 g/m*3 7.8 C 0 km/h
1798 27-05-2020 05:45:00 7.8 C 7.51 g/m*3 7.8 C 0 km/h
1799 27-05-2020 05:50:00 7.8 C 7.51 g/m*3 7.8 C 0 km/h
1800 27-05-2020 05:55:00 7.8 C 7.59 g/m*3 7.8 C 0 km/h
Sensor: Nr:Datum:Temp:Abs-Feuchte:Windchill:Wind:
Aussen-T/F 1801 27-05-2020 06:00:00 7.8 C 7.59 g/m*3 7.8 C 0 km/h
1802 27-05-2020 06:05:00 8 C 7.69 g/m*3 8 C 0 km/h
1803 27-05-2020 06:10:00 8.1 C 7.82 g/m*3 8.1 C 0 km/h
1804 27-05-2020 06:15:00 8.1 C 7.74 g/m*3 8.1 C 0 km/h
1805 27-05-2020 06:20:00 8.1 C 7.74 g/m*3 8.1 C 0 km/h
1806 27-05-2020 06:25:00 8 C 7.69 g/m*3 8 C 0 km/h
1807 27-05-2020 06:30:00 8 C 7.69 g/m*3 8 C 0 km/h
1808 27-05-2020 06:35:00 8 C 7.69 g/m*3 8 C 0 km/h
1809 27-05-2020 06:40:00 7.9 C 7.64 g/m*3 7.9 C 0 km/h
1810 27-05-2020 06:45:00 7.9 C 7.64 g/m*3 7.9 C 0 km/h
1811 27-05-2020 06:50:00 7.9 C 7.64 g/m*3 7.9 C 0 km/h
1812 27-05-2020 06:55:00 8 C 7.69 g/m*3 8 C 0 km/h
1813 27-05-2020 07:00:00 8.1 C 7.82 g/m*3 8.1 C 0 km/h
1814 27-05-2020 07:05:00 8.1 C 7.82 g/m*3 8.1 C 0 km/h
1815 27-05-2020 07:10:00 8.2 C 7.87 g/m*3 8.2 C 0 km/h
1816 27-05-2020 07:15:00 8.2 C 7.87 g/m*3 8.2 C 0 km/h
1817 27-05-2020 07:20:00 8.2 C 7.87 g/m*3 8.2 C 0 km/h
1818 27-05-2020 07:25:00 8.3 C 7.92 g/m*3 8.3 C 0 km/h
1819 27-05-2020 07:30:00 8.3 C 7.92 g/m*3 8.3 C 0 km/h
1820 27-05-2020 07:35:00 8.4 C 7.97 g/m*3 8.4 C 0 km/h
1821 27-05-2020 07:40:00 8.4 C 7.97 g/m*3 8.4 C 0 km/h
1822 27-05-2020 07:45:00 8.6 C 8.08 g/m*3 8.6 C 0 km/h
1823 27-05-2020 07:50:00 8.7 C 8.13 g/m*3 8.7 C 0 km/h
1824 27-05-2020 07:55:00 8.8 C 8.18 g/m*3 8.8 C 0 km/h
1825 27-05-2020 08:00:00 8.9 C 8.32 g/m*3 8.9 C 0 km/h
Sensor: Nr:Datum:Temp:Abs-Feuchte:Windchill:Wind:
Aussen-T/F 1826 27-05-2020 08:05:00 9 C 8.38 g/m*3 9 C 0 km/h
1827 27-05-2020 08:10:00 9.1 C 8.34 g/m*3 9.1 C 0 km/h
1828 27-05-2020 08:15:00 9.2 C 8.39 g/m*3 9.2 C 0 km/h
1829 27-05-2020 08:20:00 9.3 C 8.54 g/m*3 9.3 C 0 km/h
1830 27-05-2020 08:25:00 9.5 C 8.56 g/m*3 9.5 C 0 km/h
1831 27-05-2020 08:30:00 9.6 C 8.61 g/m*3 9.6 C 0 km/h
1832 27-05-2020 08:35:00 9.7 C 8.67 g/m*3 9.7 C 0 km/h
1833 27-05-2020 08:40:00 9.7 C 8.67 g/m*3 9.7 C 0 km/h
1834 27-05-2020 08:45:00 9.8 C 8.72 g/m*3 9.8 C 0 km/h
1835 27-05-2020 08:50:00 10 C 8.83 g/m*3 10 C 0 km/h
1836 27-05-2020 08:55:00 10.1 C 8.89 g/m*3 10.1 C 0 km/h
1837 27-05-2020 09:00:00 10.3 C 9 g/m*3 10.3 C 0 km/h
1838 27-05-2020 09:05:00 10.4 C 9.06 g/m*3 10.4 C 0 km/h
1839 27-05-2020 09:10:00 10.6 C 9.17 g/m*3 10.6 C 0 km/h
1840 27-05-2020 09:15:00 10.7 C 9.23 g/m*3 10.7 C 0 km/h
1841 27-05-2020 09:20:00 10.9 C 9.35 g/m*3 10.9 C 0 km/h
1842 27-05-2020 09:25:00 11.2 C 9.53 g/m*3 11.2 C 0 km/h
1843 27-05-2020 09:30:00 11.3 C 9.49 g/m*3 11.3 C 0 km/h
1844 27-05-2020 09:35:00 11.6 C 9.67 g/m*3 11.6 C 0 km/h
1845 27-05-2020 09:40:00 11.8 C 9.79 g/m*3 11.8 C 0 km/h
1846 27-05-2020 09:45:00 11.9 C 9.74 g/m*3 11.9 C 0 km/h
1847 27-05-2020 09:50:00 12.2 C 9.82 g/m*3 12.2 C 0 km/h
1848 27-05-2020 09:55:00 12.4 C 9.94 g/m*3 12.4 C 0 km/h
1849 27-05-2020 10:00:00 12.7 C 10.02 g/m*3 12.7 C 0 km/h
1850 27-05-2020 10:05:00 13.1 C 10.16 g/m*3 13.1 C 0 km/h
Sensor: Nr:Datum:Temp:Abs-Feuchte:Windchill:Wind:
Aussen-T/F 1851 27-05-2020 10:10:00 13.4 C 10.23 g/m*3 13.4 C 0 km/h
1852 27-05-2020 10:15:00 13.8 C 10.25 g/m*3 13.8 C 0 km/h
1853 27-05-2020 10:20:00 14.2 C 10.38 g/m*3 14.2 C 0 km/h
1854 27-05-2020 10:25:00 14.7 C 10.32 g/m*3 14.7 C 0 km/h
1855 27-05-2020 10:30:00 15.3 C 10.32 g/m*3 15.3 C 0 km/h
1856 27-05-2020 10:35:00 15.8 C 10.77 g/m*3 15.8 C 0 km/h
1857 27-05-2020 10:40:00 16.2 C 10.07 g/m*3 16.2 C 0 km/h
1858 27-05-2020 10:45:00 16.7 C 10.23 g/m*3 16.7 C 0 km/h
1859 27-05-2020 10:50:00 17 C 10.13 g/m*3 17 C 4.8 km/h
1860 27-05-2020 10:55:00 17.5 C 9.39 g/m*3 17.5 C 6.4 km/h
1861 27-05-2020 11:00:00 17.9 C 9.92 g/m*3 17.9 C 1.6 km/h
1862 27-05-2020 11:05:00 18.2 C 9.64 g/m*3 18.2 C 3.2 km/h
1863 27-05-2020 11:10:00 18.7 C 9.29 g/m*3 18.7 C 4.8 km/h
1864 27-05-2020 11:15:00 18.9 C 8.91 g/m*3 18.9 C 6.4 km/h
1865 27-05-2020 11:20:00 19.1 C 8.85 g/m*3 19.1 C 6.4 km/h
1866 27-05-2020 11:25:00 19.3 C 8.79 g/m*3 19.3 C 11.3 km/h
1867 27-05-2020 11:30:00 19.3 C 8.63 g/m*3 19.3 C 6.4 km/h
1868 27-05-2020 11:35:00 19.2 C 8.41 g/m*3 19.2 C 4.8 km/h
1869 27-05-2020 11:40:00 19.3 C 8.46 g/m*3 19.3 C 9.7 km/h
1870 27-05-2020 11:45:00 19.6 C 7.93 g/m*3 19.6 C 8.1 km/h
1871 27-05-2020 11:50:00 19.7 C 7.81 g/m*3 19.7 C 6.4 km/h
1872 27-05-2020 11:55:00 19.8 C 7.52 g/m*3 19.8 C 9.7 km/h
1873 27-05-2020 12:00:00 19.9 C 7.73 g/m*3 19.9 C 9.7 km/h
1874 27-05-2020 12:05:00 20.1 C 7.82 g/m*3 20.1 C 12.9 km/h
1875 27-05-2020 12:10:00 20.2 C 7.87 g/m*3 20.2 C 8.1 km/h
Sensor: Nr:Datum:Temp:Abs-Feuchte:Windchill:Wind:
Aussen-T/F 1876 27-05-2020 12:15:00 20.2 C 7.87 g/m*3 20.2 C 9.7 km/h
1877 27-05-2020 12:20:00 20.3 C 8.09 g/m*3 20.3 C 8.1 km/h
1878 27-05-2020 12:25:00 20.4 C 7.78 g/m*3 20.4 C 11.3 km/h
1879 27-05-2020 12:30:00 20.3 C 7.91 g/m*3 20.3 C 6.4 km/h
1880 27-05-2020 12:35:00 20.3 C 7.74 g/m*3 20.3 C 11.3 km/h
1881 27-05-2020 12:40:00 20.5 C 8.01 g/m*3 20.5 C 9.7 km/h
1882 27-05-2020 12:45:00 20.7 C 7.92 g/m*3 20.7 C 8.1 km/h
1883 27-05-2020 12:50:00 20.7 C 7.92 g/m*3 20.7 C 6.4 km/h
1884 27-05-2020 12:55:00 20.7 C 7.92 g/m*3 20.7 C 9.7 km/h
1885 27-05-2020 13:00:00 20.8 C 7.79 g/m*3 20.8 C 9.7 km/h
1886 27-05-2020 13:05:00 20.8 C 7.97 g/m*3 20.8 C 4.8 km/h
1887 27-05-2020 13:10:00 21 C 8.06 g/m*3 21 C 4.8 km/h
1888 27-05-2020 13:15:00 21 C 7.69 g/m*3 21 C 9.7 km/h
1889 27-05-2020 13:20:00 21 C 8.06 g/m*3 21 C 8.1 km/h
1890 27-05-2020 13:25:00 21.1 C 7.74 g/m*3 21.1 C 8.1 km/h
1891 27-05-2020 13:30:00 21.2 C 7.78 g/m*3 21.2 C 11.3 km/h
1892 27-05-2020 13:35:00 21.3 C 7.83 g/m*3 21.3 C 11.3 km/h
1893 27-05-2020 13:40:00 21.4 C 7.87 g/m*3 21.4 C 11.3 km/h
1894 27-05-2020 13:45:00 21.3 C 7.64 g/m*3 21.3 C 9.7 km/h
1895 27-05-2020 13:50:00 21.3 C 7.83 g/m*3 21.3 C 4.8 km/h
1896 27-05-2020 13:55:00 21.3 C 7.83 g/m*3 21.3 C 6.4 km/h
1897 27-05-2020 14:00:00 21.3 C 7.64 g/m*3 21.3 C 6.4 km/h
1898 27-05-2020 14:05:00 21.6 C 8.16 g/m*3 21.6 C 8.1 km/h
1899 27-05-2020 14:10:00 21.8 C 7.48 g/m*3 21.8 C 8.1 km/h
1900 27-05-2020 14:15:00 21.9 C 8.1 g/m*3 21.9 C 3.2 km/h
Sensor: Nr:Datum:Temp:Abs-Feuchte:Windchill:Wind:
Aussen-T/F 1901 27-05-2020 14:20:00 21.9 C 7.53 g/m*3 21.9 C 8.1 km/h
1902 27-05-2020 14:25:00 22.2 C 7.46 g/m*3 22.2 C 11.3 km/h
1903 27-05-2020 14:30:00 22.3 C 7.7 g/m*3 22.3 C 9.7 km/h
1904 27-05-2020 14:35:00 22.3 C 7.31 g/m*3 22.3 C 8.1 km/h
1905 27-05-2020 14:40:00 22.3 C 7.5 g/m*3 22.3 C 8.1 km/h
1906 27-05-2020 14:45:00 22.5 C 7.19 g/m*3 22.5 C 9.7 km/h
1907 27-05-2020 14:50:00 22.7 C 7.07 g/m*3 22.7 C 8.1 km/h
1908 27-05-2020 14:55:00 22.9 C 7.36 g/m*3 22.9 C 12.9 km/h
1909 27-05-2020 15:00:00 23 C 6.58 g/m*3 23 C 8.1 km/h
1910 27-05-2020 15:05:00 23 C 6.78 g/m*3 23 C 9.7 km/h
1911 27-05-2020 15:10:00 23.2 C 6.65 g/m*3 23.2 C 8.1 km/h
1912 27-05-2020 15:15:00 23.3 C 6.69 g/m*3 23.3 C 9.7 km/h
1913 27-05-2020 15:20:00 23.4 C 7.15 g/m*3 23.4 C 6.4 km/h
1914 27-05-2020 15:25:00 23.7 C 7.06 g/m*3 23.7 C 6.4 km/h
1915 27-05-2020 15:30:00 24.2 C 6.82 g/m*3 24.2 C 6.4 km/h
1916 27-05-2020 15:35:00 24.6 C 6.98 g/m*3 24.6 C 11.3 km/h
1917 27-05-2020 15:40:00 24.7 C 7.02 g/m*3 24.7 C 8.1 km/h
1918 27-05-2020 15:45:00 24.9 C 6.87 g/m*3 24.9 C 9.7 km/h
1919 27-05-2020 15:50:00 25 C 7.37 g/m*3 25 C 4.8 km/h
1920 27-05-2020 15:55:00 25 C 6.91 g/m*3 25 C 8.1 km/h
1921 27-05-2020 16:00:00 25.3 C 7.49 g/m*3 25.3 C 4.8 km/h
1922 27-05-2020 16:05:00 25.6 C 7.14 g/m*3 25.6 C 6.4 km/h
1923 27-05-2020 16:10:00 25.6 C 7.38 g/m*3 25.6 C 8.1 km/h
1924 27-05-2020 16:15:00 25.4 C 7.3 g/m*3 25.4 C 8.1 km/h
1925 27-05-2020 16:20:00 25.2 C 7.68 g/m*3 25.2 C 9.7 km/h
Sensor: Nr:Datum:Temp:Abs-Feuchte:Windchill:Wind:
Aussen-T/F 1926 27-05-2020 16:25:00 25.1 C 7.41 g/m*3 25.1 C 14.5 km/h
1927 27-05-2020 16:30:00 25 C 7.37 g/m*3 25 C 12.9 km/h
1928 27-05-2020 16:35:00 25.1 C 7.64 g/m*3 25.1 C 8.1 km/h
1929 27-05-2020 16:40:00 25.6 C 7.86 g/m*3 25.6 C 8.1 km/h
1930 27-05-2020 16:45:00 25.8 C 7.46 g/m*3 25.8 C 6.4 km/h
1931 27-05-2020 16:50:00 25.8 C 7.46 g/m*3 25.8 C 4.8 km/h
1932 27-05-2020 16:55:00 25.9 C 7.99 g/m*3 25.9 C 3.2 km/h
1933 27-05-2020 17:00:00 26.2 C 7.63 g/m*3 26.2 C 8.1 km/h
1934 27-05-2020 17:05:00 26.1 C 8.08 g/m*3 26.1 C 8.1 km/h
1935 27-05-2020 17:10:00 26.3 C 8.42 g/m*3 26.3 C 8.1 km/h
1936 27-05-2020 17:15:00 26.3 C 8.42 g/m*3 26.3 C 11.3 km/h
1937 27-05-2020 17:20:00 26.4 C 7.97 g/m*3 26.4 C 1.6 km/h
1938 27-05-2020 17:25:00 26.2 C 7.88 g/m*3 26.2 C 4.8 km/h
1939 27-05-2020 17:30:00 25.9 C 8.23 g/m*3 25.9 C 11.3 km/h
1940 27-05-2020 17:35:00 25.7 C 8.38 g/m*3 25.7 C 9.7 km/h
1941 27-05-2020 17:40:00 25.9 C 8.23 g/m*3 25.9 C 6.4 km/h
1942 27-05-2020 17:45:00 25.9 C 8.23 g/m*3 25.9 C 11.3 km/h
1943 27-05-2020 17:50:00 25.9 C 8.23 g/m*3 25.9 C 9.7 km/h
1944 27-05-2020 17:55:00 25.9 C 8.23 g/m*3 25.9 C 6.4 km/h
1945 27-05-2020 18:00:00 26 C 8.03 g/m*3 26 C 8.1 km/h
1946 27-05-2020 18:05:00 25.9 C 8.23 g/m*3 25.9 C 9.7 km/h
1947 27-05-2020 18:10:00 26 C 8.28 g/m*3 26 C 8.1 km/h
1948 27-05-2020 18:15:00 26.2 C 8.12 g/m*3 26.2 C 4.8 km/h
1949 27-05-2020 18:20:00 26.2 C 8.37 g/m*3 26.2 C 6.4 km/h
1950 27-05-2020 18:25:00 25.9 C 7.99 g/m*3 25.9 C 6.4 km/h
Sensor: Nr:Datum:Temp:Abs-Feuchte:Windchill:Wind:
Aussen-T/F 1951 27-05-2020 18:30:00 25.4 C 8 g/m*3 25.4 C 4.8 km/h
1952 27-05-2020 18:35:00 24.8 C 7.97 g/m*3 24.8 C 8.1 km/h
1953 27-05-2020 18:40:00 24.6 C 8.1 g/m*3 24.6 C 3.2 km/h
1954 27-05-2020 18:45:00 24.4 C 9.57 g/m*3 24.4 C 1.6 km/h
1955 27-05-2020 18:50:00 24.2 C 10.12 g/m*3 24.2 C 1.6 km/h
1956 27-05-2020 18:55:00 24 C 10.01 g/m*3 24 C 0 km/h
1957 27-05-2020 19:00:00 23.7 C 10.27 g/m*3 23.7 C 0 km/h
1958 27-05-2020 19:05:00 23.7 C 9.63 g/m*3 23.7 C 0 km/h
1959 27-05-2020 19:10:00 24.1 C 8.53 g/m*3 24.1 C 4.8 km/h
1960 27-05-2020 19:15:00 24.5 C 8.5 g/m*3 24.5 C 9.7 km/h
1961 27-05-2020 19:20:00 24.5 C 8.28 g/m*3 24.5 C 11.3 km/h
1962 27-05-2020 19:25:00 24.4 C 8.23 g/m*3 24.4 C 9.7 km/h
1963 27-05-2020 19:30:00 24.1 C 8.31 g/m*3 24.1 C 6.4 km/h
1964 27-05-2020 19:35:00 23.8 C 8.17 g/m*3 23.8 C 8.1 km/h
1965 27-05-2020 19:40:00 23.7 C 8.56 g/m*3 23.7 C 6.4 km/h
1966 27-05-2020 19:45:00 23.6 C 8.51 g/m*3 23.6 C 8.1 km/h
1967 27-05-2020 19:50:00 23.3 C 8.36 g/m*3 23.3 C 9.7 km/h
1968 27-05-2020 19:55:00 23.3 C 8.78 g/m*3 23.3 C 6.4 km/h
1969 27-05-2020 20:00:00 23.2 C 8.52 g/m*3 23.2 C 8.1 km/h
1970 27-05-2020 20:05:00 23.1 C 8.68 g/m*3 23.1 C 8.1 km/h
1971 27-05-2020 20:10:00 23.2 C 8.73 g/m*3 23.2 C 6.4 km/h
1972 27-05-2020 20:15:00 23.2 C 8.94 g/m*3 23.2 C 12.9 km/h
1973 27-05-2020 20:20:00 23.2 C 8.94 g/m*3 23.2 C 6.4 km/h
1974 27-05-2020 20:25:00 23 C 8.84 g/m*3 23 C 9.7 km/h
1975 27-05-2020 20:30:00 22.9 C 8.99 g/m*3 22.9 C 6.4 km/h
Sensor: Nr:Datum:Temp:Abs-Feuchte:Windchill:Wind:
Aussen-T/F 1976 27-05-2020 20:35:00 22.9 C 9.2 g/m*3 22.9 C 4.8 km/h
1977 27-05-2020 20:40:00 22.8 C 8.94 g/m*3 22.8 C 8.1 km/h
1978 27-05-2020 20:45:00 22.7 C 9.29 g/m*3 22.7 C 3.2 km/h
1979 27-05-2020 20:50:00 22.4 C 9.14 g/m*3 22.4 C 8.1 km/h
1980 27-05-2020 20:55:00 22.2 C 9.62 g/m*3 22.2 C 0 km/h
1981 27-05-2020 21:00:00 21.9 C 9.26 g/m*3 21.9 C 8.1 km/h
1982 27-05-2020 21:05:00 21.6 C 9.29 g/m*3 21.6 C 4.8 km/h
1983 27-05-2020 21:10:00 21.3 C 9.32 g/m*3 21.3 C 1.6 km/h
1984 27-05-2020 21:15:00 21.1 C 9.4 g/m*3 21.1 C 6.4 km/h
1985 27-05-2020 21:20:00 20.8 C 9.78 g/m*3 20.8 C 4.8 km/h
1986 27-05-2020 21:25:00 20.3 C 9.67 g/m*3 20.3 C 4.8 km/h
1987 27-05-2020 21:30:00 20.1 C 9.73 g/m*3 20.1 C 4.8 km/h
1988 27-05-2020 21:35:00 19.7 C 9.85 g/m*3 19.7 C 1.6 km/h
1989 27-05-2020 21:40:00 19.3 C 9.62 g/m*3 19.3 C 1.6 km/h
1990 27-05-2020 21:45:00 18.9 C 9.23 g/m*3 18.9 C 4.8 km/h
1991 27-05-2020 21:50:00 18.8 C 9.34 g/m*3 18.8 C 4.8 km/h
1992 27-05-2020 21:55:00 18.9 C 9.4 g/m*3 18.9 C 4.8 km/h
1993 27-05-2020 22:00:00 18.9 C 9.4 g/m*3 18.9 C 3.2 km/h
1994 27-05-2020 22:05:00 18.9 C 9.56 g/m*3 18.9 C 1.6 km/h
1995 27-05-2020 22:10:00 18.9 C 9.56 g/m*3 18.9 C 1.6 km/h
1996 27-05-2020 22:15:00 18.8 C 9.66 g/m*3 18.8 C 1.6 km/h
1997 27-05-2020 22:20:00 18.7 C 9.45 g/m*3 18.7 C 3.2 km/h
1998 27-05-2020 22:25:00 18.6 C 9.71 g/m*3 18.6 C 3.2 km/h
1999 27-05-2020 22:30:00 18.3 C 9.69 g/m*3 18.3 C 0 km/h
2000 27-05-2020 22:35:00 18.1 C 9.58 g/m*3 18.1 C 4.8 km/h
Sensor: Nr:Datum:Temp:Abs-Feuchte:Windchill:Wind:
Aussen-T/F 2001 27-05-2020 22:40:00 17.9 C 9.77 g/m*3 17.9 C 3.2 km/h
2002 27-05-2020 22:45:00 17.7 C 9.66 g/m*3 17.7 C 3.2 km/h
2003 27-05-2020 22:50:00 17.5 C 9.69 g/m*3 17.5 C 1.6 km/h
2004 27-05-2020 22:55:00 17.4 C 9.63 g/m*3 17.4 C 4.8 km/h
2005 27-05-2020 23:00:00 17.4 C 9.63 g/m*3 17.4 C 4.8 km/h
2006 27-05-2020 23:05:00 17.3 C 9.87 g/m*3 17.3 C 3.2 km/h
2007 27-05-2020 23:10:00 17.2 C 9.81 g/m*3 17.2 C 4.8 km/h
2008 27-05-2020 23:15:00 17.1 C 9.75 g/m*3 17.1 C 3.2 km/h
2009 27-05-2020 23:20:00 16.9 C 9.78 g/m*3 16.9 C 1.6 km/h
2010 27-05-2020 23:25:00 16.8 C 9.87 g/m*3 16.8 C 1.6 km/h
2011 27-05-2020 23:30:00 16.7 C 9.81 g/m*3 16.7 C 4.8 km/h
2012 27-05-2020 23:35:00 16.5 C 9.83 g/m*3 16.5 C 3.2 km/h
2013 27-05-2020 23:40:00 16.3 C 9.85 g/m*3 16.3 C 6.4 km/h
2014 27-05-2020 23:45:00 16.2 C 9.93 g/m*3 16.2 C 6.4 km/h
2015 27-05-2020 23:50:00 16.1 C 9.87 g/m*3 16.1 C 0 km/h
2016 27-05-2020 23:55:00 16 C 9.81 g/m*3 16 C 3.2 km/h

Legende:
   Min
   Max


Maximal/Minimal-Werte vom 21.05.2020 - 27.05.2020

Sensor Min Max Avg
Temp
(Aussen-T/F)
7.2 °C
26-05-2020  05:50:00
29.2 °C
21-05-2020  17:15:00
16.18 °C
Abs-Feuchte
(Aussen-T/F)
6.58 g/m*3
27-05-2020  15:00:00
15.28 g/m*3
22-05-2020  13:30:00
9.94 g/m*3
Windchill
(Aussen-T/F)
7.2 C
26-05-2020  05:50:00
29.2 C
21-05-2020  17:15:00
16.13 C

Die Daten stammen von einer Davis Vantage Pro 2 Wetter-Station und werden unter Linux mit der Software wview2wettercgi und aufbereitet. Alle Angaben erfolgen ohne Gewähr für ihre Vollständigkeit oder Richtigkeit.
Kontakt: Rainer Krienke krienke@uni-koblenz.de . Meine Webseiten an der Uni Koblenz oder privat.
Version: $Revision: 0.78 $